<?xml version="1.0" encoding="UTF-8" standalone="no" ?>
<gpx xmlns="http://www.topografix.com/GPX/1/1" xmlns:xsi="http://www.w3.org/2001/XMLSchema-instance" xsi:schemaLocation="http://www.topografix.com/GPX/1/1 http://www.topografix.com/GPX/1/1/gpx.xsd" version="1.1" creator="VisuGPX - https://www.visugpx.com">
  <metadata>
    <name>Lavaur - Massac Séran 2013 11 06</name>
    <desc><![CDATA[
]]></desc>
  </metadata>
  <trk>
    <name><![CDATA[Lavaur - Massac Séran 2013 11 06]]></name>
    <trkseg>
      <trkpt lat="43.69954" lon="1.82192">
        <ele>141.6</ele>
        <time>2013-11-06T08:52:21.000Z</time>
      </trkpt>
      <trkpt lat="43.69949" lon="1.8219">
        <ele>142.2</ele>
        <time>2013-11-06T08:52:27.000Z</time>
      </trkpt>
      <trkpt lat="43.6994" lon="1.82186">
        <ele>141</ele>
        <time>2013-11-06T08:52:49.000Z</time>
      </trkpt>
      <trkpt lat="43.69943" lon="1.82175">
        <ele>141.2</ele>
        <time>2013-11-06T08:53:32.000Z</time>
      </trkpt>
      <trkpt lat="43.69943" lon="1.82174">
        <ele>141</ele>
        <time>2013-11-06T08:53:33.000Z</time>
      </trkpt>
      <trkpt lat="43.69941" lon="1.82152">
        <ele>139.3</ele>
        <time>2013-11-06T08:53:48.000Z</time>
      </trkpt>
      <trkpt lat="43.69946" lon="1.82142">
        <ele>140</ele>
        <time>2013-11-06T08:53:55.000Z</time>
      </trkpt>
      <trkpt lat="43.69943" lon="1.82139">
        <ele>143.1</ele>
        <time>2013-11-06T08:54:56.000Z</time>
      </trkpt>
      <trkpt lat="43.69945" lon="1.82138">
        <ele>142.3</ele>
        <time>2013-11-06T08:55:19.000Z</time>
      </trkpt>
      <trkpt lat="43.69931" lon="1.82139">
        <ele>142.3</ele>
        <time>2013-11-06T08:55:28.000Z</time>
      </trkpt>
      <trkpt lat="43.69925" lon="1.82137">
        <ele>142.6</ele>
        <time>2013-11-06T08:55:35.000Z</time>
      </trkpt>
      <trkpt lat="43.69919" lon="1.82133">
        <ele>142.6</ele>
        <time>2013-11-06T08:55:36.000Z</time>
      </trkpt>
      <trkpt lat="43.69904" lon="1.82118">
        <ele>142.1</ele>
        <time>2013-11-06T08:55:45.000Z</time>
      </trkpt>
      <trkpt lat="43.69909" lon="1.82117">
        <ele>141.6</ele>
        <time>2013-11-06T08:56:1.000Z</time>
      </trkpt>
      <trkpt lat="43.699" lon="1.82125">
        <ele>141</ele>
        <time>2013-11-06T08:56:25.000Z</time>
      </trkpt>
      <trkpt lat="43.69879" lon="1.82119">
        <ele>141.5</ele>
        <time>2013-11-06T08:56:36.000Z</time>
      </trkpt>
      <trkpt lat="43.69872" lon="1.82118">
        <ele>141.3</ele>
        <time>2013-11-06T08:56:39.000Z</time>
      </trkpt>
      <trkpt lat="43.69869" lon="1.82118">
        <ele>141.1</ele>
        <time>2013-11-06T08:56:40.000Z</time>
      </trkpt>
      <trkpt lat="43.69862" lon="1.82116">
        <ele>140.9</ele>
        <time>2013-11-06T08:56:43.000Z</time>
      </trkpt>
      <trkpt lat="43.69808" lon="1.82117">
        <ele>140</ele>
        <time>2013-11-06T08:56:49.000Z</time>
      </trkpt>
      <trkpt lat="43.69722" lon="1.82101">
        <ele>139.8</ele>
        <time>2013-11-06T08:57:7.000Z</time>
      </trkpt>
      <trkpt lat="43.69725" lon="1.82091">
        <ele>139.5</ele>
        <time>2013-11-06T08:57:15.000Z</time>
      </trkpt>
      <trkpt lat="43.69727" lon="1.82079">
        <ele>139.5</ele>
        <time>2013-11-06T08:57:26.000Z</time>
      </trkpt>
      <trkpt lat="43.69736" lon="1.82078">
        <ele>139.3</ele>
        <time>2013-11-06T08:57:30.000Z</time>
      </trkpt>
      <trkpt lat="43.69741" lon="1.82069">
        <ele>139.1</ele>
        <time>2013-11-06T08:57:42.000Z</time>
      </trkpt>
      <trkpt lat="43.69741" lon="1.82067">
        <ele>139.1</ele>
        <time>2013-11-06T08:57:43.000Z</time>
      </trkpt>
      <trkpt lat="43.69736" lon="1.82046">
        <ele>139.6</ele>
        <time>2013-11-06T08:57:56.000Z</time>
      </trkpt>
      <trkpt lat="43.69733" lon="1.82036">
        <ele>139.4</ele>
        <time>2013-11-06T08:58:1.000Z</time>
      </trkpt>
      <trkpt lat="43.69728" lon="1.82027">
        <ele>139.6</ele>
        <time>2013-11-06T08:58:7.000Z</time>
      </trkpt>
      <trkpt lat="43.69726" lon="1.82017">
        <ele>139.2</ele>
        <time>2013-11-06T08:58:14.000Z</time>
      </trkpt>
      <trkpt lat="43.69722" lon="1.82006">
        <ele>139</ele>
        <time>2013-11-06T08:58:21.000Z</time>
      </trkpt>
      <trkpt lat="43.69719" lon="1.81996">
        <ele>138.9</ele>
        <time>2013-11-06T08:58:26.000Z</time>
      </trkpt>
      <trkpt lat="43.69715" lon="1.81987">
        <ele>139</ele>
        <time>2013-11-06T08:58:31.000Z</time>
      </trkpt>
      <trkpt lat="43.69709" lon="1.8198">
        <ele>138.6</ele>
        <time>2013-11-06T08:58:37.000Z</time>
      </trkpt>
      <trkpt lat="43.697" lon="1.81981">
        <ele>138.3</ele>
        <time>2013-11-06T08:58:40.000Z</time>
      </trkpt>
      <trkpt lat="43.69692" lon="1.81984">
        <ele>137.5</ele>
        <time>2013-11-06T08:58:45.000Z</time>
      </trkpt>
      <trkpt lat="43.6969" lon="1.81985">
        <ele>137.3</ele>
        <time>2013-11-06T08:58:46.000Z</time>
      </trkpt>
      <trkpt lat="43.69682" lon="1.82002">
        <ele>135.4</ele>
        <time>2013-11-06T08:58:58.000Z</time>
      </trkpt>
      <trkpt lat="43.69676" lon="1.8201">
        <ele>134.4</ele>
        <time>2013-11-06T08:59:5.000Z</time>
      </trkpt>
      <trkpt lat="43.6967" lon="1.82019">
        <ele>133.7</ele>
        <time>2013-11-06T08:59:12.000Z</time>
      </trkpt>
      <trkpt lat="43.69664" lon="1.82027">
        <ele>132.1</ele>
        <time>2013-11-06T08:59:19.000Z</time>
      </trkpt>
      <trkpt lat="43.69656" lon="1.8203">
        <ele>130.6</ele>
        <time>2013-11-06T08:59:25.000Z</time>
      </trkpt>
      <trkpt lat="43.69651" lon="1.8204">
        <ele>130</ele>
        <time>2013-11-06T08:59:33.000Z</time>
      </trkpt>
      <trkpt lat="43.69645" lon="1.82048">
        <ele>128.5</ele>
        <time>2013-11-06T08:59:41.000Z</time>
      </trkpt>
      <trkpt lat="43.69641" lon="1.82059">
        <ele>127.4</ele>
        <time>2013-11-06T08:59:49.000Z</time>
      </trkpt>
      <trkpt lat="43.69639" lon="1.82059">
        <ele>127.4</ele>
        <time>2013-11-06T08:59:50.000Z</time>
      </trkpt>
      <trkpt lat="43.69625" lon="1.82066">
        <ele>125.4</ele>
        <time>2013-11-06T09:00:4.000Z</time>
      </trkpt>
      <trkpt lat="43.69616" lon="1.82065">
        <ele>124.8</ele>
        <time>2013-11-06T09:00:11.000Z</time>
      </trkpt>
      <trkpt lat="43.69609" lon="1.82066">
        <ele>123.6</ele>
        <time>2013-11-06T09:00:17.000Z</time>
      </trkpt>
      <trkpt lat="43.69608" lon="1.82077">
        <ele>123.1</ele>
        <time>2013-11-06T09:00:25.000Z</time>
      </trkpt>
      <trkpt lat="43.69614" lon="1.82085">
        <ele>122.8</ele>
        <time>2013-11-06T09:00:27.000Z</time>
      </trkpt>
      <trkpt lat="43.69615" lon="1.82096">
        <ele>121.7</ele>
        <time>2013-11-06T09:00:34.000Z</time>
      </trkpt>
      <trkpt lat="43.6961" lon="1.82105">
        <ele>119.7</ele>
        <time>2013-11-06T09:00:42.000Z</time>
      </trkpt>
      <trkpt lat="43.69604" lon="1.82113">
        <ele>119.3</ele>
        <time>2013-11-06T09:00:50.000Z</time>
      </trkpt>
      <trkpt lat="43.69603" lon="1.82114">
        <ele>119.1</ele>
        <time>2013-11-06T09:00:51.000Z</time>
      </trkpt>
      <trkpt lat="43.69591" lon="1.82127">
        <ele>118.6</ele>
        <time>2013-11-06T09:01:3.000Z</time>
      </trkpt>
      <trkpt lat="43.69583" lon="1.82132">
        <ele>118.5</ele>
        <time>2013-11-06T09:01:10.000Z</time>
      </trkpt>
      <trkpt lat="43.69575" lon="1.82137">
        <ele>119</ele>
        <time>2013-11-06T09:01:17.000Z</time>
      </trkpt>
      <trkpt lat="43.69569" lon="1.82145">
        <ele>119.6</ele>
        <time>2013-11-06T09:01:25.000Z</time>
      </trkpt>
      <trkpt lat="43.69563" lon="1.82153">
        <ele>119.6</ele>
        <time>2013-11-06T09:01:31.000Z</time>
      </trkpt>
      <trkpt lat="43.69559" lon="1.82162">
        <ele>119.5</ele>
        <time>2013-11-06T09:01:37.000Z</time>
      </trkpt>
      <trkpt lat="43.69555" lon="1.82172">
        <ele>119.5</ele>
        <time>2013-11-06T09:01:43.000Z</time>
      </trkpt>
      <trkpt lat="43.69552" lon="1.82183">
        <ele>119.9</ele>
        <time>2013-11-06T09:01:50.000Z</time>
      </trkpt>
      <trkpt lat="43.6955" lon="1.82195">
        <ele>120.1</ele>
        <time>2013-11-06T09:01:57.000Z</time>
      </trkpt>
      <trkpt lat="43.69549" lon="1.82196">
        <ele>120.1</ele>
        <time>2013-11-06T09:01:58.000Z</time>
      </trkpt>
      <trkpt lat="43.69542" lon="1.82216">
        <ele>120</ele>
        <time>2013-11-06T09:02:13.000Z</time>
      </trkpt>
      <trkpt lat="43.69537" lon="1.82227">
        <ele>119.8</ele>
        <time>2013-11-06T09:02:20.000Z</time>
      </trkpt>
      <trkpt lat="43.69531" lon="1.82236">
        <ele>119.8</ele>
        <time>2013-11-06T09:02:27.000Z</time>
      </trkpt>
      <trkpt lat="43.69526" lon="1.82245">
        <ele>119.7</ele>
        <time>2013-11-06T09:02:34.000Z</time>
      </trkpt>
      <trkpt lat="43.69521" lon="1.82254">
        <ele>119.8</ele>
        <time>2013-11-06T09:02:41.000Z</time>
      </trkpt>
      <trkpt lat="43.69516" lon="1.82264">
        <ele>119.7</ele>
        <time>2013-11-06T09:02:48.000Z</time>
      </trkpt>
      <trkpt lat="43.69513" lon="1.82275">
        <ele>119.8</ele>
        <time>2013-11-06T09:02:55.000Z</time>
      </trkpt>
      <trkpt lat="43.6951" lon="1.82287">
        <ele>120.2</ele>
        <time>2013-11-06T09:03:3.000Z</time>
      </trkpt>
      <trkpt lat="43.6951" lon="1.82288">
        <ele>120.1</ele>
        <time>2013-11-06T09:03:4.000Z</time>
      </trkpt>
      <trkpt lat="43.69502" lon="1.82308">
        <ele>120.5</ele>
        <time>2013-11-06T09:03:17.000Z</time>
      </trkpt>
      <trkpt lat="43.69499" lon="1.82319">
        <ele>120.8</ele>
        <time>2013-11-06T09:03:24.000Z</time>
      </trkpt>
      <trkpt lat="43.69496" lon="1.82329">
        <ele>121</ele>
        <time>2013-11-06T09:03:31.000Z</time>
      </trkpt>
      <trkpt lat="43.69493" lon="1.8234">
        <ele>121.1</ele>
        <time>2013-11-06T09:03:38.000Z</time>
      </trkpt>
      <trkpt lat="43.6949" lon="1.82351">
        <ele>121.2</ele>
        <time>2013-11-06T09:03:45.000Z</time>
      </trkpt>
      <trkpt lat="43.69488" lon="1.8236">
        <ele>120.9</ele>
        <time>2013-11-06T09:03:51.000Z</time>
      </trkpt>
      <trkpt lat="43.69483" lon="1.82371">
        <ele>120.8</ele>
        <time>2013-11-06T09:03:58.000Z</time>
      </trkpt>
      <trkpt lat="43.69483" lon="1.82383">
        <ele>120.9</ele>
        <time>2013-11-06T09:04:6.000Z</time>
      </trkpt>
      <trkpt lat="43.69483" lon="1.82385">
        <ele>120.9</ele>
        <time>2013-11-06T09:04:7.000Z</time>
      </trkpt>
      <trkpt lat="43.6948" lon="1.82406">
        <ele>121.4</ele>
        <time>2013-11-06T09:04:19.000Z</time>
      </trkpt>
      <trkpt lat="43.69478" lon="1.82416">
        <ele>122.2</ele>
        <time>2013-11-06T09:04:25.000Z</time>
      </trkpt>
      <trkpt lat="43.69474" lon="1.82426">
        <ele>122.1</ele>
        <time>2013-11-06T09:04:31.000Z</time>
      </trkpt>
      <trkpt lat="43.69469" lon="1.82434">
        <ele>122.1</ele>
        <time>2013-11-06T09:04:37.000Z</time>
      </trkpt>
      <trkpt lat="43.69464" lon="1.82445">
        <ele>122.8</ele>
        <time>2013-11-06T09:04:44.000Z</time>
      </trkpt>
      <trkpt lat="43.69459" lon="1.82455">
        <ele>123.1</ele>
        <time>2013-11-06T09:04:51.000Z</time>
      </trkpt>
      <trkpt lat="43.69454" lon="1.82464">
        <ele>123.2</ele>
        <time>2013-11-06T09:04:58.000Z</time>
      </trkpt>
      <trkpt lat="43.69447" lon="1.8247">
        <ele>123.6</ele>
        <time>2013-11-06T09:05:3.000Z</time>
      </trkpt>
      <trkpt lat="43.6944" lon="1.82477">
        <ele>124.3</ele>
        <time>2013-11-06T09:05:10.000Z</time>
      </trkpt>
      <trkpt lat="43.69439" lon="1.82478">
        <ele>124.2</ele>
        <time>2013-11-06T09:05:11.000Z</time>
      </trkpt>
      <trkpt lat="43.69426" lon="1.82492">
        <ele>125.7</ele>
        <time>2013-11-06T09:05:26.000Z</time>
      </trkpt>
      <trkpt lat="43.6942" lon="1.825">
        <ele>126</ele>
        <time>2013-11-06T09:05:34.000Z</time>
      </trkpt>
      <trkpt lat="43.69414" lon="1.82509">
        <ele>126.8</ele>
        <time>2013-11-06T09:05:41.000Z</time>
      </trkpt>
      <trkpt lat="43.69409" lon="1.82518">
        <ele>127.1</ele>
        <time>2013-11-06T09:05:48.000Z</time>
      </trkpt>
      <trkpt lat="43.69405" lon="1.82528">
        <ele>127.5</ele>
        <time>2013-11-06T09:05:55.000Z</time>
      </trkpt>
      <trkpt lat="43.69401" lon="1.82538">
        <ele>127.5</ele>
        <time>2013-11-06T09:06:2.000Z</time>
      </trkpt>
      <trkpt lat="43.69397" lon="1.82548">
        <ele>127.7</ele>
        <time>2013-11-06T09:06:8.000Z</time>
      </trkpt>
      <trkpt lat="43.69393" lon="1.82559">
        <ele>127.8</ele>
        <time>2013-11-06T09:06:15.000Z</time>
      </trkpt>
      <trkpt lat="43.69392" lon="1.8256">
        <ele>127.9</ele>
        <time>2013-11-06T09:06:16.000Z</time>
      </trkpt>
      <trkpt lat="43.69387" lon="1.82579">
        <ele>127.3</ele>
        <time>2013-11-06T09:06:29.000Z</time>
      </trkpt>
      <trkpt lat="43.69385" lon="1.8259">
        <ele>127.8</ele>
        <time>2013-11-06T09:06:36.000Z</time>
      </trkpt>
      <trkpt lat="43.69381" lon="1.826">
        <ele>127.8</ele>
        <time>2013-11-06T09:06:43.000Z</time>
      </trkpt>
      <trkpt lat="43.69377" lon="1.8261">
        <ele>127.5</ele>
        <time>2013-11-06T09:06:50.000Z</time>
      </trkpt>
      <trkpt lat="43.69373" lon="1.82621">
        <ele>127.4</ele>
        <time>2013-11-06T09:06:57.000Z</time>
      </trkpt>
      <trkpt lat="43.6937" lon="1.82631">
        <ele>127.5</ele>
        <time>2013-11-06T09:07:4.000Z</time>
      </trkpt>
      <trkpt lat="43.69366" lon="1.82641">
        <ele>127.1</ele>
        <time>2013-11-06T09:07:11.000Z</time>
      </trkpt>
      <trkpt lat="43.69361" lon="1.82651">
        <ele>127.4</ele>
        <time>2013-11-06T09:07:18.000Z</time>
      </trkpt>
      <trkpt lat="43.69361" lon="1.82652">
        <ele>127.5</ele>
        <time>2013-11-06T09:07:19.000Z</time>
      </trkpt>
      <trkpt lat="43.69355" lon="1.82672">
        <ele>127.9</ele>
        <time>2013-11-06T09:07:31.000Z</time>
      </trkpt>
      <trkpt lat="43.69351" lon="1.82683">
        <ele>127.6</ele>
        <time>2013-11-06T09:07:38.000Z</time>
      </trkpt>
      <trkpt lat="43.69347" lon="1.82694">
        <ele>127.7</ele>
        <time>2013-11-06T09:07:45.000Z</time>
      </trkpt>
      <trkpt lat="43.69344" lon="1.82705">
        <ele>127.4</ele>
        <time>2013-11-06T09:07:52.000Z</time>
      </trkpt>
      <trkpt lat="43.69341" lon="1.82715">
        <ele>127.5</ele>
        <time>2013-11-06T09:07:58.000Z</time>
      </trkpt>
      <trkpt lat="43.69337" lon="1.82726">
        <ele>127.7</ele>
        <time>2013-11-06T09:08:5.000Z</time>
      </trkpt>
      <trkpt lat="43.69334" lon="1.82737">
        <ele>127.5</ele>
        <time>2013-11-06T09:08:12.000Z</time>
      </trkpt>
      <trkpt lat="43.69331" lon="1.82748">
        <ele>127.2</ele>
        <time>2013-11-06T09:08:18.000Z</time>
      </trkpt>
      <trkpt lat="43.69327" lon="1.82759">
        <ele>127.5</ele>
        <time>2013-11-06T09:08:25.000Z</time>
      </trkpt>
      <trkpt lat="43.69327" lon="1.8276">
        <ele>127.6</ele>
        <time>2013-11-06T09:08:26.000Z</time>
      </trkpt>
      <trkpt lat="43.69322" lon="1.82782">
        <ele>127.7</ele>
        <time>2013-11-06T09:08:39.000Z</time>
      </trkpt>
      <trkpt lat="43.6932" lon="1.82794">
        <ele>127.7</ele>
        <time>2013-11-06T09:08:46.000Z</time>
      </trkpt>
      <trkpt lat="43.69318" lon="1.82805">
        <ele>127.5</ele>
        <time>2013-11-06T09:08:53.000Z</time>
      </trkpt>
      <trkpt lat="43.69316" lon="1.82816">
        <ele>127.8</ele>
        <time>2013-11-06T09:08:59.000Z</time>
      </trkpt>
      <trkpt lat="43.69314" lon="1.82828">
        <ele>127.8</ele>
        <time>2013-11-06T09:09:6.000Z</time>
      </trkpt>
      <trkpt lat="43.69311" lon="1.82839">
        <ele>127.2</ele>
        <time>2013-11-06T09:09:13.000Z</time>
      </trkpt>
      <trkpt lat="43.6931" lon="1.82851">
        <ele>127.1</ele>
        <time>2013-11-06T09:09:20.000Z</time>
      </trkpt>
      <trkpt lat="43.69308" lon="1.82862">
        <ele>127.3</ele>
        <time>2013-11-06T09:09:27.000Z</time>
      </trkpt>
      <trkpt lat="43.69307" lon="1.82864">
        <ele>127.3</ele>
        <time>2013-11-06T09:09:28.000Z</time>
      </trkpt>
      <trkpt lat="43.69304" lon="1.82886">
        <ele>128</ele>
        <time>2013-11-06T09:09:41.000Z</time>
      </trkpt>
      <trkpt lat="43.69302" lon="1.82897">
        <ele>128.4</ele>
        <time>2013-11-06T09:09:48.000Z</time>
      </trkpt>
      <trkpt lat="43.693" lon="1.82909">
        <ele>128.3</ele>
        <time>2013-11-06T09:09:55.000Z</time>
      </trkpt>
      <trkpt lat="43.69299" lon="1.82921">
        <ele>128.3</ele>
        <time>2013-11-06T09:10:2.000Z</time>
      </trkpt>
      <trkpt lat="43.69296" lon="1.82932">
        <ele>128.5</ele>
        <time>2013-11-06T09:10:9.000Z</time>
      </trkpt>
      <trkpt lat="43.69293" lon="1.82942">
        <ele>128.6</ele>
        <time>2013-11-06T09:10:15.000Z</time>
      </trkpt>
      <trkpt lat="43.6929" lon="1.82952">
        <ele>128.5</ele>
        <time>2013-11-06T09:10:21.000Z</time>
      </trkpt>
      <trkpt lat="43.69286" lon="1.82962">
        <ele>128.4</ele>
        <time>2013-11-06T09:10:27.000Z</time>
      </trkpt>
      <trkpt lat="43.69282" lon="1.82971">
        <ele>128.5</ele>
        <time>2013-11-06T09:10:33.000Z</time>
      </trkpt>
      <trkpt lat="43.69281" lon="1.82972">
        <ele>128.6</ele>
        <time>2013-11-06T09:10:34.000Z</time>
      </trkpt>
      <trkpt lat="43.6927" lon="1.82987">
        <ele>128.5</ele>
        <time>2013-11-06T09:10:46.000Z</time>
      </trkpt>
      <trkpt lat="43.69263" lon="1.82993">
        <ele>128.5</ele>
        <time>2013-11-06T09:10:52.000Z</time>
      </trkpt>
      <trkpt lat="43.69256" lon="1.82999">
        <ele>128.5</ele>
        <time>2013-11-06T09:10:58.000Z</time>
      </trkpt>
      <trkpt lat="43.6925" lon="1.83004">
        <ele>128.5</ele>
        <time>2013-11-06T09:11:4.000Z</time>
      </trkpt>
      <trkpt lat="43.69242" lon="1.8301">
        <ele>128.4</ele>
        <time>2013-11-06T09:11:11.000Z</time>
      </trkpt>
      <trkpt lat="43.69234" lon="1.83016">
        <ele>126.6</ele>
        <time>2013-11-06T09:11:20.000Z</time>
      </trkpt>
      <trkpt lat="43.69228" lon="1.83022">
        <ele>127.5</ele>
        <time>2013-11-06T09:11:26.000Z</time>
      </trkpt>
      <trkpt lat="43.6922" lon="1.83028">
        <ele>128.9</ele>
        <time>2013-11-06T09:11:33.000Z</time>
      </trkpt>
      <trkpt lat="43.69213" lon="1.83034">
        <ele>129.3</ele>
        <time>2013-11-06T09:11:39.000Z</time>
      </trkpt>
      <trkpt lat="43.69212" lon="1.83035">
        <ele>129.2</ele>
        <time>2013-11-06T09:11:40.000Z</time>
      </trkpt>
      <trkpt lat="43.692" lon="1.83047">
        <ele>128.9</ele>
        <time>2013-11-06T09:11:52.000Z</time>
      </trkpt>
      <trkpt lat="43.69193" lon="1.83053">
        <ele>128.9</ele>
        <time>2013-11-06T09:11:58.000Z</time>
      </trkpt>
      <trkpt lat="43.69186" lon="1.83059">
        <ele>129.3</ele>
        <time>2013-11-06T09:12:4.000Z</time>
      </trkpt>
      <trkpt lat="43.69179" lon="1.83063">
        <ele>128.7</ele>
        <time>2013-11-06T09:12:10.000Z</time>
      </trkpt>
      <trkpt lat="43.69172" lon="1.83068">
        <ele>127.9</ele>
        <time>2013-11-06T09:12:17.000Z</time>
      </trkpt>
      <trkpt lat="43.69164" lon="1.83074">
        <ele>128.5</ele>
        <time>2013-11-06T09:12:24.000Z</time>
      </trkpt>
      <trkpt lat="43.69156" lon="1.8308">
        <ele>128.5</ele>
        <time>2013-11-06T09:12:31.000Z</time>
      </trkpt>
      <trkpt lat="43.69149" lon="1.83085">
        <ele>128.4</ele>
        <time>2013-11-06T09:12:37.000Z</time>
      </trkpt>
      <trkpt lat="43.69142" lon="1.8309">
        <ele>128.5</ele>
        <time>2013-11-06T09:12:43.000Z</time>
      </trkpt>
      <trkpt lat="43.69141" lon="1.83091">
        <ele>128.3</ele>
        <time>2013-11-06T09:12:44.000Z</time>
      </trkpt>
      <trkpt lat="43.6913" lon="1.83105">
        <ele>128</ele>
        <time>2013-11-06T09:12:55.000Z</time>
      </trkpt>
      <trkpt lat="43.69124" lon="1.83113">
        <ele>127.8</ele>
        <time>2013-11-06T09:13:1.000Z</time>
      </trkpt>
      <trkpt lat="43.69119" lon="1.83122">
        <ele>128.3</ele>
        <time>2013-11-06T09:13:7.000Z</time>
      </trkpt>
      <trkpt lat="43.69115" lon="1.8313">
        <ele>128.3</ele>
        <time>2013-11-06T09:13:13.000Z</time>
      </trkpt>
      <trkpt lat="43.6911" lon="1.83139">
        <ele>128.7</ele>
        <time>2013-11-06T09:13:19.000Z</time>
      </trkpt>
      <trkpt lat="43.69105" lon="1.83149">
        <ele>128.5</ele>
        <time>2013-11-06T09:13:26.000Z</time>
      </trkpt>
      <trkpt lat="43.691" lon="1.83158">
        <ele>129.1</ele>
        <time>2013-11-06T09:13:32.000Z</time>
      </trkpt>
      <trkpt lat="43.69095" lon="1.83168">
        <ele>129</ele>
        <time>2013-11-06T09:13:38.000Z</time>
      </trkpt>
      <trkpt lat="43.69089" lon="1.83176">
        <ele>128.7</ele>
        <time>2013-11-06T09:13:44.000Z</time>
      </trkpt>
      <trkpt lat="43.69089" lon="1.83178">
        <ele>128.7</ele>
        <time>2013-11-06T09:13:45.000Z</time>
      </trkpt>
      <trkpt lat="43.69077" lon="1.83194">
        <ele>128.9</ele>
        <time>2013-11-06T09:13:57.000Z</time>
      </trkpt>
      <trkpt lat="43.6907" lon="1.83201">
        <ele>128.8</ele>
        <time>2013-11-06T09:14:4.000Z</time>
      </trkpt>
      <trkpt lat="43.69063" lon="1.83208">
        <ele>128.7</ele>
        <time>2013-11-06T09:14:10.000Z</time>
      </trkpt>
      <trkpt lat="43.69056" lon="1.83213">
        <ele>128.7</ele>
        <time>2013-11-06T09:14:16.000Z</time>
      </trkpt>
      <trkpt lat="43.69049" lon="1.83218">
        <ele>128.4</ele>
        <time>2013-11-06T09:14:22.000Z</time>
      </trkpt>
      <trkpt lat="43.69042" lon="1.83223">
        <ele>128.4</ele>
        <time>2013-11-06T09:14:28.000Z</time>
      </trkpt>
      <trkpt lat="43.69034" lon="1.83228">
        <ele>128.6</ele>
        <time>2013-11-06T09:14:35.000Z</time>
      </trkpt>
      <trkpt lat="43.69026" lon="1.83234">
        <ele>128.7</ele>
        <time>2013-11-06T09:14:42.000Z</time>
      </trkpt>
      <trkpt lat="43.6902" lon="1.83241">
        <ele>128.8</ele>
        <time>2013-11-06T09:14:49.000Z</time>
      </trkpt>
      <trkpt lat="43.69019" lon="1.83242">
        <ele>128.8</ele>
        <time>2013-11-06T09:14:50.000Z</time>
      </trkpt>
      <trkpt lat="43.69006" lon="1.83255">
        <ele>128.8</ele>
        <time>2013-11-06T09:15:4.000Z</time>
      </trkpt>
      <trkpt lat="43.69" lon="1.83263">
        <ele>129</ele>
        <time>2013-11-06T09:15:11.000Z</time>
      </trkpt>
      <trkpt lat="43.68995" lon="1.83272">
        <ele>128.7</ele>
        <time>2013-11-06T09:15:18.000Z</time>
      </trkpt>
      <trkpt lat="43.6899" lon="1.83282">
        <ele>128.6</ele>
        <time>2013-11-06T09:15:25.000Z</time>
      </trkpt>
      <trkpt lat="43.68985" lon="1.83291">
        <ele>128.8</ele>
        <time>2013-11-06T09:15:31.000Z</time>
      </trkpt>
      <trkpt lat="43.68982" lon="1.83301">
        <ele>128.9</ele>
        <time>2013-11-06T09:15:37.000Z</time>
      </trkpt>
      <trkpt lat="43.68977" lon="1.83312">
        <ele>128.7</ele>
        <time>2013-11-06T09:15:44.000Z</time>
      </trkpt>
      <trkpt lat="43.68973" lon="1.83322">
        <ele>128.7</ele>
        <time>2013-11-06T09:15:50.000Z</time>
      </trkpt>
      <trkpt lat="43.68973" lon="1.83323">
        <ele>128.6</ele>
        <time>2013-11-06T09:15:51.000Z</time>
      </trkpt>
      <trkpt lat="43.68966" lon="1.83341">
        <ele>128.8</ele>
        <time>2013-11-06T09:16:2.000Z</time>
      </trkpt>
      <trkpt lat="43.68962" lon="1.83352">
        <ele>128.6</ele>
        <time>2013-11-06T09:16:8.000Z</time>
      </trkpt>
      <trkpt lat="43.68959" lon="1.83362">
        <ele>128.9</ele>
        <time>2013-11-06T09:16:14.000Z</time>
      </trkpt>
      <trkpt lat="43.68957" lon="1.83374">
        <ele>129.2</ele>
        <time>2013-11-06T09:16:21.000Z</time>
      </trkpt>
      <trkpt lat="43.68954" lon="1.83385">
        <ele>128.9</ele>
        <time>2013-11-06T09:16:28.000Z</time>
      </trkpt>
      <trkpt lat="43.68952" lon="1.83395">
        <ele>128.8</ele>
        <time>2013-11-06T09:16:34.000Z</time>
      </trkpt>
      <trkpt lat="43.68949" lon="1.83406">
        <ele>129</ele>
        <time>2013-11-06T09:16:40.000Z</time>
      </trkpt>
      <trkpt lat="43.68946" lon="1.83417">
        <ele>129</ele>
        <time>2013-11-06T09:16:47.000Z</time>
      </trkpt>
      <trkpt lat="43.68944" lon="1.83429">
        <ele>129</ele>
        <time>2013-11-06T09:16:54.000Z</time>
      </trkpt>
      <trkpt lat="43.68943" lon="1.83431">
        <ele>128.9</ele>
        <time>2013-11-06T09:16:55.000Z</time>
      </trkpt>
      <trkpt lat="43.6894" lon="1.83451">
        <ele>129.1</ele>
        <time>2013-11-06T09:17:7.000Z</time>
      </trkpt>
      <trkpt lat="43.68938" lon="1.83462">
        <ele>129.4</ele>
        <time>2013-11-06T09:17:13.000Z</time>
      </trkpt>
      <trkpt lat="43.68936" lon="1.83472">
        <ele>129.4</ele>
        <time>2013-11-06T09:17:19.000Z</time>
      </trkpt>
      <trkpt lat="43.68933" lon="1.83483">
        <ele>129.5</ele>
        <time>2013-11-06T09:17:25.000Z</time>
      </trkpt>
      <trkpt lat="43.68931" lon="1.83493">
        <ele>129.6</ele>
        <time>2013-11-06T09:17:31.000Z</time>
      </trkpt>
      <trkpt lat="43.68929" lon="1.83504">
        <ele>129.7</ele>
        <time>2013-11-06T09:17:37.000Z</time>
      </trkpt>
      <trkpt lat="43.68927" lon="1.83515">
        <ele>129.4</ele>
        <time>2013-11-06T09:17:43.000Z</time>
      </trkpt>
      <trkpt lat="43.68924" lon="1.83527">
        <ele>129.5</ele>
        <time>2013-11-06T09:17:50.000Z</time>
      </trkpt>
      <trkpt lat="43.68923" lon="1.83537">
        <ele>129.7</ele>
        <time>2013-11-06T09:17:56.000Z</time>
      </trkpt>
      <trkpt lat="43.68923" lon="1.83539">
        <ele>129.6</ele>
        <time>2013-11-06T09:17:57.000Z</time>
      </trkpt>
      <trkpt lat="43.6892" lon="1.83559">
        <ele>129.3</ele>
        <time>2013-11-06T09:18:8.000Z</time>
      </trkpt>
      <trkpt lat="43.68918" lon="1.83569">
        <ele>129.9</ele>
        <time>2013-11-06T09:18:14.000Z</time>
      </trkpt>
      <trkpt lat="43.68916" lon="1.8358">
        <ele>129.6</ele>
        <time>2013-11-06T09:18:20.000Z</time>
      </trkpt>
      <trkpt lat="43.68914" lon="1.8359">
        <ele>129.5</ele>
        <time>2013-11-06T09:18:26.000Z</time>
      </trkpt>
      <trkpt lat="43.68913" lon="1.83601">
        <ele>129.7</ele>
        <time>2013-11-06T09:18:32.000Z</time>
      </trkpt>
      <trkpt lat="43.68911" lon="1.83611">
        <ele>129.4</ele>
        <time>2013-11-06T09:18:38.000Z</time>
      </trkpt>
      <trkpt lat="43.68908" lon="1.83623">
        <ele>129.4</ele>
        <time>2013-11-06T09:18:45.000Z</time>
      </trkpt>
      <trkpt lat="43.68906" lon="1.83634">
        <ele>129.2</ele>
        <time>2013-11-06T09:18:51.000Z</time>
      </trkpt>
      <trkpt lat="43.68905" lon="1.83645">
        <ele>129.1</ele>
        <time>2013-11-06T09:18:57.000Z</time>
      </trkpt>
      <trkpt lat="43.68904" lon="1.83646">
        <ele>129.1</ele>
        <time>2013-11-06T09:18:58.000Z</time>
      </trkpt>
      <trkpt lat="43.689" lon="1.83667">
        <ele>129.5</ele>
        <time>2013-11-06T09:19:10.000Z</time>
      </trkpt>
      <trkpt lat="43.68897" lon="1.83677">
        <ele>129.4</ele>
        <time>2013-11-06T09:19:16.000Z</time>
      </trkpt>
      <trkpt lat="43.68894" lon="1.83688">
        <ele>129.2</ele>
        <time>2013-11-06T09:19:22.000Z</time>
      </trkpt>
      <trkpt lat="43.68892" lon="1.83698">
        <ele>129.1</ele>
        <time>2013-11-06T09:19:28.000Z</time>
      </trkpt>
      <trkpt lat="43.68888" lon="1.83708">
        <ele>129.4</ele>
        <time>2013-11-06T09:19:34.000Z</time>
      </trkpt>
      <trkpt lat="43.68885" lon="1.83719">
        <ele>129.3</ele>
        <time>2013-11-06T09:19:40.000Z</time>
      </trkpt>
      <trkpt lat="43.68882" lon="1.83729">
        <ele>129.2</ele>
        <time>2013-11-06T09:19:46.000Z</time>
      </trkpt>
      <trkpt lat="43.6888" lon="1.83739">
        <ele>129.7</ele>
        <time>2013-11-06T09:19:52.000Z</time>
      </trkpt>
      <trkpt lat="43.68877" lon="1.8375">
        <ele>129.8</ele>
        <time>2013-11-06T09:19:58.000Z</time>
      </trkpt>
      <trkpt lat="43.68876" lon="1.83752">
        <ele>129.9</ele>
        <time>2013-11-06T09:19:59.000Z</time>
      </trkpt>
      <trkpt lat="43.68871" lon="1.83772">
        <ele>129.7</ele>
        <time>2013-11-06T09:20:11.000Z</time>
      </trkpt>
      <trkpt lat="43.68869" lon="1.83784">
        <ele>129.7</ele>
        <time>2013-11-06T09:20:18.000Z</time>
      </trkpt>
      <trkpt lat="43.68867" lon="1.83795">
        <ele>129.7</ele>
        <time>2013-11-06T09:20:24.000Z</time>
      </trkpt>
      <trkpt lat="43.68865" lon="1.83807">
        <ele>130</ele>
        <time>2013-11-06T09:20:31.000Z</time>
      </trkpt>
      <trkpt lat="43.68863" lon="1.83818">
        <ele>129.7</ele>
        <time>2013-11-06T09:20:37.000Z</time>
      </trkpt>
      <trkpt lat="43.6886" lon="1.83828">
        <ele>129.6</ele>
        <time>2013-11-06T09:20:42.000Z</time>
      </trkpt>
      <trkpt lat="43.68858" lon="1.8384">
        <ele>129.7</ele>
        <time>2013-11-06T09:20:49.000Z</time>
      </trkpt>
      <trkpt lat="43.68856" lon="1.83851">
        <ele>129.7</ele>
        <time>2013-11-06T09:20:56.000Z</time>
      </trkpt>
      <trkpt lat="43.68854" lon="1.83862">
        <ele>129.6</ele>
        <time>2013-11-06T09:21:3.000Z</time>
      </trkpt>
      <trkpt lat="43.68853" lon="1.83864">
        <ele>129.8</ele>
        <time>2013-11-06T09:21:4.000Z</time>
      </trkpt>
      <trkpt lat="43.68848" lon="1.83882">
        <ele>129.7</ele>
        <time>2013-11-06T09:21:15.000Z</time>
      </trkpt>
      <trkpt lat="43.68846" lon="1.83893">
        <ele>129.7</ele>
        <time>2013-11-06T09:21:21.000Z</time>
      </trkpt>
      <trkpt lat="43.68845" lon="1.83905">
        <ele>129.6</ele>
        <time>2013-11-06T09:21:28.000Z</time>
      </trkpt>
      <trkpt lat="43.68843" lon="1.83915">
        <ele>129.4</ele>
        <time>2013-11-06T09:21:34.000Z</time>
      </trkpt>
      <trkpt lat="43.68841" lon="1.83926">
        <ele>129.7</ele>
        <time>2013-11-06T09:21:39.000Z</time>
      </trkpt>
      <trkpt lat="43.68837" lon="1.83937">
        <ele>129.8</ele>
        <time>2013-11-06T09:21:45.000Z</time>
      </trkpt>
      <trkpt lat="43.68835" lon="1.83949">
        <ele>129.8</ele>
        <time>2013-11-06T09:21:52.000Z</time>
      </trkpt>
      <trkpt lat="43.68833" lon="1.83961">
        <ele>129.4</ele>
        <time>2013-11-06T09:21:59.000Z</time>
      </trkpt>
      <trkpt lat="43.6883" lon="1.83973">
        <ele>129.6</ele>
        <time>2013-11-06T09:22:5.000Z</time>
      </trkpt>
      <trkpt lat="43.68829" lon="1.83974">
        <ele>129.6</ele>
        <time>2013-11-06T09:22:6.000Z</time>
      </trkpt>
      <trkpt lat="43.68826" lon="1.83995">
        <ele>129.5</ele>
        <time>2013-11-06T09:22:18.000Z</time>
      </trkpt>
      <trkpt lat="43.68824" lon="1.84007">
        <ele>129.5</ele>
        <time>2013-11-06T09:22:25.000Z</time>
      </trkpt>
      <trkpt lat="43.68822" lon="1.84017">
        <ele>129.4</ele>
        <time>2013-11-06T09:22:31.000Z</time>
      </trkpt>
      <trkpt lat="43.68819" lon="1.84027">
        <ele>129.4</ele>
        <time>2013-11-06T09:22:37.000Z</time>
      </trkpt>
      <trkpt lat="43.68817" lon="1.84038">
        <ele>129.6</ele>
        <time>2013-11-06T09:22:44.000Z</time>
      </trkpt>
      <trkpt lat="43.68814" lon="1.8405">
        <ele>129.7</ele>
        <time>2013-11-06T09:22:51.000Z</time>
      </trkpt>
      <trkpt lat="43.68812" lon="1.84062">
        <ele>129.7</ele>
        <time>2013-11-06T09:22:58.000Z</time>
      </trkpt>
      <trkpt lat="43.6881" lon="1.84072">
        <ele>129.9</ele>
        <time>2013-11-06T09:23:4.000Z</time>
      </trkpt>
      <trkpt lat="43.68808" lon="1.84084">
        <ele>130</ele>
        <time>2013-11-06T09:23:11.000Z</time>
      </trkpt>
      <trkpt lat="43.68808" lon="1.84085">
        <ele>130</ele>
        <time>2013-11-06T09:23:12.000Z</time>
      </trkpt>
      <trkpt lat="43.68804" lon="1.84106">
        <ele>130.1</ele>
        <time>2013-11-06T09:23:24.000Z</time>
      </trkpt>
      <trkpt lat="43.68802" lon="1.84118">
        <ele>130</ele>
        <time>2013-11-06T09:23:31.000Z</time>
      </trkpt>
      <trkpt lat="43.688" lon="1.84128">
        <ele>129.9</ele>
        <time>2013-11-06T09:23:37.000Z</time>
      </trkpt>
      <trkpt lat="43.68798" lon="1.84138">
        <ele>130</ele>
        <time>2013-11-06T09:23:43.000Z</time>
      </trkpt>
      <trkpt lat="43.68796" lon="1.8415">
        <ele>130.2</ele>
        <time>2013-11-06T09:23:50.000Z</time>
      </trkpt>
      <trkpt lat="43.68793" lon="1.84162">
        <ele>130.4</ele>
        <time>2013-11-06T09:23:57.000Z</time>
      </trkpt>
      <trkpt lat="43.68791" lon="1.84172">
        <ele>130.8</ele>
        <time>2013-11-06T09:24:3.000Z</time>
      </trkpt>
      <trkpt lat="43.68788" lon="1.84182">
        <ele>130.9</ele>
        <time>2013-11-06T09:24:9.000Z</time>
      </trkpt>
      <trkpt lat="43.68786" lon="1.84193">
        <ele>130.7</ele>
        <time>2013-11-06T09:24:15.000Z</time>
      </trkpt>
      <trkpt lat="43.68785" lon="1.84194">
        <ele>130.8</ele>
        <time>2013-11-06T09:24:16.000Z</time>
      </trkpt>
      <trkpt lat="43.68781" lon="1.84216">
        <ele>130.8</ele>
        <time>2013-11-06T09:24:29.000Z</time>
      </trkpt>
      <trkpt lat="43.68779" lon="1.84227">
        <ele>131.1</ele>
        <time>2013-11-06T09:24:35.000Z</time>
      </trkpt>
      <trkpt lat="43.68777" lon="1.84237">
        <ele>131.3</ele>
        <time>2013-11-06T09:24:41.000Z</time>
      </trkpt>
      <trkpt lat="43.68774" lon="1.84248">
        <ele>131.2</ele>
        <time>2013-11-06T09:24:47.000Z</time>
      </trkpt>
      <trkpt lat="43.68771" lon="1.84259">
        <ele>131.3</ele>
        <time>2013-11-06T09:24:54.000Z</time>
      </trkpt>
      <trkpt lat="43.68769" lon="1.8427">
        <ele>131.2</ele>
        <time>2013-11-06T09:25:0.000Z</time>
      </trkpt>
      <trkpt lat="43.68766" lon="1.8428">
        <ele>131.3</ele>
        <time>2013-11-06T09:25:6.000Z</time>
      </trkpt>
      <trkpt lat="43.68763" lon="1.84291">
        <ele>131.2</ele>
        <time>2013-11-06T09:25:13.000Z</time>
      </trkpt>
      <trkpt lat="43.6876" lon="1.84302">
        <ele>131.5</ele>
        <time>2013-11-06T09:25:20.000Z</time>
      </trkpt>
      <trkpt lat="43.6876" lon="1.84304">
        <ele>131.6</ele>
        <time>2013-11-06T09:25:21.000Z</time>
      </trkpt>
      <trkpt lat="43.68755" lon="1.84324">
        <ele>131.7</ele>
        <time>2013-11-06T09:25:33.000Z</time>
      </trkpt>
      <trkpt lat="43.68753" lon="1.84335">
        <ele>131.6</ele>
        <time>2013-11-06T09:25:39.000Z</time>
      </trkpt>
      <trkpt lat="43.6875" lon="1.84346">
        <ele>131.8</ele>
        <time>2013-11-06T09:25:45.000Z</time>
      </trkpt>
      <trkpt lat="43.68747" lon="1.84356">
        <ele>131.6</ele>
        <time>2013-11-06T09:25:51.000Z</time>
      </trkpt>
      <trkpt lat="43.68745" lon="1.84368">
        <ele>131.9</ele>
        <time>2013-11-06T09:25:58.000Z</time>
      </trkpt>
      <trkpt lat="43.68742" lon="1.84379">
        <ele>131.9</ele>
        <time>2013-11-06T09:26:5.000Z</time>
      </trkpt>
      <trkpt lat="43.68738" lon="1.84389">
        <ele>131.9</ele>
        <time>2013-11-06T09:26:12.000Z</time>
      </trkpt>
      <trkpt lat="43.68737" lon="1.844">
        <ele>131.6</ele>
        <time>2013-11-06T09:26:20.000Z</time>
      </trkpt>
      <trkpt lat="43.68734" lon="1.84411">
        <ele>131.8</ele>
        <time>2013-11-06T09:26:29.000Z</time>
      </trkpt>
      <trkpt lat="43.68734" lon="1.84412">
        <ele>131.6</ele>
        <time>2013-11-06T09:26:30.000Z</time>
      </trkpt>
      <trkpt lat="43.68731" lon="1.84432">
        <ele>131.7</ele>
        <time>2013-11-06T09:26:42.000Z</time>
      </trkpt>
      <trkpt lat="43.68728" lon="1.84444">
        <ele>131.7</ele>
        <time>2013-11-06T09:26:49.000Z</time>
      </trkpt>
      <trkpt lat="43.68725" lon="1.84455">
        <ele>131.7</ele>
        <time>2013-11-06T09:26:56.000Z</time>
      </trkpt>
      <trkpt lat="43.68722" lon="1.84465">
        <ele>130.3</ele>
        <time>2013-11-06T09:27:3.000Z</time>
      </trkpt>
      <trkpt lat="43.68719" lon="1.84476">
        <ele>132.6</ele>
        <time>2013-11-06T09:27:10.000Z</time>
      </trkpt>
      <trkpt lat="43.68716" lon="1.84486">
        <ele>131.9</ele>
        <time>2013-11-06T09:29:3.000Z</time>
      </trkpt>
      <trkpt lat="43.68715" lon="1.84488">
        <ele>131.8</ele>
        <time>2013-11-06T09:29:4.000Z</time>
      </trkpt>
      <trkpt lat="43.68715" lon="1.84509">
        <ele>133.8</ele>
        <time>2013-11-06T09:29:15.000Z</time>
      </trkpt>
      <trkpt lat="43.68714" lon="1.84521">
        <ele>133.5</ele>
        <time>2013-11-06T09:29:21.000Z</time>
      </trkpt>
      <trkpt lat="43.68713" lon="1.84532">
        <ele>133.7</ele>
        <time>2013-11-06T09:29:27.000Z</time>
      </trkpt>
      <trkpt lat="43.68714" lon="1.84543">
        <ele>133.3</ele>
        <time>2013-11-06T09:29:33.000Z</time>
      </trkpt>
      <trkpt lat="43.68714" lon="1.84554">
        <ele>134.1</ele>
        <time>2013-11-06T09:29:39.000Z</time>
      </trkpt>
      <trkpt lat="43.68714" lon="1.84566">
        <ele>133.6</ele>
        <time>2013-11-06T09:29:47.000Z</time>
      </trkpt>
      <trkpt lat="43.68716" lon="1.84577">
        <ele>134</ele>
        <time>2013-11-06T09:29:53.000Z</time>
      </trkpt>
      <trkpt lat="43.68717" lon="1.84588">
        <ele>134.5</ele>
        <time>2013-11-06T09:29:59.000Z</time>
      </trkpt>
      <trkpt lat="43.68718" lon="1.84598">
        <ele>134.5</ele>
        <time>2013-11-06T09:30:5.000Z</time>
      </trkpt>
      <trkpt lat="43.68718" lon="1.846">
        <ele>134.6</ele>
        <time>2013-11-06T09:30:6.000Z</time>
      </trkpt>
      <trkpt lat="43.68723" lon="1.8462">
        <ele>134.7</ele>
        <time>2013-11-06T09:30:17.000Z</time>
      </trkpt>
      <trkpt lat="43.68725" lon="1.84631">
        <ele>134.4</ele>
        <time>2013-11-06T09:30:23.000Z</time>
      </trkpt>
      <trkpt lat="43.68726" lon="1.84643">
        <ele>135.6</ele>
        <time>2013-11-06T09:30:29.000Z</time>
      </trkpt>
      <trkpt lat="43.68728" lon="1.84654">
        <ele>135</ele>
        <time>2013-11-06T09:30:35.000Z</time>
      </trkpt>
      <trkpt lat="43.68729" lon="1.84666">
        <ele>134.4</ele>
        <time>2013-11-06T09:30:41.000Z</time>
      </trkpt>
      <trkpt lat="43.68729" lon="1.84678">
        <ele>134.2</ele>
        <time>2013-11-06T09:30:47.000Z</time>
      </trkpt>
      <trkpt lat="43.6873" lon="1.84689">
        <ele>133.9</ele>
        <time>2013-11-06T09:30:53.000Z</time>
      </trkpt>
      <trkpt lat="43.68731" lon="1.84701">
        <ele>133.9</ele>
        <time>2013-11-06T09:30:59.000Z</time>
      </trkpt>
      <trkpt lat="43.68732" lon="1.84712">
        <ele>133.8</ele>
        <time>2013-11-06T09:31:5.000Z</time>
      </trkpt>
      <trkpt lat="43.68732" lon="1.84724">
        <ele>133.4</ele>
        <time>2013-11-06T09:31:11.000Z</time>
      </trkpt>
      <trkpt lat="43.68732" lon="1.84726">
        <ele>133.5</ele>
        <time>2013-11-06T09:31:12.000Z</time>
      </trkpt>
      <trkpt lat="43.68731" lon="1.84748">
        <ele>133.8</ele>
        <time>2013-11-06T09:31:23.000Z</time>
      </trkpt>
      <trkpt lat="43.68731" lon="1.8476">
        <ele>133.4</ele>
        <time>2013-11-06T09:31:29.000Z</time>
      </trkpt>
      <trkpt lat="43.68729" lon="1.84771">
        <ele>133.4</ele>
        <time>2013-11-06T09:31:35.000Z</time>
      </trkpt>
      <trkpt lat="43.68729" lon="1.84783">
        <ele>133.2</ele>
        <time>2013-11-06T09:31:41.000Z</time>
      </trkpt>
      <trkpt lat="43.68729" lon="1.84795">
        <ele>132.9</ele>
        <time>2013-11-06T09:31:47.000Z</time>
      </trkpt>
      <trkpt lat="43.68727" lon="1.84806">
        <ele>132.9</ele>
        <time>2013-11-06T09:31:53.000Z</time>
      </trkpt>
      <trkpt lat="43.68725" lon="1.84818">
        <ele>133</ele>
        <time>2013-11-06T09:31:59.000Z</time>
      </trkpt>
      <trkpt lat="43.68724" lon="1.8483">
        <ele>132.2</ele>
        <time>2013-11-06T09:32:5.000Z</time>
      </trkpt>
      <trkpt lat="43.68722" lon="1.84841">
        <ele>132.4</ele>
        <time>2013-11-06T09:32:11.000Z</time>
      </trkpt>
      <trkpt lat="43.68719" lon="1.84852">
        <ele>132.1</ele>
        <time>2013-11-06T09:32:17.000Z</time>
      </trkpt>
      <trkpt lat="43.68718" lon="1.84854">
        <ele>132.4</ele>
        <time>2013-11-06T09:32:18.000Z</time>
      </trkpt>
      <trkpt lat="43.68712" lon="1.84873">
        <ele>131.7</ele>
        <time>2013-11-06T09:32:29.000Z</time>
      </trkpt>
      <trkpt lat="43.68708" lon="1.84883">
        <ele>131.6</ele>
        <time>2013-11-06T09:32:35.000Z</time>
      </trkpt>
      <trkpt lat="43.68704" lon="1.84893">
        <ele>131.3</ele>
        <time>2013-11-06T09:32:41.000Z</time>
      </trkpt>
      <trkpt lat="43.687" lon="1.84903">
        <ele>131.2</ele>
        <time>2013-11-06T09:32:47.000Z</time>
      </trkpt>
      <trkpt lat="43.68696" lon="1.84913">
        <ele>131.1</ele>
        <time>2013-11-06T09:32:53.000Z</time>
      </trkpt>
      <trkpt lat="43.68692" lon="1.84922">
        <ele>131</ele>
        <time>2013-11-06T09:32:59.000Z</time>
      </trkpt>
      <trkpt lat="43.68687" lon="1.84932">
        <ele>130.7</ele>
        <time>2013-11-06T09:33:5.000Z</time>
      </trkpt>
      <trkpt lat="43.68685" lon="1.84943">
        <ele>131</ele>
        <time>2013-11-06T09:33:16.000Z</time>
      </trkpt>
      <trkpt lat="43.68677" lon="1.84945">
        <ele>131</ele>
        <time>2013-11-06T09:34:16.000Z</time>
      </trkpt>
      <trkpt lat="43.68676" lon="1.84946">
        <ele>131.1</ele>
        <time>2013-11-06T09:34:17.000Z</time>
      </trkpt>
      <trkpt lat="43.68671" lon="1.84955">
        <ele>131.7</ele>
        <time>2013-11-06T09:35:31.000Z</time>
      </trkpt>
      <trkpt lat="43.68664" lon="1.84975">
        <ele>132.4</ele>
        <time>2013-11-06T09:35:46.000Z</time>
      </trkpt>
      <trkpt lat="43.68661" lon="1.84986">
        <ele>133.1</ele>
        <time>2013-11-06T09:35:54.000Z</time>
      </trkpt>
      <trkpt lat="43.68655" lon="1.84995">
        <ele>134.1</ele>
        <time>2013-11-06T09:36:18.000Z</time>
      </trkpt>
      <trkpt lat="43.68653" lon="1.85007">
        <ele>133.9</ele>
        <time>2013-11-06T09:36:26.000Z</time>
      </trkpt>
      <trkpt lat="43.68649" lon="1.85017">
        <ele>134.7</ele>
        <time>2013-11-06T09:36:36.000Z</time>
      </trkpt>
      <trkpt lat="43.68649" lon="1.85018">
        <ele>134.8</ele>
        <time>2013-11-06T09:36:37.000Z</time>
      </trkpt>
      <trkpt lat="43.68641" lon="1.85038">
        <ele>135.3</ele>
        <time>2013-11-06T09:36:54.000Z</time>
      </trkpt>
      <trkpt lat="43.68638" lon="1.85049">
        <ele>136.3</ele>
        <time>2013-11-06T09:37:2.000Z</time>
      </trkpt>
      <trkpt lat="43.68634" lon="1.85059">
        <ele>136.6</ele>
        <time>2013-11-06T09:37:9.000Z</time>
      </trkpt>
      <trkpt lat="43.68631" lon="1.85069">
        <ele>136.8</ele>
        <time>2013-11-06T09:37:16.000Z</time>
      </trkpt>
      <trkpt lat="43.68627" lon="1.8508">
        <ele>137.2</ele>
        <time>2013-11-06T09:37:24.000Z</time>
      </trkpt>
      <trkpt lat="43.68623" lon="1.8509">
        <ele>137.2</ele>
        <time>2013-11-06T09:37:32.000Z</time>
      </trkpt>
      <trkpt lat="43.68619" lon="1.851">
        <ele>137.3</ele>
        <time>2013-11-06T09:37:39.000Z</time>
      </trkpt>
      <trkpt lat="43.68619" lon="1.85102">
        <ele>137.2</ele>
        <time>2013-11-06T09:37:40.000Z</time>
      </trkpt>
      <trkpt lat="43.68612" lon="1.85121">
        <ele>137.2</ele>
        <time>2013-11-06T09:37:54.000Z</time>
      </trkpt>
      <trkpt lat="43.68608" lon="1.85132">
        <ele>137.6</ele>
        <time>2013-11-06T09:38:1.000Z</time>
      </trkpt>
      <trkpt lat="43.68605" lon="1.85142">
        <ele>137.3</ele>
        <time>2013-11-06T09:38:8.000Z</time>
      </trkpt>
      <trkpt lat="43.68602" lon="1.85153">
        <ele>137.3</ele>
        <time>2013-11-06T09:38:16.000Z</time>
      </trkpt>
      <trkpt lat="43.68598" lon="1.85163">
        <ele>137.6</ele>
        <time>2013-11-06T09:38:24.000Z</time>
      </trkpt>
      <trkpt lat="43.68595" lon="1.85174">
        <ele>138</ele>
        <time>2013-11-06T09:38:31.000Z</time>
      </trkpt>
      <trkpt lat="43.68591" lon="1.85185">
        <ele>138.6</ele>
        <time>2013-11-06T09:38:38.000Z</time>
      </trkpt>
      <trkpt lat="43.68587" lon="1.85196">
        <ele>139.1</ele>
        <time>2013-11-06T09:38:45.000Z</time>
      </trkpt>
      <trkpt lat="43.68587" lon="1.85197">
        <ele>139</ele>
        <time>2013-11-06T09:38:46.000Z</time>
      </trkpt>
      <trkpt lat="43.68581" lon="1.85218">
        <ele>139.5</ele>
        <time>2013-11-06T09:39:0.000Z</time>
      </trkpt>
      <trkpt lat="43.68578" lon="1.85228">
        <ele>139.6</ele>
        <time>2013-11-06T09:39:7.000Z</time>
      </trkpt>
      <trkpt lat="43.68575" lon="1.85239">
        <ele>140.2</ele>
        <time>2013-11-06T09:39:14.000Z</time>
      </trkpt>
      <trkpt lat="43.68573" lon="1.8525">
        <ele>140.6</ele>
        <time>2013-11-06T09:39:21.000Z</time>
      </trkpt>
      <trkpt lat="43.68568" lon="1.8526">
        <ele>141</ele>
        <time>2013-11-06T09:39:28.000Z</time>
      </trkpt>
      <trkpt lat="43.68563" lon="1.85269">
        <ele>141.5</ele>
        <time>2013-11-06T09:39:34.000Z</time>
      </trkpt>
      <trkpt lat="43.6856" lon="1.85279">
        <ele>142.4</ele>
        <time>2013-11-06T09:39:41.000Z</time>
      </trkpt>
      <trkpt lat="43.68556" lon="1.8529">
        <ele>142.4</ele>
        <time>2013-11-06T09:39:48.000Z</time>
      </trkpt>
      <trkpt lat="43.68556" lon="1.85292">
        <ele>142.5</ele>
        <time>2013-11-06T09:39:49.000Z</time>
      </trkpt>
      <trkpt lat="43.68549" lon="1.85311">
        <ele>143.7</ele>
        <time>2013-11-06T09:40:2.000Z</time>
      </trkpt>
      <trkpt lat="43.68544" lon="1.85322">
        <ele>144.3</ele>
        <time>2013-11-06T09:40:9.000Z</time>
      </trkpt>
      <trkpt lat="43.6854" lon="1.85332">
        <ele>144.5</ele>
        <time>2013-11-06T09:40:16.000Z</time>
      </trkpt>
      <trkpt lat="43.68537" lon="1.85342">
        <ele>145.3</ele>
        <time>2013-11-06T09:40:23.000Z</time>
      </trkpt>
      <trkpt lat="43.68533" lon="1.85352">
        <ele>145.7</ele>
        <time>2013-11-06T09:40:30.000Z</time>
      </trkpt>
      <trkpt lat="43.68528" lon="1.85363">
        <ele>146</ele>
        <time>2013-11-06T09:40:37.000Z</time>
      </trkpt>
      <trkpt lat="43.68524" lon="1.85373">
        <ele>146.2</ele>
        <time>2013-11-06T09:40:44.000Z</time>
      </trkpt>
      <trkpt lat="43.68521" lon="1.85384">
        <ele>146.5</ele>
        <time>2013-11-06T09:40:51.000Z</time>
      </trkpt>
      <trkpt lat="43.6852" lon="1.85386">
        <ele>146.5</ele>
        <time>2013-11-06T09:40:52.000Z</time>
      </trkpt>
      <trkpt lat="43.68514" lon="1.85405">
        <ele>147.6</ele>
        <time>2013-11-06T09:41:5.000Z</time>
      </trkpt>
      <trkpt lat="43.68509" lon="1.85415">
        <ele>147.6</ele>
        <time>2013-11-06T09:41:12.000Z</time>
      </trkpt>
      <trkpt lat="43.68505" lon="1.85425">
        <ele>147.8</ele>
        <time>2013-11-06T09:41:19.000Z</time>
      </trkpt>
      <trkpt lat="43.68501" lon="1.85436">
        <ele>147.9</ele>
        <time>2013-11-06T09:41:26.000Z</time>
      </trkpt>
      <trkpt lat="43.68497" lon="1.85447">
        <ele>148.2</ele>
        <time>2013-11-06T09:41:33.000Z</time>
      </trkpt>
      <trkpt lat="43.68495" lon="1.85457">
        <ele>148.4</ele>
        <time>2013-11-06T09:41:39.000Z</time>
      </trkpt>
      <trkpt lat="43.68492" lon="1.85468">
        <ele>148.8</ele>
        <time>2013-11-06T09:41:46.000Z</time>
      </trkpt>
      <trkpt lat="43.68488" lon="1.85477">
        <ele>149.1</ele>
        <time>2013-11-06T09:41:52.000Z</time>
      </trkpt>
      <trkpt lat="43.68487" lon="1.85478">
        <ele>149.2</ele>
        <time>2013-11-06T09:41:53.000Z</time>
      </trkpt>
      <trkpt lat="43.6848" lon="1.85497">
        <ele>149.4</ele>
        <time>2013-11-06T09:42:5.000Z</time>
      </trkpt>
      <trkpt lat="43.68476" lon="1.85508">
        <ele>149.6</ele>
        <time>2013-11-06T09:42:12.000Z</time>
      </trkpt>
      <trkpt lat="43.68471" lon="1.85518">
        <ele>150.1</ele>
        <time>2013-11-06T09:42:19.000Z</time>
      </trkpt>
      <trkpt lat="43.68467" lon="1.85529">
        <ele>150.7</ele>
        <time>2013-11-06T09:42:26.000Z</time>
      </trkpt>
      <trkpt lat="43.68463" lon="1.8554">
        <ele>150.7</ele>
        <time>2013-11-06T09:42:33.000Z</time>
      </trkpt>
      <trkpt lat="43.6846" lon="1.8555">
        <ele>151</ele>
        <time>2013-11-06T09:42:40.000Z</time>
      </trkpt>
      <trkpt lat="43.68456" lon="1.85561">
        <ele>151.3</ele>
        <time>2013-11-06T09:42:47.000Z</time>
      </trkpt>
      <trkpt lat="43.68452" lon="1.85571">
        <ele>151.6</ele>
        <time>2013-11-06T09:42:54.000Z</time>
      </trkpt>
      <trkpt lat="43.68451" lon="1.85573">
        <ele>151.7</ele>
        <time>2013-11-06T09:42:55.000Z</time>
      </trkpt>
      <trkpt lat="43.68445" lon="1.85593">
        <ele>151.8</ele>
        <time>2013-11-06T09:43:9.000Z</time>
      </trkpt>
      <trkpt lat="43.68441" lon="1.85604">
        <ele>152.2</ele>
        <time>2013-11-06T09:43:16.000Z</time>
      </trkpt>
      <trkpt lat="43.68437" lon="1.85615">
        <ele>152.7</ele>
        <time>2013-11-06T09:43:23.000Z</time>
      </trkpt>
      <trkpt lat="43.68434" lon="1.85626">
        <ele>152.7</ele>
        <time>2013-11-06T09:43:30.000Z</time>
      </trkpt>
      <trkpt lat="43.68431" lon="1.85637">
        <ele>152.7</ele>
        <time>2013-11-06T09:43:37.000Z</time>
      </trkpt>
      <trkpt lat="43.68429" lon="1.85648">
        <ele>153</ele>
        <time>2013-11-06T09:43:44.000Z</time>
      </trkpt>
      <trkpt lat="43.68427" lon="1.85659">
        <ele>153.5</ele>
        <time>2013-11-06T09:43:51.000Z</time>
      </trkpt>
      <trkpt lat="43.68425" lon="1.85671">
        <ele>153.3</ele>
        <time>2013-11-06T09:43:58.000Z</time>
      </trkpt>
      <trkpt lat="43.68425" lon="1.85673">
        <ele>153.2</ele>
        <time>2013-11-06T09:43:59.000Z</time>
      </trkpt>
      <trkpt lat="43.68422" lon="1.85694">
        <ele>153.2</ele>
        <time>2013-11-06T09:44:12.000Z</time>
      </trkpt>
      <trkpt lat="43.68421" lon="1.85705">
        <ele>153.1</ele>
        <time>2013-11-06T09:44:19.000Z</time>
      </trkpt>
      <trkpt lat="43.68421" lon="1.85717">
        <ele>153.5</ele>
        <time>2013-11-06T09:44:26.000Z</time>
      </trkpt>
      <trkpt lat="43.68421" lon="1.85729">
        <ele>153.8</ele>
        <time>2013-11-06T09:44:33.000Z</time>
      </trkpt>
      <trkpt lat="43.68422" lon="1.8574">
        <ele>154.3</ele>
        <time>2013-11-06T09:44:40.000Z</time>
      </trkpt>
      <trkpt lat="43.68421" lon="1.85751">
        <ele>154</ele>
        <time>2013-11-06T09:44:46.000Z</time>
      </trkpt>
      <trkpt lat="43.68419" lon="1.85761">
        <ele>153.6</ele>
        <time>2013-11-06T09:44:52.000Z</time>
      </trkpt>
      <trkpt lat="43.68418" lon="1.85773">
        <ele>154</ele>
        <time>2013-11-06T09:44:59.000Z</time>
      </trkpt>
      <trkpt lat="43.68417" lon="1.85785">
        <ele>154.4</ele>
        <time>2013-11-06T09:45:6.000Z</time>
      </trkpt>
      <trkpt lat="43.68416" lon="1.85787">
        <ele>154.5</ele>
        <time>2013-11-06T09:45:7.000Z</time>
      </trkpt>
      <trkpt lat="43.68413" lon="1.85809">
        <ele>154.9</ele>
        <time>2013-11-06T09:45:20.000Z</time>
      </trkpt>
      <trkpt lat="43.68411" lon="1.8582">
        <ele>155</ele>
        <time>2013-11-06T09:45:26.000Z</time>
      </trkpt>
      <trkpt lat="43.6841" lon="1.85831">
        <ele>155.2</ele>
        <time>2013-11-06T09:45:32.000Z</time>
      </trkpt>
      <trkpt lat="43.68408" lon="1.85842">
        <ele>155.2</ele>
        <time>2013-11-06T09:45:38.000Z</time>
      </trkpt>
      <trkpt lat="43.68407" lon="1.85854">
        <ele>155.1</ele>
        <time>2013-11-06T09:45:45.000Z</time>
      </trkpt>
      <trkpt lat="43.68405" lon="1.85866">
        <ele>155.3</ele>
        <time>2013-11-06T09:45:52.000Z</time>
      </trkpt>
      <trkpt lat="43.68403" lon="1.85877">
        <ele>155.4</ele>
        <time>2013-11-06T09:45:58.000Z</time>
      </trkpt>
      <trkpt lat="43.68402" lon="1.85887">
        <ele>155.4</ele>
        <time>2013-11-06T09:46:4.000Z</time>
      </trkpt>
      <trkpt lat="43.684" lon="1.85898">
        <ele>155.5</ele>
        <time>2013-11-06T09:46:10.000Z</time>
      </trkpt>
      <trkpt lat="43.684" lon="1.859">
        <ele>155.5</ele>
        <time>2013-11-06T09:46:11.000Z</time>
      </trkpt>
      <trkpt lat="43.68397" lon="1.85919">
        <ele>155.3</ele>
        <time>2013-11-06T09:46:22.000Z</time>
      </trkpt>
      <trkpt lat="43.68396" lon="1.8593">
        <ele>155.3</ele>
        <time>2013-11-06T09:46:28.000Z</time>
      </trkpt>
      <trkpt lat="43.68394" lon="1.85942">
        <ele>154.8</ele>
        <time>2013-11-06T09:46:35.000Z</time>
      </trkpt>
      <trkpt lat="43.68392" lon="1.85952">
        <ele>154.6</ele>
        <time>2013-11-06T09:46:41.000Z</time>
      </trkpt>
      <trkpt lat="43.6839" lon="1.85963">
        <ele>153.8</ele>
        <time>2013-11-06T09:46:48.000Z</time>
      </trkpt>
      <trkpt lat="43.68386" lon="1.85974">
        <ele>153.2</ele>
        <time>2013-11-06T09:46:55.000Z</time>
      </trkpt>
      <trkpt lat="43.68382" lon="1.85984">
        <ele>153</ele>
        <time>2013-11-06T09:47:1.000Z</time>
      </trkpt>
      <trkpt lat="43.68377" lon="1.85994">
        <ele>152.4</ele>
        <time>2013-11-06T09:47:9.000Z</time>
      </trkpt>
      <trkpt lat="43.68371" lon="1.86003">
        <ele>152.3</ele>
        <time>2013-11-06T09:47:14.000Z</time>
      </trkpt>
      <trkpt lat="43.68371" lon="1.86005">
        <ele>152.4</ele>
        <time>2013-11-06T09:47:15.000Z</time>
      </trkpt>
      <trkpt lat="43.68362" lon="1.86021">
        <ele>152.2</ele>
        <time>2013-11-06T09:47:27.000Z</time>
      </trkpt>
      <trkpt lat="43.68359" lon="1.86031">
        <ele>152</ele>
        <time>2013-11-06T09:47:33.000Z</time>
      </trkpt>
      <trkpt lat="43.68357" lon="1.86043">
        <ele>151.6</ele>
        <time>2013-11-06T09:47:40.000Z</time>
      </trkpt>
      <trkpt lat="43.68356" lon="1.86055">
        <ele>152</ele>
        <time>2013-11-06T09:47:47.000Z</time>
      </trkpt>
      <trkpt lat="43.68358" lon="1.86067">
        <ele>152.1</ele>
        <time>2013-11-06T09:47:55.000Z</time>
      </trkpt>
      <trkpt lat="43.68361" lon="1.86078">
        <ele>152.4</ele>
        <time>2013-11-06T09:48:3.000Z</time>
      </trkpt>
      <trkpt lat="43.68364" lon="1.86089">
        <ele>152.4</ele>
        <time>2013-11-06T09:48:11.000Z</time>
      </trkpt>
      <trkpt lat="43.68366" lon="1.861">
        <ele>153.3</ele>
        <time>2013-11-06T09:48:22.000Z</time>
      </trkpt>
      <trkpt lat="43.68366" lon="1.86101">
        <ele>153.3</ele>
        <time>2013-11-06T09:48:23.000Z</time>
      </trkpt>
      <trkpt lat="43.6836" lon="1.8611">
        <ele>153.4</ele>
        <time>2013-11-06T09:53:22.000Z</time>
      </trkpt>
      <trkpt lat="43.68363" lon="1.86132">
        <ele>155.4</ele>
        <time>2013-11-06T09:53:47.000Z</time>
      </trkpt>
      <trkpt lat="43.68363" lon="1.86143">
        <ele>156.4</ele>
        <time>2013-11-06T09:53:58.000Z</time>
      </trkpt>
      <trkpt lat="43.68364" lon="1.86154">
        <ele>156.8</ele>
        <time>2013-11-06T09:54:5.000Z</time>
      </trkpt>
      <trkpt lat="43.68367" lon="1.86166">
        <ele>157.5</ele>
        <time>2013-11-06T09:54:16.000Z</time>
      </trkpt>
      <trkpt lat="43.68368" lon="1.86177">
        <ele>158.1</ele>
        <time>2013-11-06T09:54:24.000Z</time>
      </trkpt>
      <trkpt lat="43.68369" lon="1.86179">
        <ele>158.1</ele>
        <time>2013-11-06T09:54:25.000Z</time>
      </trkpt>
      <trkpt lat="43.6837" lon="1.86199">
        <ele>159</ele>
        <time>2013-11-06T09:54:37.000Z</time>
      </trkpt>
      <trkpt lat="43.68371" lon="1.86211">
        <ele>159.2</ele>
        <time>2013-11-06T09:54:44.000Z</time>
      </trkpt>
      <trkpt lat="43.68371" lon="1.86222">
        <ele>159.6</ele>
        <time>2013-11-06T09:54:52.000Z</time>
      </trkpt>
      <trkpt lat="43.68369" lon="1.86234">
        <ele>160.2</ele>
        <time>2013-11-06T09:54:59.000Z</time>
      </trkpt>
      <trkpt lat="43.68366" lon="1.86245">
        <ele>160.3</ele>
        <time>2013-11-06T09:55:6.000Z</time>
      </trkpt>
      <trkpt lat="43.68364" lon="1.86256">
        <ele>160.6</ele>
        <time>2013-11-06T09:55:14.000Z</time>
      </trkpt>
      <trkpt lat="43.68363" lon="1.86268">
        <ele>161.1</ele>
        <time>2013-11-06T09:55:23.000Z</time>
      </trkpt>
      <trkpt lat="43.68363" lon="1.86279">
        <ele>162</ele>
        <time>2013-11-06T09:55:32.000Z</time>
      </trkpt>
      <trkpt lat="43.68363" lon="1.86281">
        <ele>161.9</ele>
        <time>2013-11-06T09:55:33.000Z</time>
      </trkpt>
      <trkpt lat="43.68361" lon="1.86303">
        <ele>163.3</ele>
        <time>2013-11-06T09:55:49.000Z</time>
      </trkpt>
      <trkpt lat="43.68358" lon="1.86314">
        <ele>164.6</ele>
        <time>2013-11-06T09:55:58.000Z</time>
      </trkpt>
      <trkpt lat="43.68355" lon="1.86325">
        <ele>165.7</ele>
        <time>2013-11-06T09:56:7.000Z</time>
      </trkpt>
      <trkpt lat="43.68351" lon="1.86336">
        <ele>166.8</ele>
        <time>2013-11-06T09:56:14.000Z</time>
      </trkpt>
      <trkpt lat="43.68348" lon="1.86347">
        <ele>168</ele>
        <time>2013-11-06T09:56:23.000Z</time>
      </trkpt>
      <trkpt lat="43.68346" lon="1.86359">
        <ele>169.4</ele>
        <time>2013-11-06T09:56:33.000Z</time>
      </trkpt>
      <trkpt lat="43.68345" lon="1.8636">
        <ele>169.6</ele>
        <time>2013-11-06T09:56:34.000Z</time>
      </trkpt>
      <trkpt lat="43.68341" lon="1.86381">
        <ele>171.2</ele>
        <time>2013-11-06T09:56:49.000Z</time>
      </trkpt>
      <trkpt lat="43.68341" lon="1.86392">
        <ele>172.4</ele>
        <time>2013-11-06T09:56:58.000Z</time>
      </trkpt>
      <trkpt lat="43.6834" lon="1.86405">
        <ele>173.4</ele>
        <time>2013-11-06T09:57:6.000Z</time>
      </trkpt>
      <trkpt lat="43.68339" lon="1.86416">
        <ele>174.3</ele>
        <time>2013-11-06T09:57:15.000Z</time>
      </trkpt>
      <trkpt lat="43.68337" lon="1.86427">
        <ele>175</ele>
        <time>2013-11-06T09:57:22.000Z</time>
      </trkpt>
      <trkpt lat="43.68333" lon="1.86438">
        <ele>175.2</ele>
        <time>2013-11-06T09:57:30.000Z</time>
      </trkpt>
      <trkpt lat="43.6833" lon="1.86448">
        <ele>175</ele>
        <time>2013-11-06T09:57:37.000Z</time>
      </trkpt>
      <trkpt lat="43.6833" lon="1.8645">
        <ele>175.1</ele>
        <time>2013-11-06T09:57:38.000Z</time>
      </trkpt>
      <trkpt lat="43.68327" lon="1.86472">
        <ele>176.2</ele>
        <time>2013-11-06T09:57:54.000Z</time>
      </trkpt>
      <trkpt lat="43.68325" lon="1.86483">
        <ele>176.4</ele>
        <time>2013-11-06T09:58:1.000Z</time>
      </trkpt>
      <trkpt lat="43.68325" lon="1.86495">
        <ele>176.5</ele>
        <time>2013-11-06T09:58:9.000Z</time>
      </trkpt>
      <trkpt lat="43.68323" lon="1.86507">
        <ele>176.6</ele>
        <time>2013-11-06T09:58:16.000Z</time>
      </trkpt>
      <trkpt lat="43.6832" lon="1.86517">
        <ele>176.6</ele>
        <time>2013-11-06T09:58:23.000Z</time>
      </trkpt>
      <trkpt lat="43.68315" lon="1.86527">
        <ele>176.1</ele>
        <time>2013-11-06T09:58:30.000Z</time>
      </trkpt>
      <trkpt lat="43.68313" lon="1.86538">
        <ele>175.8</ele>
        <time>2013-11-06T09:58:38.000Z</time>
      </trkpt>
      <trkpt lat="43.68313" lon="1.8654">
        <ele>176</ele>
        <time>2013-11-06T09:58:39.000Z</time>
      </trkpt>
      <trkpt lat="43.68307" lon="1.8656">
        <ele>176.2</ele>
        <time>2013-11-06T09:58:52.000Z</time>
      </trkpt>
      <trkpt lat="43.68306" lon="1.86573">
        <ele>176.1</ele>
        <time>2013-11-06T09:59:0.000Z</time>
      </trkpt>
      <trkpt lat="43.68305" lon="1.86584">
        <ele>175.4</ele>
        <time>2013-11-06T09:59:8.000Z</time>
      </trkpt>
      <trkpt lat="43.68304" lon="1.86594">
        <ele>175.1</ele>
        <time>2013-11-06T09:59:15.000Z</time>
      </trkpt>
      <trkpt lat="43.68302" lon="1.86606">
        <ele>174.7</ele>
        <time>2013-11-06T09:59:22.000Z</time>
      </trkpt>
      <trkpt lat="43.683" lon="1.86617">
        <ele>174.4</ele>
        <time>2013-11-06T09:59:29.000Z</time>
      </trkpt>
      <trkpt lat="43.68298" lon="1.86629">
        <ele>174.4</ele>
        <time>2013-11-06T09:59:37.000Z</time>
      </trkpt>
      <trkpt lat="43.68297" lon="1.8664">
        <ele>174.3</ele>
        <time>2013-11-06T09:59:44.000Z</time>
      </trkpt>
      <trkpt lat="43.68297" lon="1.86642">
        <ele>174.3</ele>
        <time>2013-11-06T09:59:45.000Z</time>
      </trkpt>
      <trkpt lat="43.68294" lon="1.86664">
        <ele>173.9</ele>
        <time>2013-11-06T09:59:58.000Z</time>
      </trkpt>
      <trkpt lat="43.68291" lon="1.86676">
        <ele>173.9</ele>
        <time>2013-11-06T10:00:5.000Z</time>
      </trkpt>
      <trkpt lat="43.68289" lon="1.86687">
        <ele>173.4</ele>
        <time>2013-11-06T10:00:12.000Z</time>
      </trkpt>
      <trkpt lat="43.68288" lon="1.86699">
        <ele>173.5</ele>
        <time>2013-11-06T10:00:19.000Z</time>
      </trkpt>
      <trkpt lat="43.68286" lon="1.8671">
        <ele>173.6</ele>
        <time>2013-11-06T10:00:26.000Z</time>
      </trkpt>
      <trkpt lat="43.68285" lon="1.86722">
        <ele>173.7</ele>
        <time>2013-11-06T10:00:33.000Z</time>
      </trkpt>
      <trkpt lat="43.68282" lon="1.86732">
        <ele>174</ele>
        <time>2013-11-06T10:00:40.000Z</time>
      </trkpt>
      <trkpt lat="43.6828" lon="1.86743">
        <ele>173.8</ele>
        <time>2013-11-06T10:00:47.000Z</time>
      </trkpt>
      <trkpt lat="43.68279" lon="1.86744">
        <ele>173.9</ele>
        <time>2013-11-06T10:00:48.000Z</time>
      </trkpt>
      <trkpt lat="43.68274" lon="1.86764">
        <ele>174</ele>
        <time>2013-11-06T10:01:1.000Z</time>
      </trkpt>
      <trkpt lat="43.6827" lon="1.86776">
        <ele>173.8</ele>
        <time>2013-11-06T10:01:8.000Z</time>
      </trkpt>
      <trkpt lat="43.68267" lon="1.86786">
        <ele>174.1</ele>
        <time>2013-11-06T10:01:15.000Z</time>
      </trkpt>
      <trkpt lat="43.68264" lon="1.86797">
        <ele>174.4</ele>
        <time>2013-11-06T10:01:22.000Z</time>
      </trkpt>
      <trkpt lat="43.6826" lon="1.86807">
        <ele>174.6</ele>
        <time>2013-11-06T10:01:29.000Z</time>
      </trkpt>
      <trkpt lat="43.68257" lon="1.86817">
        <ele>175</ele>
        <time>2013-11-06T10:01:36.000Z</time>
      </trkpt>
      <trkpt lat="43.68254" lon="1.86828">
        <ele>175.1</ele>
        <time>2013-11-06T10:01:43.000Z</time>
      </trkpt>
      <trkpt lat="43.6825" lon="1.86839">
        <ele>175</ele>
        <time>2013-11-06T10:01:50.000Z</time>
      </trkpt>
      <trkpt lat="43.6825" lon="1.8684">
        <ele>175</ele>
        <time>2013-11-06T10:01:51.000Z</time>
      </trkpt>
      <trkpt lat="43.68244" lon="1.86861">
        <ele>175.3</ele>
        <time>2013-11-06T10:02:4.000Z</time>
      </trkpt>
      <trkpt lat="43.68241" lon="1.86873">
        <ele>175.4</ele>
        <time>2013-11-06T10:02:11.000Z</time>
      </trkpt>
      <trkpt lat="43.68237" lon="1.86884">
        <ele>175.5</ele>
        <time>2013-11-06T10:02:18.000Z</time>
      </trkpt>
      <trkpt lat="43.68234" lon="1.86895">
        <ele>175.7</ele>
        <time>2013-11-06T10:02:25.000Z</time>
      </trkpt>
      <trkpt lat="43.6823" lon="1.86906">
        <ele>175.8</ele>
        <time>2013-11-06T10:02:32.000Z</time>
      </trkpt>
      <trkpt lat="43.68227" lon="1.86918">
        <ele>175.5</ele>
        <time>2013-11-06T10:02:39.000Z</time>
      </trkpt>
      <trkpt lat="43.68224" lon="1.86928">
        <ele>175.5</ele>
        <time>2013-11-06T10:02:45.000Z</time>
      </trkpt>
      <trkpt lat="43.6822" lon="1.86939">
        <ele>176.1</ele>
        <time>2013-11-06T10:02:52.000Z</time>
      </trkpt>
      <trkpt lat="43.6822" lon="1.8694">
        <ele>175.9</ele>
        <time>2013-11-06T10:02:53.000Z</time>
      </trkpt>
      <trkpt lat="43.68213" lon="1.86961">
        <ele>176.3</ele>
        <time>2013-11-06T10:03:6.000Z</time>
      </trkpt>
      <trkpt lat="43.68209" lon="1.86972">
        <ele>176.4</ele>
        <time>2013-11-06T10:03:15.000Z</time>
      </trkpt>
      <trkpt lat="43.68206" lon="1.86983">
        <ele>176.5</ele>
        <time>2013-11-06T10:03:25.000Z</time>
      </trkpt>
      <trkpt lat="43.68202" lon="1.86994">
        <ele>176.1</ele>
        <time>2013-11-06T10:03:34.000Z</time>
      </trkpt>
      <trkpt lat="43.68199" lon="1.87004">
        <ele>176.5</ele>
        <time>2013-11-06T10:03:42.000Z</time>
      </trkpt>
      <trkpt lat="43.68195" lon="1.87015">
        <ele>176.4</ele>
        <time>2013-11-06T10:03:50.000Z</time>
      </trkpt>
      <trkpt lat="43.68192" lon="1.87025">
        <ele>176.4</ele>
        <time>2013-11-06T10:03:58.000Z</time>
      </trkpt>
      <trkpt lat="43.68191" lon="1.87027">
        <ele>176.3</ele>
        <time>2013-11-06T10:03:59.000Z</time>
      </trkpt>
      <trkpt lat="43.68185" lon="1.87046">
        <ele>177</ele>
        <time>2013-11-06T10:04:13.000Z</time>
      </trkpt>
      <trkpt lat="43.68182" lon="1.87056">
        <ele>177.2</ele>
        <time>2013-11-06T10:04:21.000Z</time>
      </trkpt>
      <trkpt lat="43.68178" lon="1.87067">
        <ele>177</ele>
        <time>2013-11-06T10:04:29.000Z</time>
      </trkpt>
      <trkpt lat="43.68173" lon="1.87077">
        <ele>177.1</ele>
        <time>2013-11-06T10:04:36.000Z</time>
      </trkpt>
      <trkpt lat="43.6817" lon="1.87088">
        <ele>177.2</ele>
        <time>2013-11-06T10:04:44.000Z</time>
      </trkpt>
      <trkpt lat="43.68167" lon="1.87098">
        <ele>177.2</ele>
        <time>2013-11-06T10:04:51.000Z</time>
      </trkpt>
      <trkpt lat="43.68163" lon="1.87109">
        <ele>177.3</ele>
        <time>2013-11-06T10:04:59.000Z</time>
      </trkpt>
      <trkpt lat="43.68162" lon="1.8711">
        <ele>177.4</ele>
        <time>2013-11-06T10:05:0.000Z</time>
      </trkpt>
      <trkpt lat="43.68156" lon="1.87129">
        <ele>178</ele>
        <time>2013-11-06T10:05:13.000Z</time>
      </trkpt>
      <trkpt lat="43.68152" lon="1.8714">
        <ele>178.2</ele>
        <time>2013-11-06T10:05:21.000Z</time>
      </trkpt>
      <trkpt lat="43.68149" lon="1.8715">
        <ele>178.2</ele>
        <time>2013-11-06T10:05:28.000Z</time>
      </trkpt>
      <trkpt lat="43.68144" lon="1.8716">
        <ele>178.2</ele>
        <time>2013-11-06T10:05:35.000Z</time>
      </trkpt>
      <trkpt lat="43.68137" lon="1.87164">
        <ele>178.5</ele>
        <time>2013-11-06T10:05:42.000Z</time>
      </trkpt>
      <trkpt lat="43.68133" lon="1.87153">
        <ele>178.4</ele>
        <time>2013-11-06T10:05:50.000Z</time>
      </trkpt>
      <trkpt lat="43.68132" lon="1.87142">
        <ele>178</ele>
        <time>2013-11-06T10:05:57.000Z</time>
      </trkpt>
      <trkpt lat="43.6813" lon="1.87132">
        <ele>178.1</ele>
        <time>2013-11-06T10:06:2.000Z</time>
      </trkpt>
      <trkpt lat="43.68129" lon="1.87129">
        <ele>177.9</ele>
        <time>2013-11-06T10:06:3.000Z</time>
      </trkpt>
      <trkpt lat="43.68122" lon="1.87113">
        <ele>177.7</ele>
        <time>2013-11-06T10:06:15.000Z</time>
      </trkpt>
      <trkpt lat="43.68113" lon="1.87111">
        <ele>177.9</ele>
        <time>2013-11-06T10:06:22.000Z</time>
      </trkpt>
      <trkpt lat="43.68105" lon="1.87113">
        <ele>178.4</ele>
        <time>2013-11-06T10:06:30.000Z</time>
      </trkpt>
      <trkpt lat="43.68097" lon="1.87112">
        <ele>178.4</ele>
        <time>2013-11-06T10:06:36.000Z</time>
      </trkpt>
      <trkpt lat="43.68089" lon="1.87111">
        <ele>178.3</ele>
        <time>2013-11-06T10:06:43.000Z</time>
      </trkpt>
      <trkpt lat="43.6808" lon="1.87109">
        <ele>178.7</ele>
        <time>2013-11-06T10:06:50.000Z</time>
      </trkpt>
      <trkpt lat="43.68072" lon="1.87107">
        <ele>178.7</ele>
        <time>2013-11-06T10:07:7.000Z</time>
      </trkpt>
      <trkpt lat="43.68071" lon="1.87107">
        <ele>178.9</ele>
        <time>2013-11-06T10:07:8.000Z</time>
      </trkpt>
      <trkpt lat="43.68056" lon="1.87104">
        <ele>178.7</ele>
        <time>2013-11-06T10:07:21.000Z</time>
      </trkpt>
      <trkpt lat="43.68047" lon="1.87103">
        <ele>179.4</ele>
        <time>2013-11-06T10:07:28.000Z</time>
      </trkpt>
      <trkpt lat="43.68039" lon="1.87102">
        <ele>179.8</ele>
        <time>2013-11-06T10:07:35.000Z</time>
      </trkpt>
      <trkpt lat="43.68031" lon="1.87101">
        <ele>180</ele>
        <time>2013-11-06T10:07:42.000Z</time>
      </trkpt>
      <trkpt lat="43.68022" lon="1.871">
        <ele>180.1</ele>
        <time>2013-11-06T10:07:49.000Z</time>
      </trkpt>
      <trkpt lat="43.68013" lon="1.87098">
        <ele>180.4</ele>
        <time>2013-11-06T10:07:56.000Z</time>
      </trkpt>
      <trkpt lat="43.68005" lon="1.87097">
        <ele>180.9</ele>
        <time>2013-11-06T10:08:3.000Z</time>
      </trkpt>
      <trkpt lat="43.67996" lon="1.87097">
        <ele>181.4</ele>
        <time>2013-11-06T10:08:10.000Z</time>
      </trkpt>
      <trkpt lat="43.67995" lon="1.87097">
        <ele>181.3</ele>
        <time>2013-11-06T10:08:11.000Z</time>
      </trkpt>
      <trkpt lat="43.67979" lon="1.87096">
        <ele>182.8</ele>
        <time>2013-11-06T10:08:24.000Z</time>
      </trkpt>
      <trkpt lat="43.67971" lon="1.87095">
        <ele>183.6</ele>
        <time>2013-11-06T10:08:31.000Z</time>
      </trkpt>
      <trkpt lat="43.67963" lon="1.87094">
        <ele>184</ele>
        <time>2013-11-06T10:08:38.000Z</time>
      </trkpt>
      <trkpt lat="43.67955" lon="1.87093">
        <ele>184.5</ele>
        <time>2013-11-06T10:08:45.000Z</time>
      </trkpt>
      <trkpt lat="43.67947" lon="1.87093">
        <ele>185.3</ele>
        <time>2013-11-06T10:08:52.000Z</time>
      </trkpt>
      <trkpt lat="43.67939" lon="1.87095">
        <ele>186</ele>
        <time>2013-11-06T10:08:59.000Z</time>
      </trkpt>
      <trkpt lat="43.67931" lon="1.87099">
        <ele>187.1</ele>
        <time>2013-11-06T10:09:6.000Z</time>
      </trkpt>
      <trkpt lat="43.67924" lon="1.87105">
        <ele>187.9</ele>
        <time>2013-11-06T10:09:14.000Z</time>
      </trkpt>
      <trkpt lat="43.67923" lon="1.87106">
        <ele>188.1</ele>
        <time>2013-11-06T10:09:15.000Z</time>
      </trkpt>
      <trkpt lat="43.67911" lon="1.87121">
        <ele>189.1</ele>
        <time>2013-11-06T10:09:29.000Z</time>
      </trkpt>
      <trkpt lat="43.67907" lon="1.87131">
        <ele>189.6</ele>
        <time>2013-11-06T10:09:36.000Z</time>
      </trkpt>
      <trkpt lat="43.67903" lon="1.87141">
        <ele>190.1</ele>
        <time>2013-11-06T10:09:43.000Z</time>
      </trkpt>
      <trkpt lat="43.67899" lon="1.87152">
        <ele>190.5</ele>
        <time>2013-11-06T10:09:50.000Z</time>
      </trkpt>
      <trkpt lat="43.67895" lon="1.87163">
        <ele>191.2</ele>
        <time>2013-11-06T10:09:57.000Z</time>
      </trkpt>
      <trkpt lat="43.67891" lon="1.87173">
        <ele>191.5</ele>
        <time>2013-11-06T10:10:4.000Z</time>
      </trkpt>
      <trkpt lat="43.67886" lon="1.87183">
        <ele>191.9</ele>
        <time>2013-11-06T10:10:11.000Z</time>
      </trkpt>
      <trkpt lat="43.67883" lon="1.87194">
        <ele>192.4</ele>
        <time>2013-11-06T10:10:18.000Z</time>
      </trkpt>
      <trkpt lat="43.67882" lon="1.87195">
        <ele>192.4</ele>
        <time>2013-11-06T10:10:19.000Z</time>
      </trkpt>
      <trkpt lat="43.67875" lon="1.87216">
        <ele>192.8</ele>
        <time>2013-11-06T10:10:32.000Z</time>
      </trkpt>
      <trkpt lat="43.67871" lon="1.87226">
        <ele>193.6</ele>
        <time>2013-11-06T10:10:39.000Z</time>
      </trkpt>
      <trkpt lat="43.67867" lon="1.87237">
        <ele>194.2</ele>
        <time>2013-11-06T10:10:46.000Z</time>
      </trkpt>
      <trkpt lat="43.67864" lon="1.87248">
        <ele>194.5</ele>
        <time>2013-11-06T10:10:53.000Z</time>
      </trkpt>
      <trkpt lat="43.67859" lon="1.87259">
        <ele>195</ele>
        <time>2013-11-06T10:11:0.000Z</time>
      </trkpt>
      <trkpt lat="43.67856" lon="1.87269">
        <ele>195</ele>
        <time>2013-11-06T10:11:7.000Z</time>
      </trkpt>
      <trkpt lat="43.67852" lon="1.8728">
        <ele>195.3</ele>
        <time>2013-11-06T10:11:14.000Z</time>
      </trkpt>
      <trkpt lat="43.67848" lon="1.8729">
        <ele>195.9</ele>
        <time>2013-11-06T10:11:21.000Z</time>
      </trkpt>
      <trkpt lat="43.67847" lon="1.87291">
        <ele>196</ele>
        <time>2013-11-06T10:11:22.000Z</time>
      </trkpt>
      <trkpt lat="43.67839" lon="1.87309">
        <ele>195.9</ele>
        <time>2013-11-06T10:11:35.000Z</time>
      </trkpt>
      <trkpt lat="43.67833" lon="1.87317">
        <ele>196.1</ele>
        <time>2013-11-06T10:11:42.000Z</time>
      </trkpt>
      <trkpt lat="43.67828" lon="1.87326">
        <ele>196.6</ele>
        <time>2013-11-06T10:11:50.000Z</time>
      </trkpt>
      <trkpt lat="43.67823" lon="1.87335">
        <ele>196.5</ele>
        <time>2013-11-06T10:11:56.000Z</time>
      </trkpt>
      <trkpt lat="43.67818" lon="1.87344">
        <ele>196.8</ele>
        <time>2013-11-06T10:12:3.000Z</time>
      </trkpt>
      <trkpt lat="43.67813" lon="1.87353">
        <ele>197.2</ele>
        <time>2013-11-06T10:12:9.000Z</time>
      </trkpt>
      <trkpt lat="43.67808" lon="1.87362">
        <ele>197.7</ele>
        <time>2013-11-06T10:12:16.000Z</time>
      </trkpt>
      <trkpt lat="43.67804" lon="1.87371">
        <ele>197.7</ele>
        <time>2013-11-06T10:12:22.000Z</time>
      </trkpt>
      <trkpt lat="43.67799" lon="1.87382">
        <ele>198.2</ele>
        <time>2013-11-06T10:12:29.000Z</time>
      </trkpt>
      <trkpt lat="43.67799" lon="1.87383">
        <ele>198.4</ele>
        <time>2013-11-06T10:12:30.000Z</time>
      </trkpt>
      <trkpt lat="43.67792" lon="1.87403">
        <ele>199.3</ele>
        <time>2013-11-06T10:12:43.000Z</time>
      </trkpt>
      <trkpt lat="43.67788" lon="1.87414">
        <ele>199.9</ele>
        <time>2013-11-06T10:12:50.000Z</time>
      </trkpt>
      <trkpt lat="43.67784" lon="1.87424">
        <ele>200.4</ele>
        <time>2013-11-06T10:12:57.000Z</time>
      </trkpt>
      <trkpt lat="43.67778" lon="1.87434">
        <ele>200.4</ele>
        <time>2013-11-06T10:13:4.000Z</time>
      </trkpt>
      <trkpt lat="43.67774" lon="1.87443">
        <ele>200.9</ele>
        <time>2013-11-06T10:13:10.000Z</time>
      </trkpt>
      <trkpt lat="43.67769" lon="1.87452">
        <ele>201.3</ele>
        <time>2013-11-06T10:13:16.000Z</time>
      </trkpt>
      <trkpt lat="43.67765" lon="1.87461">
        <ele>201.6</ele>
        <time>2013-11-06T10:13:22.000Z</time>
      </trkpt>
      <trkpt lat="43.67759" lon="1.87471">
        <ele>202.1</ele>
        <time>2013-11-06T10:13:29.000Z</time>
      </trkpt>
      <trkpt lat="43.67759" lon="1.87472">
        <ele>202</ele>
        <time>2013-11-06T10:13:30.000Z</time>
      </trkpt>
      <trkpt lat="43.6775" lon="1.87491">
        <ele>203.3</ele>
        <time>2013-11-06T10:13:46.000Z</time>
      </trkpt>
      <trkpt lat="43.67745" lon="1.87501">
        <ele>203.9</ele>
        <time>2013-11-06T10:14:0.000Z</time>
      </trkpt>
      <trkpt lat="43.67741" lon="1.8751">
        <ele>204.4</ele>
        <time>2013-11-06T10:14:10.000Z</time>
      </trkpt>
      <trkpt lat="43.67736" lon="1.87519">
        <ele>204.9</ele>
        <time>2013-11-06T10:14:18.000Z</time>
      </trkpt>
      <trkpt lat="43.67731" lon="1.87528">
        <ele>205.5</ele>
        <time>2013-11-06T10:14:25.000Z</time>
      </trkpt>
      <trkpt lat="43.67727" lon="1.87538">
        <ele>206.3</ele>
        <time>2013-11-06T10:14:34.000Z</time>
      </trkpt>
      <trkpt lat="43.67726" lon="1.87539">
        <ele>206.3</ele>
        <time>2013-11-06T10:14:35.000Z</time>
      </trkpt>
      <trkpt lat="43.67715" lon="1.87555">
        <ele>207.5</ele>
        <time>2013-11-06T10:15:3.000Z</time>
      </trkpt>
      <trkpt lat="43.67709" lon="1.87561">
        <ele>208.5</ele>
        <time>2013-11-06T10:15:10.000Z</time>
      </trkpt>
      <trkpt lat="43.67702" lon="1.87568">
        <ele>209.2</ele>
        <time>2013-11-06T10:15:17.000Z</time>
      </trkpt>
      <trkpt lat="43.67695" lon="1.87574">
        <ele>209.8</ele>
        <time>2013-11-06T10:15:24.000Z</time>
      </trkpt>
      <trkpt lat="43.67688" lon="1.87582">
        <ele>209.9</ele>
        <time>2013-11-06T10:15:31.000Z</time>
      </trkpt>
      <trkpt lat="43.67682" lon="1.87589">
        <ele>210.2</ele>
        <time>2013-11-06T10:15:38.000Z</time>
      </trkpt>
      <trkpt lat="43.67681" lon="1.8759">
        <ele>210.2</ele>
        <time>2013-11-06T10:15:39.000Z</time>
      </trkpt>
      <trkpt lat="43.67668" lon="1.87603">
        <ele>211.8</ele>
        <time>2013-11-06T10:15:52.000Z</time>
      </trkpt>
      <trkpt lat="43.6766" lon="1.8761">
        <ele>212.2</ele>
        <time>2013-11-06T10:15:59.000Z</time>
      </trkpt>
      <trkpt lat="43.67653" lon="1.87616">
        <ele>212.6</ele>
        <time>2013-11-06T10:16:6.000Z</time>
      </trkpt>
      <trkpt lat="43.67645" lon="1.87622">
        <ele>213.1</ele>
        <time>2013-11-06T10:16:13.000Z</time>
      </trkpt>
      <trkpt lat="43.67637" lon="1.87628">
        <ele>213.5</ele>
        <time>2013-11-06T10:16:20.000Z</time>
      </trkpt>
      <trkpt lat="43.6763" lon="1.87632">
        <ele>213.7</ele>
        <time>2013-11-06T10:16:26.000Z</time>
      </trkpt>
      <trkpt lat="43.67622" lon="1.87637">
        <ele>213.8</ele>
        <time>2013-11-06T10:16:33.000Z</time>
      </trkpt>
      <trkpt lat="43.67615" lon="1.87642">
        <ele>214</ele>
        <time>2013-11-06T10:16:39.000Z</time>
      </trkpt>
      <trkpt lat="43.67614" lon="1.87643">
        <ele>214.3</ele>
        <time>2013-11-06T10:16:40.000Z</time>
      </trkpt>
      <trkpt lat="43.676" lon="1.87653">
        <ele>214.8</ele>
        <time>2013-11-06T10:16:52.000Z</time>
      </trkpt>
      <trkpt lat="43.67594" lon="1.87658">
        <ele>214.7</ele>
        <time>2013-11-06T10:16:58.000Z</time>
      </trkpt>
      <trkpt lat="43.67585" lon="1.87663">
        <ele>214.9</ele>
        <time>2013-11-06T10:17:5.000Z</time>
      </trkpt>
      <trkpt lat="43.67577" lon="1.87669">
        <ele>215.2</ele>
        <time>2013-11-06T10:17:12.000Z</time>
      </trkpt>
      <trkpt lat="43.6757" lon="1.87674">
        <ele>215.2</ele>
        <time>2013-11-06T10:17:19.000Z</time>
      </trkpt>
      <trkpt lat="43.67563" lon="1.87679">
        <ele>215.4</ele>
        <time>2013-11-06T10:17:25.000Z</time>
      </trkpt>
      <trkpt lat="43.67555" lon="1.87684">
        <ele>215.4</ele>
        <time>2013-11-06T10:17:31.000Z</time>
      </trkpt>
      <trkpt lat="43.67548" lon="1.87689">
        <ele>215.4</ele>
        <time>2013-11-06T10:17:37.000Z</time>
      </trkpt>
      <trkpt lat="43.67541" lon="1.87694">
        <ele>215.2</ele>
        <time>2013-11-06T10:17:44.000Z</time>
      </trkpt>
      <trkpt lat="43.6754" lon="1.87695">
        <ele>215.3</ele>
        <time>2013-11-06T10:17:45.000Z</time>
      </trkpt>
      <trkpt lat="43.67525" lon="1.87706">
        <ele>215.4</ele>
        <time>2013-11-06T10:17:58.000Z</time>
      </trkpt>
      <trkpt lat="43.67518" lon="1.87713">
        <ele>215.2</ele>
        <time>2013-11-06T10:18:5.000Z</time>
      </trkpt>
      <trkpt lat="43.67511" lon="1.8772">
        <ele>215.2</ele>
        <time>2013-11-06T10:18:12.000Z</time>
      </trkpt>
      <trkpt lat="43.67504" lon="1.87727">
        <ele>215.8</ele>
        <time>2013-11-06T10:18:19.000Z</time>
      </trkpt>
      <trkpt lat="43.67499" lon="1.87735">
        <ele>216.4</ele>
        <time>2013-11-06T10:18:26.000Z</time>
      </trkpt>
      <trkpt lat="43.67493" lon="1.87744">
        <ele>216.8</ele>
        <time>2013-11-06T10:18:33.000Z</time>
      </trkpt>
      <trkpt lat="43.67488" lon="1.87752">
        <ele>217.3</ele>
        <time>2013-11-06T10:18:40.000Z</time>
      </trkpt>
      <trkpt lat="43.67483" lon="1.87761">
        <ele>217.5</ele>
        <time>2013-11-06T10:18:47.000Z</time>
      </trkpt>
      <trkpt lat="43.67482" lon="1.87763">
        <ele>217.3</ele>
        <time>2013-11-06T10:18:48.000Z</time>
      </trkpt>
      <trkpt lat="43.67473" lon="1.87781">
        <ele>218.4</ele>
        <time>2013-11-06T10:19:1.000Z</time>
      </trkpt>
      <trkpt lat="43.67468" lon="1.87791">
        <ele>218.8</ele>
        <time>2013-11-06T10:19:8.000Z</time>
      </trkpt>
      <trkpt lat="43.67464" lon="1.878">
        <ele>219.2</ele>
        <time>2013-11-06T10:19:15.000Z</time>
      </trkpt>
      <trkpt lat="43.67459" lon="1.87811">
        <ele>220</ele>
        <time>2013-11-06T10:19:23.000Z</time>
      </trkpt>
      <trkpt lat="43.67454" lon="1.8782">
        <ele>220.2</ele>
        <time>2013-11-06T10:19:30.000Z</time>
      </trkpt>
      <trkpt lat="43.67448" lon="1.87828">
        <ele>220.8</ele>
        <time>2013-11-06T10:19:37.000Z</time>
      </trkpt>
      <trkpt lat="43.67441" lon="1.87835">
        <ele>220.9</ele>
        <time>2013-11-06T10:19:44.000Z</time>
      </trkpt>
      <trkpt lat="43.67434" lon="1.87839">
        <ele>221.2</ele>
        <time>2013-11-06T10:19:50.000Z</time>
      </trkpt>
      <trkpt lat="43.67432" lon="1.8784">
        <ele>221.3</ele>
        <time>2013-11-06T10:19:51.000Z</time>
      </trkpt>
      <trkpt lat="43.67418" lon="1.87842">
        <ele>221.1</ele>
        <time>2013-11-06T10:20:2.000Z</time>
      </trkpt>
      <trkpt lat="43.6741" lon="1.87842">
        <ele>221</ele>
        <time>2013-11-06T10:20:8.000Z</time>
      </trkpt>
      <trkpt lat="43.67402" lon="1.87841">
        <ele>220.6</ele>
        <time>2013-11-06T10:20:14.000Z</time>
      </trkpt>
      <trkpt lat="43.67394" lon="1.87841">
        <ele>220.7</ele>
        <time>2013-11-06T10:20:20.000Z</time>
      </trkpt>
      <trkpt lat="43.67386" lon="1.8784">
        <ele>219.7</ele>
        <time>2013-11-06T10:20:26.000Z</time>
      </trkpt>
      <trkpt lat="43.67378" lon="1.87839">
        <ele>219.7</ele>
        <time>2013-11-06T10:20:32.000Z</time>
      </trkpt>
      <trkpt lat="43.6737" lon="1.87837">
        <ele>219.5</ele>
        <time>2013-11-06T10:20:38.000Z</time>
      </trkpt>
      <trkpt lat="43.67362" lon="1.87836">
        <ele>220</ele>
        <time>2013-11-06T10:20:44.000Z</time>
      </trkpt>
      <trkpt lat="43.67354" lon="1.87835">
        <ele>220</ele>
        <time>2013-11-06T10:20:50.000Z</time>
      </trkpt>
      <trkpt lat="43.67345" lon="1.87834">
        <ele>220.1</ele>
        <time>2013-11-06T10:20:56.000Z</time>
      </trkpt>
      <trkpt lat="43.67344" lon="1.87834">
        <ele>220</ele>
        <time>2013-11-06T10:20:57.000Z</time>
      </trkpt>
      <trkpt lat="43.67329" lon="1.87833">
        <ele>221.1</ele>
        <time>2013-11-06T10:21:8.000Z</time>
      </trkpt>
      <trkpt lat="43.67321" lon="1.87833">
        <ele>221.7</ele>
        <time>2013-11-06T10:21:15.000Z</time>
      </trkpt>
      <trkpt lat="43.67313" lon="1.87832">
        <ele>221.9</ele>
        <time>2013-11-06T10:21:21.000Z</time>
      </trkpt>
      <trkpt lat="43.67304" lon="1.87831">
        <ele>222.3</ele>
        <time>2013-11-06T10:21:28.000Z</time>
      </trkpt>
      <trkpt lat="43.67295" lon="1.87831">
        <ele>223.1</ele>
        <time>2013-11-06T10:21:35.000Z</time>
      </trkpt>
      <trkpt lat="43.67287" lon="1.8783">
        <ele>223.8</ele>
        <time>2013-11-06T10:21:42.000Z</time>
      </trkpt>
      <trkpt lat="43.67278" lon="1.87829">
        <ele>224.3</ele>
        <time>2013-11-06T10:21:49.000Z</time>
      </trkpt>
      <trkpt lat="43.6727" lon="1.87829">
        <ele>224.8</ele>
        <time>2013-11-06T10:21:55.000Z</time>
      </trkpt>
      <trkpt lat="43.67262" lon="1.87828">
        <ele>225.4</ele>
        <time>2013-11-06T10:22:1.000Z</time>
      </trkpt>
      <trkpt lat="43.67261" lon="1.87828">
        <ele>225.3</ele>
        <time>2013-11-06T10:22:2.000Z</time>
      </trkpt>
      <trkpt lat="43.67245" lon="1.87826">
        <ele>226.4</ele>
        <time>2013-11-06T10:22:14.000Z</time>
      </trkpt>
      <trkpt lat="43.67237" lon="1.87826">
        <ele>226.9</ele>
        <time>2013-11-06T10:22:21.000Z</time>
      </trkpt>
      <trkpt lat="43.67229" lon="1.87826">
        <ele>227.1</ele>
        <time>2013-11-06T10:22:27.000Z</time>
      </trkpt>
      <trkpt lat="43.6722" lon="1.87825">
        <ele>227.3</ele>
        <time>2013-11-06T10:22:34.000Z</time>
      </trkpt>
      <trkpt lat="43.67211" lon="1.87823">
        <ele>227.4</ele>
        <time>2013-11-06T10:22:41.000Z</time>
      </trkpt>
      <trkpt lat="43.67203" lon="1.87821">
        <ele>227.7</ele>
        <time>2013-11-06T10:22:48.000Z</time>
      </trkpt>
      <trkpt lat="43.67195" lon="1.87819">
        <ele>228.2</ele>
        <time>2013-11-06T10:22:54.000Z</time>
      </trkpt>
      <trkpt lat="43.67187" lon="1.87818">
        <ele>228.4</ele>
        <time>2013-11-06T10:23:0.000Z</time>
      </trkpt>
      <trkpt lat="43.67179" lon="1.87816">
        <ele>229.3</ele>
        <time>2013-11-06T10:23:6.000Z</time>
      </trkpt>
      <trkpt lat="43.67178" lon="1.87815">
        <ele>229.4</ele>
        <time>2013-11-06T10:23:7.000Z</time>
      </trkpt>
      <trkpt lat="43.67164" lon="1.87811">
        <ele>230.5</ele>
        <time>2013-11-06T10:23:18.000Z</time>
      </trkpt>
      <trkpt lat="43.67157" lon="1.87809">
        <ele>231.5</ele>
        <time>2013-11-06T10:23:24.000Z</time>
      </trkpt>
      <trkpt lat="43.67148" lon="1.87806">
        <ele>232.2</ele>
        <time>2013-11-06T10:23:31.000Z</time>
      </trkpt>
      <trkpt lat="43.67139" lon="1.87804">
        <ele>232.4</ele>
        <time>2013-11-06T10:23:38.000Z</time>
      </trkpt>
      <trkpt lat="43.67131" lon="1.87802">
        <ele>232</ele>
        <time>2013-11-06T10:23:45.000Z</time>
      </trkpt>
      <trkpt lat="43.67123" lon="1.878">
        <ele>231.7</ele>
        <time>2013-11-06T10:23:51.000Z</time>
      </trkpt>
      <trkpt lat="43.67115" lon="1.87799">
        <ele>231.3</ele>
        <time>2013-11-06T10:23:58.000Z</time>
      </trkpt>
      <trkpt lat="43.67107" lon="1.87798">
        <ele>231.2</ele>
        <time>2013-11-06T10:24:5.000Z</time>
      </trkpt>
      <trkpt lat="43.67099" lon="1.87796">
        <ele>230.9</ele>
        <time>2013-11-06T10:24:12.000Z</time>
      </trkpt>
      <trkpt lat="43.67098" lon="1.87796">
        <ele>230.8</ele>
        <time>2013-11-06T10:24:13.000Z</time>
      </trkpt>
      <trkpt lat="43.67082" lon="1.87793">
        <ele>229.3</ele>
        <time>2013-11-06T10:24:28.000Z</time>
      </trkpt>
      <trkpt lat="43.67075" lon="1.8779">
        <ele>228.4</ele>
        <time>2013-11-06T10:24:35.000Z</time>
      </trkpt>
      <trkpt lat="43.67067" lon="1.87787">
        <ele>227.6</ele>
        <time>2013-11-06T10:24:42.000Z</time>
      </trkpt>
      <trkpt lat="43.67059" lon="1.87784">
        <ele>227</ele>
        <time>2013-11-06T10:24:49.000Z</time>
      </trkpt>
      <trkpt lat="43.67052" lon="1.87782">
        <ele>226</ele>
        <time>2013-11-06T10:29:34.000Z</time>
      </trkpt>
      <trkpt lat="43.67051" lon="1.8778">
        <ele>225.8</ele>
        <time>2013-11-06T10:29:35.000Z</time>
      </trkpt>
      <trkpt lat="43.67049" lon="1.87761">
        <ele>226.3</ele>
        <time>2013-11-06T10:29:50.000Z</time>
      </trkpt>
      <trkpt lat="43.67051" lon="1.87749">
        <ele>226.7</ele>
        <time>2013-11-06T10:29:57.000Z</time>
      </trkpt>
      <trkpt lat="43.67053" lon="1.87739">
        <ele>227.2</ele>
        <time>2013-11-06T10:30:4.000Z</time>
      </trkpt>
      <trkpt lat="43.67054" lon="1.87727">
        <ele>227.6</ele>
        <time>2013-11-06T10:30:11.000Z</time>
      </trkpt>
      <trkpt lat="43.67055" lon="1.87715">
        <ele>227.9</ele>
        <time>2013-11-06T10:30:19.000Z</time>
      </trkpt>
      <trkpt lat="43.67057" lon="1.87704">
        <ele>228.6</ele>
        <time>2013-11-06T10:30:26.000Z</time>
      </trkpt>
      <trkpt lat="43.67058" lon="1.87693">
        <ele>228.9</ele>
        <time>2013-11-06T10:30:32.000Z</time>
      </trkpt>
      <trkpt lat="43.67059" lon="1.87681">
        <ele>229.1</ele>
        <time>2013-11-06T10:30:39.000Z</time>
      </trkpt>
      <trkpt lat="43.67059" lon="1.87679">
        <ele>229.1</ele>
        <time>2013-11-06T10:30:40.000Z</time>
      </trkpt>
      <trkpt lat="43.6706" lon="1.87658">
        <ele>229.3</ele>
        <time>2013-11-06T10:30:52.000Z</time>
      </trkpt>
      <trkpt lat="43.67061" lon="1.87647">
        <ele>229.2</ele>
        <time>2013-11-06T10:30:59.000Z</time>
      </trkpt>
      <trkpt lat="43.67063" lon="1.87635">
        <ele>229.1</ele>
        <time>2013-11-06T10:31:6.000Z</time>
      </trkpt>
      <trkpt lat="43.67064" lon="1.87624">
        <ele>228.9</ele>
        <time>2013-11-06T10:31:13.000Z</time>
      </trkpt>
      <trkpt lat="43.67065" lon="1.87613">
        <ele>228.9</ele>
        <time>2013-11-06T10:31:20.000Z</time>
      </trkpt>
      <trkpt lat="43.67066" lon="1.87601">
        <ele>228.8</ele>
        <time>2013-11-06T10:31:27.000Z</time>
      </trkpt>
      <trkpt lat="43.67065" lon="1.87589">
        <ele>228.8</ele>
        <time>2013-11-06T10:31:34.000Z</time>
      </trkpt>
      <trkpt lat="43.6706" lon="1.8758">
        <ele>228.8</ele>
        <time>2013-11-06T10:31:41.000Z</time>
      </trkpt>
      <trkpt lat="43.67059" lon="1.87579">
        <ele>228.5</ele>
        <time>2013-11-06T10:31:42.000Z</time>
      </trkpt>
      <trkpt lat="43.67044" lon="1.87575">
        <ele>229.6</ele>
        <time>2013-11-06T10:31:57.000Z</time>
      </trkpt>
      <trkpt lat="43.67036" lon="1.87574">
        <ele>230.4</ele>
        <time>2013-11-06T10:32:4.000Z</time>
      </trkpt>
      <trkpt lat="43.67028" lon="1.87574">
        <ele>231.1</ele>
        <time>2013-11-06T10:32:11.000Z</time>
      </trkpt>
      <trkpt lat="43.6702" lon="1.87575">
        <ele>231.7</ele>
        <time>2013-11-06T10:32:19.000Z</time>
      </trkpt>
      <trkpt lat="43.67012" lon="1.87576">
        <ele>232.8</ele>
        <time>2013-11-06T10:32:28.000Z</time>
      </trkpt>
      <trkpt lat="43.67003" lon="1.87576">
        <ele>234.2</ele>
        <time>2013-11-06T10:32:37.000Z</time>
      </trkpt>
      <trkpt lat="43.66995" lon="1.87577">
        <ele>235.4</ele>
        <time>2013-11-06T10:32:45.000Z</time>
      </trkpt>
      <trkpt lat="43.66994" lon="1.87577">
        <ele>235.5</ele>
        <time>2013-11-06T10:32:46.000Z</time>
      </trkpt>
      <trkpt lat="43.66979" lon="1.87576">
        <ele>238</ele>
        <time>2013-11-06T10:33:1.000Z</time>
      </trkpt>
      <trkpt lat="43.66971" lon="1.87576">
        <ele>239</ele>
        <time>2013-11-06T10:33:9.000Z</time>
      </trkpt>
      <trkpt lat="43.66962" lon="1.87575">
        <ele>240.3</ele>
        <time>2013-11-06T10:33:17.000Z</time>
      </trkpt>
      <trkpt lat="43.66953" lon="1.87574">
        <ele>241.4</ele>
        <time>2013-11-06T10:33:26.000Z</time>
      </trkpt>
      <trkpt lat="43.66945" lon="1.87573">
        <ele>242.4</ele>
        <time>2013-11-06T10:33:35.000Z</time>
      </trkpt>
      <trkpt lat="43.66936" lon="1.8757">
        <ele>243.9</ele>
        <time>2013-11-06T10:33:45.000Z</time>
      </trkpt>
      <trkpt lat="43.66929" lon="1.87564">
        <ele>244.7</ele>
        <time>2013-11-06T10:33:55.000Z</time>
      </trkpt>
      <trkpt lat="43.66928" lon="1.87564">
        <ele>244.8</ele>
        <time>2013-11-06T10:33:56.000Z</time>
      </trkpt>
      <trkpt lat="43.66921" lon="1.87544">
        <ele>246.1</ele>
        <time>2013-11-06T10:34:12.000Z</time>
      </trkpt>
      <trkpt lat="43.66921" lon="1.87533">
        <ele>246.6</ele>
        <time>2013-11-06T10:34:19.000Z</time>
      </trkpt>
      <trkpt lat="43.66921" lon="1.87521">
        <ele>246.7</ele>
        <time>2013-11-06T10:34:26.000Z</time>
      </trkpt>
      <trkpt lat="43.66922" lon="1.8751">
        <ele>246.8</ele>
        <time>2013-11-06T10:34:33.000Z</time>
      </trkpt>
      <trkpt lat="43.66923" lon="1.87499">
        <ele>246.9</ele>
        <time>2013-11-06T10:34:40.000Z</time>
      </trkpt>
      <trkpt lat="43.66924" lon="1.87487">
        <ele>247.1</ele>
        <time>2013-11-06T10:34:47.000Z</time>
      </trkpt>
      <trkpt lat="43.66925" lon="1.87476">
        <ele>247</ele>
        <time>2013-11-06T10:34:54.000Z</time>
      </trkpt>
      <trkpt lat="43.66928" lon="1.87464">
        <ele>246.3</ele>
        <time>2013-11-06T10:35:1.000Z</time>
      </trkpt>
      <trkpt lat="43.66928" lon="1.87462">
        <ele>246.2</ele>
        <time>2013-11-06T10:35:2.000Z</time>
      </trkpt>
      <trkpt lat="43.66934" lon="1.87443">
        <ele>245.6</ele>
        <time>2013-11-06T10:35:14.000Z</time>
      </trkpt>
      <trkpt lat="43.66938" lon="1.87432">
        <ele>244.7</ele>
        <time>2013-11-06T10:35:21.000Z</time>
      </trkpt>
      <trkpt lat="43.6694" lon="1.8742">
        <ele>244.8</ele>
        <time>2013-11-06T10:35:28.000Z</time>
      </trkpt>
      <trkpt lat="43.66939" lon="1.87408">
        <ele>244.2</ele>
        <time>2013-11-06T10:35:35.000Z</time>
      </trkpt>
      <trkpt lat="43.66934" lon="1.87398">
        <ele>244.4</ele>
        <time>2013-11-06T10:35:42.000Z</time>
      </trkpt>
      <trkpt lat="43.66927" lon="1.87392">
        <ele>245.2</ele>
        <time>2013-11-06T10:35:49.000Z</time>
      </trkpt>
      <trkpt lat="43.66919" lon="1.87388">
        <ele>245.3</ele>
        <time>2013-11-06T10:35:55.000Z</time>
      </trkpt>
      <trkpt lat="43.66911" lon="1.87384">
        <ele>245.4</ele>
        <time>2013-11-06T10:36:2.000Z</time>
      </trkpt>
      <trkpt lat="43.6691" lon="1.87383">
        <ele>245.4</ele>
        <time>2013-11-06T10:36:3.000Z</time>
      </trkpt>
      <trkpt lat="43.66894" lon="1.87378">
        <ele>245.3</ele>
        <time>2013-11-06T10:36:16.000Z</time>
      </trkpt>
      <trkpt lat="43.66886" lon="1.87375">
        <ele>245.6</ele>
        <time>2013-11-06T10:36:23.000Z</time>
      </trkpt>
      <trkpt lat="43.66877" lon="1.87373">
        <ele>245</ele>
        <time>2013-11-06T10:36:30.000Z</time>
      </trkpt>
      <trkpt lat="43.66869" lon="1.87371">
        <ele>244.7</ele>
        <time>2013-11-06T10:36:37.000Z</time>
      </trkpt>
      <trkpt lat="43.6686" lon="1.87369">
        <ele>244.6</ele>
        <time>2013-11-06T10:36:44.000Z</time>
      </trkpt>
      <trkpt lat="43.66853" lon="1.87367">
        <ele>244.2</ele>
        <time>2013-11-06T10:36:50.000Z</time>
      </trkpt>
      <trkpt lat="43.66845" lon="1.87365">
        <ele>243.7</ele>
        <time>2013-11-06T10:36:56.000Z</time>
      </trkpt>
      <trkpt lat="43.66836" lon="1.87362">
        <ele>243.3</ele>
        <time>2013-11-06T10:37:3.000Z</time>
      </trkpt>
      <trkpt lat="43.66835" lon="1.87361">
        <ele>243.4</ele>
        <time>2013-11-06T10:37:4.000Z</time>
      </trkpt>
      <trkpt lat="43.66821" lon="1.87354">
        <ele>242.7</ele>
        <time>2013-11-06T10:37:16.000Z</time>
      </trkpt>
      <trkpt lat="43.66813" lon="1.8735">
        <ele>242.6</ele>
        <time>2013-11-06T10:37:22.000Z</time>
      </trkpt>
      <trkpt lat="43.66806" lon="1.87346">
        <ele>242.8</ele>
        <time>2013-11-06T10:37:29.000Z</time>
      </trkpt>
      <trkpt lat="43.66797" lon="1.87341">
        <ele>242.1</ele>
        <time>2013-11-06T10:37:36.000Z</time>
      </trkpt>
      <trkpt lat="43.66789" lon="1.87337">
        <ele>241.2</ele>
        <time>2013-11-06T10:37:43.000Z</time>
      </trkpt>
      <trkpt lat="43.66783" lon="1.87345">
        <ele>239.2</ele>
        <time>2013-11-06T10:37:54.000Z</time>
      </trkpt>
      <trkpt lat="43.66786" lon="1.87355">
        <ele>238.3</ele>
        <time>2013-11-06T10:38:4.000Z</time>
      </trkpt>
      <trkpt lat="43.66787" lon="1.87357">
        <ele>238.2</ele>
        <time>2013-11-06T10:38:5.000Z</time>
      </trkpt>
      <trkpt lat="43.66793" lon="1.87377">
        <ele>237.3</ele>
        <time>2013-11-06T10:38:20.000Z</time>
      </trkpt>
      <trkpt lat="43.66796" lon="1.87388">
        <ele>237.2</ele>
        <time>2013-11-06T10:38:27.000Z</time>
      </trkpt>
      <trkpt lat="43.66798" lon="1.87399">
        <ele>236.9</ele>
        <time>2013-11-06T10:38:34.000Z</time>
      </trkpt>
      <trkpt lat="43.668" lon="1.87411">
        <ele>236.6</ele>
        <time>2013-11-06T10:38:41.000Z</time>
      </trkpt>
      <trkpt lat="43.66802" lon="1.87423">
        <ele>236.2</ele>
        <time>2013-11-06T10:38:48.000Z</time>
      </trkpt>
      <trkpt lat="43.66803" lon="1.87434">
        <ele>235.6</ele>
        <time>2013-11-06T10:38:55.000Z</time>
      </trkpt>
      <trkpt lat="43.66804" lon="1.87446">
        <ele>234.7</ele>
        <time>2013-11-06T10:39:3.000Z</time>
      </trkpt>
      <trkpt lat="43.66804" lon="1.87458">
        <ele>234.2</ele>
        <time>2013-11-06T10:39:11.000Z</time>
      </trkpt>
      <trkpt lat="43.66803" lon="1.87459">
        <ele>234.1</ele>
        <time>2013-11-06T10:39:12.000Z</time>
      </trkpt>
      <trkpt lat="43.66799" lon="1.87479">
        <ele>233.5</ele>
        <time>2013-11-06T10:39:25.000Z</time>
      </trkpt>
      <trkpt lat="43.66795" lon="1.8749">
        <ele>233.1</ele>
        <time>2013-11-06T10:39:32.000Z</time>
      </trkpt>
      <trkpt lat="43.66791" lon="1.875">
        <ele>233</ele>
        <time>2013-11-06T10:39:39.000Z</time>
      </trkpt>
      <trkpt lat="43.66786" lon="1.8751">
        <ele>232.6</ele>
        <time>2013-11-06T10:39:46.000Z</time>
      </trkpt>
      <trkpt lat="43.66781" lon="1.87518">
        <ele>232</ele>
        <time>2013-11-06T10:39:53.000Z</time>
      </trkpt>
      <trkpt lat="43.66774" lon="1.87525">
        <ele>232.1</ele>
        <time>2013-11-06T10:40:0.000Z</time>
      </trkpt>
      <trkpt lat="43.66767" lon="1.87531">
        <ele>232.1</ele>
        <time>2013-11-06T10:40:7.000Z</time>
      </trkpt>
      <trkpt lat="43.6676" lon="1.87536">
        <ele>232.1</ele>
        <time>2013-11-06T10:40:13.000Z</time>
      </trkpt>
      <trkpt lat="43.66759" lon="1.87537">
        <ele>231.9</ele>
        <time>2013-11-06T10:40:14.000Z</time>
      </trkpt>
      <trkpt lat="43.66744" lon="1.87544">
        <ele>231.7</ele>
        <time>2013-11-06T10:40:27.000Z</time>
      </trkpt>
      <trkpt lat="43.66736" lon="1.87548">
        <ele>231.4</ele>
        <time>2013-11-06T10:40:34.000Z</time>
      </trkpt>
      <trkpt lat="43.66729" lon="1.87552">
        <ele>230.6</ele>
        <time>2013-11-06T10:40:41.000Z</time>
      </trkpt>
      <trkpt lat="43.66721" lon="1.87557">
        <ele>230.3</ele>
        <time>2013-11-06T10:40:48.000Z</time>
      </trkpt>
      <trkpt lat="43.66714" lon="1.87563">
        <ele>230</ele>
        <time>2013-11-06T10:40:55.000Z</time>
      </trkpt>
      <trkpt lat="43.66708" lon="1.8757">
        <ele>229.4</ele>
        <time>2013-11-06T10:41:2.000Z</time>
      </trkpt>
      <trkpt lat="43.66703" lon="1.87579">
        <ele>229.1</ele>
        <time>2013-11-06T10:41:9.000Z</time>
      </trkpt>
      <trkpt lat="43.66698" lon="1.87588">
        <ele>229</ele>
        <time>2013-11-06T10:41:16.000Z</time>
      </trkpt>
      <trkpt lat="43.66697" lon="1.87589">
        <ele>229.1</ele>
        <time>2013-11-06T10:41:17.000Z</time>
      </trkpt>
      <trkpt lat="43.66687" lon="1.87604">
        <ele>229</ele>
        <time>2013-11-06T10:41:30.000Z</time>
      </trkpt>
      <trkpt lat="43.66681" lon="1.87612">
        <ele>229</ele>
        <time>2013-11-06T10:41:37.000Z</time>
      </trkpt>
      <trkpt lat="43.66674" lon="1.8762">
        <ele>229.2</ele>
        <time>2013-11-06T10:41:45.000Z</time>
      </trkpt>
      <trkpt lat="43.66667" lon="1.87628">
        <ele>228.9</ele>
        <time>2013-11-06T10:41:52.000Z</time>
      </trkpt>
      <trkpt lat="43.66661" lon="1.87635">
        <ele>228.5</ele>
        <time>2013-11-06T10:41:59.000Z</time>
      </trkpt>
      <trkpt lat="43.66655" lon="1.87642">
        <ele>228.8</ele>
        <time>2013-11-06T10:42:6.000Z</time>
      </trkpt>
      <trkpt lat="43.66647" lon="1.87649">
        <ele>228.6</ele>
        <time>2013-11-06T10:42:14.000Z</time>
      </trkpt>
      <trkpt lat="43.66641" lon="1.87656">
        <ele>228.6</ele>
        <time>2013-11-06T10:42:20.000Z</time>
      </trkpt>
      <trkpt lat="43.6664" lon="1.87657">
        <ele>228.6</ele>
        <time>2013-11-06T10:42:21.000Z</time>
      </trkpt>
      <trkpt lat="43.66628" lon="1.87671">
        <ele>228.7</ele>
        <time>2013-11-06T10:42:34.000Z</time>
      </trkpt>
      <trkpt lat="43.66621" lon="1.87679">
        <ele>229.1</ele>
        <time>2013-11-06T10:42:41.000Z</time>
      </trkpt>
      <trkpt lat="43.66615" lon="1.87687">
        <ele>229.5</ele>
        <time>2013-11-06T10:42:48.000Z</time>
      </trkpt>
      <trkpt lat="43.66608" lon="1.87695">
        <ele>229.6</ele>
        <time>2013-11-06T10:42:55.000Z</time>
      </trkpt>
      <trkpt lat="43.66602" lon="1.87702">
        <ele>229.7</ele>
        <time>2013-11-06T10:43:2.000Z</time>
      </trkpt>
      <trkpt lat="43.66595" lon="1.87709">
        <ele>230.4</ele>
        <time>2013-11-06T10:43:9.000Z</time>
      </trkpt>
      <trkpt lat="43.66589" lon="1.87716">
        <ele>231.1</ele>
        <time>2013-11-06T10:43:16.000Z</time>
      </trkpt>
      <trkpt lat="43.66582" lon="1.87723">
        <ele>231.8</ele>
        <time>2013-11-06T10:43:24.000Z</time>
      </trkpt>
      <trkpt lat="43.66581" lon="1.87724">
        <ele>231.9</ele>
        <time>2013-11-06T10:43:25.000Z</time>
      </trkpt>
      <trkpt lat="43.6657" lon="1.87737">
        <ele>232.6</ele>
        <time>2013-11-06T10:43:37.000Z</time>
      </trkpt>
      <trkpt lat="43.66563" lon="1.87744">
        <ele>232.8</ele>
        <time>2013-11-06T10:43:44.000Z</time>
      </trkpt>
      <trkpt lat="43.66555" lon="1.87751">
        <ele>233</ele>
        <time>2013-11-06T10:43:51.000Z</time>
      </trkpt>
      <trkpt lat="43.66548" lon="1.87759">
        <ele>233.3</ele>
        <time>2013-11-06T10:43:59.000Z</time>
      </trkpt>
      <trkpt lat="43.66542" lon="1.87766">
        <ele>233.7</ele>
        <time>2013-11-06T10:44:6.000Z</time>
      </trkpt>
      <trkpt lat="43.66536" lon="1.87773">
        <ele>234.2</ele>
        <time>2013-11-06T10:44:13.000Z</time>
      </trkpt>
      <trkpt lat="43.6653" lon="1.8778">
        <ele>234.8</ele>
        <time>2013-11-06T10:44:20.000Z</time>
      </trkpt>
      <trkpt lat="43.66522" lon="1.87786">
        <ele>235.4</ele>
        <time>2013-11-06T10:44:27.000Z</time>
      </trkpt>
      <trkpt lat="43.66522" lon="1.87786">
        <ele>235.6</ele>
        <time>2013-11-06T10:44:28.000Z</time>
      </trkpt>
      <trkpt lat="43.66507" lon="1.87795">
        <ele>237</ele>
        <time>2013-11-06T10:44:41.000Z</time>
      </trkpt>
      <trkpt lat="43.66499" lon="1.87797">
        <ele>237.6</ele>
        <time>2013-11-06T10:44:49.000Z</time>
      </trkpt>
      <trkpt lat="43.6649" lon="1.87799">
        <ele>238.5</ele>
        <time>2013-11-06T10:44:57.000Z</time>
      </trkpt>
      <trkpt lat="43.66482" lon="1.878">
        <ele>238.8</ele>
        <time>2013-11-06T10:45:4.000Z</time>
      </trkpt>
      <trkpt lat="43.66473" lon="1.87802">
        <ele>239.3</ele>
        <time>2013-11-06T10:45:11.000Z</time>
      </trkpt>
      <trkpt lat="43.66464" lon="1.87801">
        <ele>239.2</ele>
        <time>2013-11-06T10:45:18.000Z</time>
      </trkpt>
      <trkpt lat="43.66456" lon="1.87799">
        <ele>239.3</ele>
        <time>2013-11-06T10:45:24.000Z</time>
      </trkpt>
      <trkpt lat="43.66448" lon="1.87796">
        <ele>239.5</ele>
        <time>2013-11-06T10:45:30.000Z</time>
      </trkpt>
      <trkpt lat="43.66447" lon="1.87796">
        <ele>239.6</ele>
        <time>2013-11-06T10:45:31.000Z</time>
      </trkpt>
      <trkpt lat="43.66431" lon="1.8779">
        <ele>239.6</ele>
        <time>2013-11-06T10:45:43.000Z</time>
      </trkpt>
      <trkpt lat="43.66423" lon="1.87789">
        <ele>239.5</ele>
        <time>2013-11-06T10:45:50.000Z</time>
      </trkpt>
      <trkpt lat="43.66414" lon="1.87789">
        <ele>239.4</ele>
        <time>2013-11-06T10:45:57.000Z</time>
      </trkpt>
      <trkpt lat="43.66406" lon="1.87788">
        <ele>239.2</ele>
        <time>2013-11-06T10:46:4.000Z</time>
      </trkpt>
      <trkpt lat="43.66397" lon="1.87788">
        <ele>239.1</ele>
        <time>2013-11-06T10:46:11.000Z</time>
      </trkpt>
      <trkpt lat="43.66388" lon="1.87788">
        <ele>239</ele>
        <time>2013-11-06T10:46:18.000Z</time>
      </trkpt>
      <trkpt lat="43.6638" lon="1.87788">
        <ele>239</ele>
        <time>2013-11-06T10:46:25.000Z</time>
      </trkpt>
      <trkpt lat="43.66371" lon="1.8779">
        <ele>239.1</ele>
        <time>2013-11-06T10:46:32.000Z</time>
      </trkpt>
      <trkpt lat="43.6637" lon="1.8779">
        <ele>239.2</ele>
        <time>2013-11-06T10:46:33.000Z</time>
      </trkpt>
      <trkpt lat="43.66354" lon="1.87794">
        <ele>239.6</ele>
        <time>2013-11-06T10:46:53.000Z</time>
      </trkpt>
      <trkpt lat="43.6635" lon="1.87784">
        <ele>239.8</ele>
        <time>2013-11-06T10:47:17.000Z</time>
      </trkpt>
      <trkpt lat="43.66347" lon="1.87772">
        <ele>240.1</ele>
        <time>2013-11-06T10:47:25.000Z</time>
      </trkpt>
      <trkpt lat="43.66348" lon="1.87761">
        <ele>240.6</ele>
        <time>2013-11-06T10:47:33.000Z</time>
      </trkpt>
      <trkpt lat="43.66348" lon="1.87759">
        <ele>240.4</ele>
        <time>2013-11-06T10:47:34.000Z</time>
      </trkpt>
      <trkpt lat="43.66353" lon="1.87737">
        <ele>240.9</ele>
        <time>2013-11-06T10:47:49.000Z</time>
      </trkpt>
      <trkpt lat="43.66356" lon="1.87726">
        <ele>241.2</ele>
        <time>2013-11-06T10:47:57.000Z</time>
      </trkpt>
      <trkpt lat="43.66358" lon="1.87714">
        <ele>240.6</ele>
        <time>2013-11-06T10:48:5.000Z</time>
      </trkpt>
      <trkpt lat="43.66359" lon="1.87703">
        <ele>240.5</ele>
        <time>2013-11-06T10:48:12.000Z</time>
      </trkpt>
      <trkpt lat="43.66361" lon="1.87692">
        <ele>239.7</ele>
        <time>2013-11-06T10:48:19.000Z</time>
      </trkpt>
      <trkpt lat="43.6636" lon="1.87679">
        <ele>239</ele>
        <time>2013-11-06T10:48:26.000Z</time>
      </trkpt>
      <trkpt lat="43.66359" lon="1.87668">
        <ele>238.1</ele>
        <time>2013-11-06T10:48:33.000Z</time>
      </trkpt>
      <trkpt lat="43.66353" lon="1.87659">
        <ele>237.4</ele>
        <time>2013-11-06T10:48:40.000Z</time>
      </trkpt>
      <trkpt lat="43.66352" lon="1.87659">
        <ele>237.4</ele>
        <time>2013-11-06T10:48:41.000Z</time>
      </trkpt>
      <trkpt lat="43.66339" lon="1.87653">
        <ele>236</ele>
        <time>2013-11-06T10:48:54.000Z</time>
      </trkpt>
      <trkpt lat="43.6633" lon="1.87653">
        <ele>234.6</ele>
        <time>2013-11-06T10:49:1.000Z</time>
      </trkpt>
      <trkpt lat="43.66321" lon="1.87654">
        <ele>232.7</ele>
        <time>2013-11-06T10:49:9.000Z</time>
      </trkpt>
      <trkpt lat="43.66313" lon="1.87652">
        <ele>232</ele>
        <time>2013-11-06T10:49:16.000Z</time>
      </trkpt>
      <trkpt lat="43.66304" lon="1.87651">
        <ele>230.2</ele>
        <time>2013-11-06T10:49:24.000Z</time>
      </trkpt>
      <trkpt lat="43.66296" lon="1.87651">
        <ele>229.2</ele>
        <time>2013-11-06T10:49:31.000Z</time>
      </trkpt>
      <trkpt lat="43.66288" lon="1.8765">
        <ele>227.9</ele>
        <time>2013-11-06T10:49:38.000Z</time>
      </trkpt>
      <trkpt lat="43.66279" lon="1.87649">
        <ele>226.5</ele>
        <time>2013-11-06T10:49:45.000Z</time>
      </trkpt>
      <trkpt lat="43.66278" lon="1.87648">
        <ele>226.5</ele>
        <time>2013-11-06T10:49:46.000Z</time>
      </trkpt>
      <trkpt lat="43.66263" lon="1.87646">
        <ele>224.2</ele>
        <time>2013-11-06T10:49:59.000Z</time>
      </trkpt>
      <trkpt lat="43.66255" lon="1.87645">
        <ele>223</ele>
        <time>2013-11-06T10:50:6.000Z</time>
      </trkpt>
      <trkpt lat="43.66246" lon="1.87644">
        <ele>221.8</ele>
        <time>2013-11-06T10:50:13.000Z</time>
      </trkpt>
      <trkpt lat="43.66238" lon="1.87643">
        <ele>220.7</ele>
        <time>2013-11-06T10:50:20.000Z</time>
      </trkpt>
      <trkpt lat="43.6623" lon="1.87641">
        <ele>220</ele>
        <time>2013-11-06T10:50:27.000Z</time>
      </trkpt>
      <trkpt lat="43.66222" lon="1.8764">
        <ele>219.6</ele>
        <time>2013-11-06T10:50:34.000Z</time>
      </trkpt>
      <trkpt lat="43.66214" lon="1.87639">
        <ele>218.5</ele>
        <time>2013-11-06T10:50:41.000Z</time>
      </trkpt>
      <trkpt lat="43.66206" lon="1.87639">
        <ele>217.7</ele>
        <time>2013-11-06T10:50:47.000Z</time>
      </trkpt>
      <trkpt lat="43.66205" lon="1.87639">
        <ele>217.5</ele>
        <time>2013-11-06T10:50:48.000Z</time>
      </trkpt>
      <trkpt lat="43.66189" lon="1.87642">
        <ele>215.6</ele>
        <time>2013-11-06T10:51:1.000Z</time>
      </trkpt>
      <trkpt lat="43.66181" lon="1.87643">
        <ele>214.8</ele>
        <time>2013-11-06T10:51:8.000Z</time>
      </trkpt>
      <trkpt lat="43.66173" lon="1.87644">
        <ele>213.9</ele>
        <time>2013-11-06T10:51:15.000Z</time>
      </trkpt>
      <trkpt lat="43.66164" lon="1.87645">
        <ele>212.5</ele>
        <time>2013-11-06T10:51:23.000Z</time>
      </trkpt>
      <trkpt lat="43.66156" lon="1.87645">
        <ele>210.5</ele>
        <time>2013-11-06T10:51:32.000Z</time>
      </trkpt>
      <trkpt lat="43.66148" lon="1.8764">
        <ele>208.5</ele>
        <time>2013-11-06T10:51:40.000Z</time>
      </trkpt>
      <trkpt lat="43.6614" lon="1.87637">
        <ele>206.7</ele>
        <time>2013-11-06T10:51:47.000Z</time>
      </trkpt>
      <trkpt lat="43.66133" lon="1.87633">
        <ele>205.4</ele>
        <time>2013-11-06T10:51:53.000Z</time>
      </trkpt>
      <trkpt lat="43.66131" lon="1.87632">
        <ele>205.3</ele>
        <time>2013-11-06T10:51:54.000Z</time>
      </trkpt>
      <trkpt lat="43.66122" lon="1.87616">
        <ele>203</ele>
        <time>2013-11-06T10:52:4.000Z</time>
      </trkpt>
      <trkpt lat="43.6612" lon="1.87604">
        <ele>201.5</ele>
        <time>2013-11-06T10:52:11.000Z</time>
      </trkpt>
      <trkpt lat="43.66117" lon="1.87593">
        <ele>200</ele>
        <time>2013-11-06T10:52:18.000Z</time>
      </trkpt>
      <trkpt lat="43.66115" lon="1.87581">
        <ele>198.1</ele>
        <time>2013-11-06T10:52:25.000Z</time>
      </trkpt>
      <trkpt lat="43.66114" lon="1.8757">
        <ele>196.5</ele>
        <time>2013-11-06T10:52:32.000Z</time>
      </trkpt>
      <trkpt lat="43.66112" lon="1.87558">
        <ele>194.9</ele>
        <time>2013-11-06T10:52:39.000Z</time>
      </trkpt>
      <trkpt lat="43.66111" lon="1.87547">
        <ele>193.2</ele>
        <time>2013-11-06T10:52:46.000Z</time>
      </trkpt>
      <trkpt lat="43.66108" lon="1.87535">
        <ele>191.8</ele>
        <time>2013-11-06T10:52:53.000Z</time>
      </trkpt>
      <trkpt lat="43.66105" lon="1.87524">
        <ele>191.5</ele>
        <time>2013-11-06T10:53:1.000Z</time>
      </trkpt>
      <trkpt lat="43.66104" lon="1.87523">
        <ele>191.5</ele>
        <time>2013-11-06T10:53:2.000Z</time>
      </trkpt>
      <trkpt lat="43.66089" lon="1.87531">
        <ele>191.4</ele>
        <time>2013-11-06T10:53:16.000Z</time>
      </trkpt>
      <trkpt lat="43.66081" lon="1.87535">
        <ele>191.4</ele>
        <time>2013-11-06T10:53:23.000Z</time>
      </trkpt>
      <trkpt lat="43.66073" lon="1.87539">
        <ele>191.9</ele>
        <time>2013-11-06T10:53:30.000Z</time>
      </trkpt>
      <trkpt lat="43.66066" lon="1.87543">
        <ele>191.9</ele>
        <time>2013-11-06T10:53:37.000Z</time>
      </trkpt>
      <trkpt lat="43.66058" lon="1.87547">
        <ele>192</ele>
        <time>2013-11-06T10:53:44.000Z</time>
      </trkpt>
      <trkpt lat="43.6605" lon="1.8755">
        <ele>192</ele>
        <time>2013-11-06T10:53:51.000Z</time>
      </trkpt>
      <trkpt lat="43.66043" lon="1.87554">
        <ele>192.4</ele>
        <time>2013-11-06T10:53:58.000Z</time>
      </trkpt>
      <trkpt lat="43.66034" lon="1.87557">
        <ele>192.9</ele>
        <time>2013-11-06T10:54:5.000Z</time>
      </trkpt>
      <trkpt lat="43.66033" lon="1.87558">
        <ele>193.1</ele>
        <time>2013-11-06T10:54:6.000Z</time>
      </trkpt>
      <trkpt lat="43.66018" lon="1.87565">
        <ele>193.1</ele>
        <time>2013-11-06T10:54:20.000Z</time>
      </trkpt>
      <trkpt lat="43.6601" lon="1.87569">
        <ele>193.6</ele>
        <time>2013-11-06T10:54:27.000Z</time>
      </trkpt>
      <trkpt lat="43.66002" lon="1.87574">
        <ele>193.8</ele>
        <time>2013-11-06T10:54:35.000Z</time>
      </trkpt>
      <trkpt lat="43.65995" lon="1.8758">
        <ele>194.6</ele>
        <time>2013-11-06T10:54:42.000Z</time>
      </trkpt>
      <trkpt lat="43.65988" lon="1.87587">
        <ele>195.4</ele>
        <time>2013-11-06T10:54:49.000Z</time>
      </trkpt>
      <trkpt lat="43.65983" lon="1.87595">
        <ele>196.4</ele>
        <time>2013-11-06T10:54:56.000Z</time>
      </trkpt>
      <trkpt lat="43.65977" lon="1.87604">
        <ele>196.7</ele>
        <time>2013-11-06T10:55:4.000Z</time>
      </trkpt>
      <trkpt lat="43.65971" lon="1.87613">
        <ele>196.9</ele>
        <time>2013-11-06T10:55:11.000Z</time>
      </trkpt>
      <trkpt lat="43.65971" lon="1.87614">
        <ele>197.1</ele>
        <time>2013-11-06T10:55:12.000Z</time>
      </trkpt>
      <trkpt lat="43.65961" lon="1.8763">
        <ele>196.9</ele>
        <time>2013-11-06T10:55:25.000Z</time>
      </trkpt>
      <trkpt lat="43.65955" lon="1.87639">
        <ele>197.1</ele>
        <time>2013-11-06T10:55:32.000Z</time>
      </trkpt>
      <trkpt lat="43.65949" lon="1.87648">
        <ele>197.1</ele>
        <time>2013-11-06T10:55:39.000Z</time>
      </trkpt>
      <trkpt lat="43.65944" lon="1.87657">
        <ele>197.6</ele>
        <time>2013-11-06T10:55:46.000Z</time>
      </trkpt>
      <trkpt lat="43.6594" lon="1.87667">
        <ele>197.6</ele>
        <time>2013-11-06T10:55:53.000Z</time>
      </trkpt>
      <trkpt lat="43.65936" lon="1.87677">
        <ele>197.6</ele>
        <time>2013-11-06T10:56:0.000Z</time>
      </trkpt>
      <trkpt lat="43.65932" lon="1.87688">
        <ele>197.2</ele>
        <time>2013-11-06T10:56:7.000Z</time>
      </trkpt>
      <trkpt lat="43.65928" lon="1.87698">
        <ele>197.5</ele>
        <time>2013-11-06T10:56:14.000Z</time>
      </trkpt>
      <trkpt lat="43.65928" lon="1.877">
        <ele>197.5</ele>
        <time>2013-11-06T10:56:15.000Z</time>
      </trkpt>
      <trkpt lat="43.65922" lon="1.8772">
        <ele>198.5</ele>
        <time>2013-11-06T10:56:29.000Z</time>
      </trkpt>
      <trkpt lat="43.65919" lon="1.87731">
        <ele>198.5</ele>
        <time>2013-11-06T10:56:37.000Z</time>
      </trkpt>
      <trkpt lat="43.65915" lon="1.87741">
        <ele>198.8</ele>
        <time>2013-11-06T10:56:44.000Z</time>
      </trkpt>
      <trkpt lat="43.65912" lon="1.87752">
        <ele>199.7</ele>
        <time>2013-11-06T10:56:51.000Z</time>
      </trkpt>
      <trkpt lat="43.65909" lon="1.87763">
        <ele>200</ele>
        <time>2013-11-06T10:56:58.000Z</time>
      </trkpt>
      <trkpt lat="43.65906" lon="1.87774">
        <ele>199.7</ele>
        <time>2013-11-06T10:57:5.000Z</time>
      </trkpt>
      <trkpt lat="43.65903" lon="1.87784">
        <ele>199.7</ele>
        <time>2013-11-06T10:57:11.000Z</time>
      </trkpt>
      <trkpt lat="43.659" lon="1.87794">
        <ele>200.1</ele>
        <time>2013-11-06T10:57:18.000Z</time>
      </trkpt>
      <trkpt lat="43.65899" lon="1.87796">
        <ele>200.1</ele>
        <time>2013-11-06T10:57:19.000Z</time>
      </trkpt>
      <trkpt lat="43.65894" lon="1.87816">
        <ele>200.7</ele>
        <time>2013-11-06T10:57:32.000Z</time>
      </trkpt>
      <trkpt lat="43.65892" lon="1.87827">
        <ele>200.7</ele>
        <time>2013-11-06T10:57:39.000Z</time>
      </trkpt>
      <trkpt lat="43.65888" lon="1.87838">
        <ele>201</ele>
        <time>2013-11-06T10:57:46.000Z</time>
      </trkpt>
      <trkpt lat="43.65885" lon="1.87848">
        <ele>201.4</ele>
        <time>2013-11-06T10:57:53.000Z</time>
      </trkpt>
      <trkpt lat="43.65883" lon="1.8786">
        <ele>201.4</ele>
        <time>2013-11-06T10:58:0.000Z</time>
      </trkpt>
      <trkpt lat="43.6588" lon="1.87871">
        <ele>202</ele>
        <time>2013-11-06T10:58:7.000Z</time>
      </trkpt>
      <trkpt lat="43.65877" lon="1.87881">
        <ele>202.2</ele>
        <time>2013-11-06T10:58:14.000Z</time>
      </trkpt>
      <trkpt lat="43.65875" lon="1.87892">
        <ele>202.4</ele>
        <time>2013-11-06T10:58:21.000Z</time>
      </trkpt>
      <trkpt lat="43.65874" lon="1.87893">
        <ele>202.5</ele>
        <time>2013-11-06T10:58:22.000Z</time>
      </trkpt>
      <trkpt lat="43.65863" lon="1.87908">
        <ele>202.9</ele>
        <time>2013-11-06T10:58:35.000Z</time>
      </trkpt>
      <trkpt lat="43.65855" lon="1.87914">
        <ele>202.8</ele>
        <time>2013-11-06T10:58:41.000Z</time>
      </trkpt>
      <trkpt lat="43.65848" lon="1.87921">
        <ele>202.9</ele>
        <time>2013-11-06T10:58:48.000Z</time>
      </trkpt>
      <trkpt lat="43.65841" lon="1.87926">
        <ele>203.2</ele>
        <time>2013-11-06T10:58:54.000Z</time>
      </trkpt>
      <trkpt lat="43.65833" lon="1.87931">
        <ele>203.4</ele>
        <time>2013-11-06T10:59:1.000Z</time>
      </trkpt>
      <trkpt lat="43.65825" lon="1.87937">
        <ele>203.6</ele>
        <time>2013-11-06T10:59:8.000Z</time>
      </trkpt>
      <trkpt lat="43.65818" lon="1.87943">
        <ele>203.9</ele>
        <time>2013-11-06T10:59:15.000Z</time>
      </trkpt>
      <trkpt lat="43.65811" lon="1.87949">
        <ele>204.1</ele>
        <time>2013-11-06T10:59:22.000Z</time>
      </trkpt>
      <trkpt lat="43.6581" lon="1.8795">
        <ele>204</ele>
        <time>2013-11-06T10:59:23.000Z</time>
      </trkpt>
      <trkpt lat="43.65797" lon="1.87959">
        <ele>204.3</ele>
        <time>2013-11-06T10:59:34.000Z</time>
      </trkpt>
      <trkpt lat="43.6579" lon="1.87964">
        <ele>204.2</ele>
        <time>2013-11-06T10:59:40.000Z</time>
      </trkpt>
      <trkpt lat="43.65783" lon="1.8797">
        <ele>204.2</ele>
        <time>2013-11-06T10:59:47.000Z</time>
      </trkpt>
      <trkpt lat="43.65776" lon="1.87975">
        <ele>204.5</ele>
        <time>2013-11-06T10:59:54.000Z</time>
      </trkpt>
      <trkpt lat="43.65769" lon="1.87981">
        <ele>204.7</ele>
        <time>2013-11-06T11:00:1.000Z</time>
      </trkpt>
      <trkpt lat="43.65761" lon="1.87987">
        <ele>205.2</ele>
        <time>2013-11-06T11:00:8.000Z</time>
      </trkpt>
      <trkpt lat="43.65754" lon="1.87994">
        <ele>206.4</ele>
        <time>2013-11-06T11:00:15.000Z</time>
      </trkpt>
      <trkpt lat="43.65746" lon="1.87994">
        <ele>206.4</ele>
        <time>2013-11-06T11:00:23.000Z</time>
      </trkpt>
      <trkpt lat="43.65745" lon="1.87993">
        <ele>206.4</ele>
        <time>2013-11-06T11:00:24.000Z</time>
      </trkpt>
      <trkpt lat="43.65735" lon="1.87986">
        <ele>204</ele>
        <time>2013-11-06T11:02:11.000Z</time>
      </trkpt>
      <trkpt lat="43.6573" lon="1.87971">
        <ele>201.7</ele>
        <time>2013-11-06T11:02:54.000Z</time>
      </trkpt>
      <trkpt lat="43.65728" lon="1.87959">
        <ele>205.7</ele>
        <time>2013-11-06T11:03:52.000Z</time>
      </trkpt>
      <trkpt lat="43.65727" lon="1.87958">
        <ele>205.5</ele>
        <time>2013-11-06T11:03:53.000Z</time>
      </trkpt>
      <trkpt lat="43.65732" lon="1.87937">
        <ele>205.4</ele>
        <time>2013-11-06T11:04:11.000Z</time>
      </trkpt>
      <trkpt lat="43.65736" lon="1.87926">
        <ele>206.1</ele>
        <time>2013-11-06T11:04:19.000Z</time>
      </trkpt>
      <trkpt lat="43.65739" lon="1.87916">
        <ele>206.4</ele>
        <time>2013-11-06T11:04:26.000Z</time>
      </trkpt>
      <trkpt lat="43.65743" lon="1.87905">
        <ele>206.7</ele>
        <time>2013-11-06T11:04:34.000Z</time>
      </trkpt>
      <trkpt lat="43.65748" lon="1.87896">
        <ele>206.9</ele>
        <time>2013-11-06T11:04:41.000Z</time>
      </trkpt>
      <trkpt lat="43.65752" lon="1.87885">
        <ele>207.4</ele>
        <time>2013-11-06T11:04:49.000Z</time>
      </trkpt>
      <trkpt lat="43.65755" lon="1.87874">
        <ele>208</ele>
        <time>2013-11-06T11:04:57.000Z</time>
      </trkpt>
      <trkpt lat="43.65755" lon="1.87872">
        <ele>208.2</ele>
        <time>2013-11-06T11:04:58.000Z</time>
      </trkpt>
      <trkpt lat="43.65762" lon="1.87853">
        <ele>208.9</ele>
        <time>2013-11-06T11:05:15.000Z</time>
      </trkpt>
      <trkpt lat="43.65764" lon="1.87842">
        <ele>209</ele>
        <time>2013-11-06T11:05:23.000Z</time>
      </trkpt>
      <trkpt lat="43.65766" lon="1.87831">
        <ele>209.3</ele>
        <time>2013-11-06T11:05:31.000Z</time>
      </trkpt>
      <trkpt lat="43.65769" lon="1.8782">
        <ele>209.1</ele>
        <time>2013-11-06T11:05:38.000Z</time>
      </trkpt>
      <trkpt lat="43.65771" lon="1.87809">
        <ele>208.5</ele>
        <time>2013-11-06T11:05:45.000Z</time>
      </trkpt>
      <trkpt lat="43.65774" lon="1.87798">
        <ele>208.3</ele>
        <time>2013-11-06T11:05:52.000Z</time>
      </trkpt>
      <trkpt lat="43.65776" lon="1.87786">
        <ele>207.9</ele>
        <time>2013-11-06T11:05:59.000Z</time>
      </trkpt>
      <trkpt lat="43.65776" lon="1.87785">
        <ele>208</ele>
        <time>2013-11-06T11:06:0.000Z</time>
      </trkpt>
      <trkpt lat="43.65782" lon="1.87763">
        <ele>207.9</ele>
        <time>2013-11-06T11:06:13.000Z</time>
      </trkpt>
      <trkpt lat="43.65784" lon="1.87752">
        <ele>208</ele>
        <time>2013-11-06T11:06:20.000Z</time>
      </trkpt>
      <trkpt lat="43.65786" lon="1.87741">
        <ele>208.1</ele>
        <time>2013-11-06T11:06:26.000Z</time>
      </trkpt>
      <trkpt lat="43.65789" lon="1.8773">
        <ele>208.1</ele>
        <time>2013-11-06T11:06:33.000Z</time>
      </trkpt>
      <trkpt lat="43.65791" lon="1.87718">
        <ele>207.5</ele>
        <time>2013-11-06T11:06:40.000Z</time>
      </trkpt>
      <trkpt lat="43.65793" lon="1.87708">
        <ele>206.7</ele>
        <time>2013-11-06T11:06:46.000Z</time>
      </trkpt>
      <trkpt lat="43.65795" lon="1.87698">
        <ele>206.2</ele>
        <time>2013-11-06T11:06:52.000Z</time>
      </trkpt>
      <trkpt lat="43.65798" lon="1.87687">
        <ele>206</ele>
        <time>2013-11-06T11:06:58.000Z</time>
      </trkpt>
      <trkpt lat="43.658" lon="1.87677">
        <ele>205.7</ele>
        <time>2013-11-06T11:07:4.000Z</time>
      </trkpt>
      <trkpt lat="43.658" lon="1.87675">
        <ele>205.7</ele>
        <time>2013-11-06T11:07:5.000Z</time>
      </trkpt>
      <trkpt lat="43.65805" lon="1.87655">
        <ele>205.1</ele>
        <time>2013-11-06T11:07:17.000Z</time>
      </trkpt>
      <trkpt lat="43.65808" lon="1.87644">
        <ele>205</ele>
        <time>2013-11-06T11:07:24.000Z</time>
      </trkpt>
      <trkpt lat="43.65811" lon="1.87634">
        <ele>204.9</ele>
        <time>2013-11-06T11:07:30.000Z</time>
      </trkpt>
      <trkpt lat="43.65815" lon="1.87625">
        <ele>204.9</ele>
        <time>2013-11-06T11:07:36.000Z</time>
      </trkpt>
      <trkpt lat="43.65819" lon="1.87615">
        <ele>205.9</ele>
        <time>2013-11-06T11:07:43.000Z</time>
      </trkpt>
      <trkpt lat="43.65823" lon="1.87605">
        <ele>206.2</ele>
        <time>2013-11-06T11:07:50.000Z</time>
      </trkpt>
      <trkpt lat="43.65828" lon="1.87595">
        <ele>206.5</ele>
        <time>2013-11-06T11:07:57.000Z</time>
      </trkpt>
      <trkpt lat="43.65833" lon="1.87585">
        <ele>206.4</ele>
        <time>2013-11-06T11:08:4.000Z</time>
      </trkpt>
      <trkpt lat="43.65838" lon="1.87576">
        <ele>207.1</ele>
        <time>2013-11-06T11:08:11.000Z</time>
      </trkpt>
      <trkpt lat="43.65839" lon="1.87575">
        <ele>207</ele>
        <time>2013-11-06T11:08:12.000Z</time>
      </trkpt>
      <trkpt lat="43.65848" lon="1.87558">
        <ele>208.3</ele>
        <time>2013-11-06T11:08:25.000Z</time>
      </trkpt>
      <trkpt lat="43.65854" lon="1.87549">
        <ele>209.1</ele>
        <time>2013-11-06T11:08:32.000Z</time>
      </trkpt>
      <trkpt lat="43.65859" lon="1.87541">
        <ele>209.4</ele>
        <time>2013-11-06T11:08:39.000Z</time>
      </trkpt>
      <trkpt lat="43.65865" lon="1.87532">
        <ele>210.1</ele>
        <time>2013-11-06T11:08:46.000Z</time>
      </trkpt>
      <trkpt lat="43.65871" lon="1.87523">
        <ele>210.1</ele>
        <time>2013-11-06T11:08:53.000Z</time>
      </trkpt>
      <trkpt lat="43.65876" lon="1.87514">
        <ele>210.1</ele>
        <time>2013-11-06T11:09:0.000Z</time>
      </trkpt>
      <trkpt lat="43.65882" lon="1.87505">
        <ele>209.9</ele>
        <time>2013-11-06T11:09:7.000Z</time>
      </trkpt>
      <trkpt lat="43.65887" lon="1.87497">
        <ele>209.7</ele>
        <time>2013-11-06T11:09:13.000Z</time>
      </trkpt>
      <trkpt lat="43.65888" lon="1.87496">
        <ele>209.6</ele>
        <time>2013-11-06T11:09:14.000Z</time>
      </trkpt>
      <trkpt lat="43.65897" lon="1.87481">
        <ele>209.2</ele>
        <time>2013-11-06T11:09:25.000Z</time>
      </trkpt>
      <trkpt lat="43.65903" lon="1.87472">
        <ele>208.9</ele>
        <time>2013-11-06T11:09:32.000Z</time>
      </trkpt>
      <trkpt lat="43.65908" lon="1.87464">
        <ele>208.9</ele>
        <time>2013-11-06T11:09:38.000Z</time>
      </trkpt>
      <trkpt lat="43.65914" lon="1.87455">
        <ele>209.1</ele>
        <time>2013-11-06T11:09:45.000Z</time>
      </trkpt>
      <trkpt lat="43.65921" lon="1.87447">
        <ele>208.6</ele>
        <time>2013-11-06T11:09:52.000Z</time>
      </trkpt>
      <trkpt lat="43.65928" lon="1.87439">
        <ele>208.5</ele>
        <time>2013-11-06T11:09:59.000Z</time>
      </trkpt>
      <trkpt lat="43.65933" lon="1.87431">
        <ele>208</ele>
        <time>2013-11-06T11:10:5.000Z</time>
      </trkpt>
      <trkpt lat="43.65939" lon="1.87421">
        <ele>207.8</ele>
        <time>2013-11-06T11:10:12.000Z</time>
      </trkpt>
      <trkpt lat="43.65944" lon="1.87413">
        <ele>207.6</ele>
        <time>2013-11-06T11:10:18.000Z</time>
      </trkpt>
      <trkpt lat="43.65944" lon="1.87412">
        <ele>207.6</ele>
        <time>2013-11-06T11:10:19.000Z</time>
      </trkpt>
      <trkpt lat="43.65954" lon="1.87395">
        <ele>206.5</ele>
        <time>2013-11-06T11:10:36.000Z</time>
      </trkpt>
      <trkpt lat="43.6596" lon="1.87387">
        <ele>205.9</ele>
        <time>2013-11-06T11:10:44.000Z</time>
      </trkpt>
      <trkpt lat="43.65967" lon="1.87379">
        <ele>205.5</ele>
        <time>2013-11-06T11:10:51.000Z</time>
      </trkpt>
      <trkpt lat="43.65973" lon="1.87371">
        <ele>204.5</ele>
        <time>2013-11-06T11:10:58.000Z</time>
      </trkpt>
      <trkpt lat="43.65977" lon="1.87361">
        <ele>203.3</ele>
        <time>2013-11-06T11:11:6.000Z</time>
      </trkpt>
      <trkpt lat="43.65979" lon="1.87349">
        <ele>202.2</ele>
        <time>2013-11-06T11:11:14.000Z</time>
      </trkpt>
      <trkpt lat="43.65979" lon="1.87337">
        <ele>200.9</ele>
        <time>2013-11-06T11:11:22.000Z</time>
      </trkpt>
      <trkpt lat="43.65979" lon="1.87335">
        <ele>200.8</ele>
        <time>2013-11-06T11:11:23.000Z</time>
      </trkpt>
      <trkpt lat="43.65974" lon="1.87314">
        <ele>198.7</ele>
        <time>2013-11-06T11:11:37.000Z</time>
      </trkpt>
      <trkpt lat="43.65971" lon="1.87302">
        <ele>198.1</ele>
        <time>2013-11-06T11:11:45.000Z</time>
      </trkpt>
      <trkpt lat="43.65969" lon="1.87291">
        <ele>197.8</ele>
        <time>2013-11-06T11:11:52.000Z</time>
      </trkpt>
      <trkpt lat="43.65967" lon="1.8728">
        <ele>197.2</ele>
        <time>2013-11-06T11:11:59.000Z</time>
      </trkpt>
      <trkpt lat="43.65965" lon="1.87269">
        <ele>196.2</ele>
        <time>2013-11-06T11:12:6.000Z</time>
      </trkpt>
      <trkpt lat="43.65962" lon="1.87258">
        <ele>195.9</ele>
        <time>2013-11-06T11:12:12.000Z</time>
      </trkpt>
      <trkpt lat="43.65961" lon="1.87248">
        <ele>195.6</ele>
        <time>2013-11-06T11:12:19.000Z</time>
      </trkpt>
      <trkpt lat="43.65958" lon="1.87236">
        <ele>194.9</ele>
        <time>2013-11-06T11:12:26.000Z</time>
      </trkpt>
      <trkpt lat="43.65958" lon="1.87235">
        <ele>194.9</ele>
        <time>2013-11-06T11:12:27.000Z</time>
      </trkpt>
      <trkpt lat="43.65955" lon="1.87213">
        <ele>194.4</ele>
        <time>2013-11-06T11:12:40.000Z</time>
      </trkpt>
      <trkpt lat="43.65954" lon="1.87201">
        <ele>193.9</ele>
        <time>2013-11-06T11:12:47.000Z</time>
      </trkpt>
      <trkpt lat="43.65954" lon="1.8719">
        <ele>193.1</ele>
        <time>2013-11-06T11:12:54.000Z</time>
      </trkpt>
      <trkpt lat="43.65954" lon="1.87178">
        <ele>192.7</ele>
        <time>2013-11-06T11:13:2.000Z</time>
      </trkpt>
      <trkpt lat="43.65951" lon="1.87168">
        <ele>192.3</ele>
        <time>2013-11-06T11:15:31.000Z</time>
      </trkpt>
      <trkpt lat="43.65951" lon="1.87166">
        <ele>192.4</ele>
        <time>2013-11-06T11:15:32.000Z</time>
      </trkpt>
      <trkpt lat="43.65945" lon="1.87146">
        <ele>193.1</ele>
        <time>2013-11-06T11:15:46.000Z</time>
      </trkpt>
      <trkpt lat="43.65943" lon="1.87135">
        <ele>193.2</ele>
        <time>2013-11-06T11:15:54.000Z</time>
      </trkpt>
      <trkpt lat="43.65942" lon="1.87123">
        <ele>193.4</ele>
        <time>2013-11-06T11:16:2.000Z</time>
      </trkpt>
      <trkpt lat="43.65939" lon="1.87112">
        <ele>193.4</ele>
        <time>2013-11-06T11:16:10.000Z</time>
      </trkpt>
      <trkpt lat="43.65938" lon="1.871">
        <ele>194.3</ele>
        <time>2013-11-06T11:16:19.000Z</time>
      </trkpt>
      <trkpt lat="43.65935" lon="1.87089">
        <ele>194.6</ele>
        <time>2013-11-06T11:16:27.000Z</time>
      </trkpt>
      <trkpt lat="43.65933" lon="1.87079">
        <ele>195.2</ele>
        <time>2013-11-06T11:16:35.000Z</time>
      </trkpt>
      <trkpt lat="43.65933" lon="1.87077">
        <ele>195.1</ele>
        <time>2013-11-06T11:16:36.000Z</time>
      </trkpt>
      <trkpt lat="43.6593" lon="1.87056">
        <ele>196.4</ele>
        <time>2013-11-06T11:16:53.000Z</time>
      </trkpt>
      <trkpt lat="43.65929" lon="1.87045">
        <ele>197</ele>
        <time>2013-11-06T11:17:0.000Z</time>
      </trkpt>
      <trkpt lat="43.65928" lon="1.87033">
        <ele>197.7</ele>
        <time>2013-11-06T11:17:8.000Z</time>
      </trkpt>
      <trkpt lat="43.6593" lon="1.87021">
        <ele>198.9</ele>
        <time>2013-11-06T11:17:16.000Z</time>
      </trkpt>
      <trkpt lat="43.65932" lon="1.87009">
        <ele>199.8</ele>
        <time>2013-11-06T11:17:25.000Z</time>
      </trkpt>
      <trkpt lat="43.65932" lon="1.86998">
        <ele>201.2</ele>
        <time>2013-11-06T11:17:35.000Z</time>
      </trkpt>
      <trkpt lat="43.65933" lon="1.86985">
        <ele>203.4</ele>
        <time>2013-11-06T11:17:55.000Z</time>
      </trkpt>
      <trkpt lat="43.65933" lon="1.86983">
        <ele>203.6</ele>
        <time>2013-11-06T11:17:56.000Z</time>
      </trkpt>
      <trkpt lat="43.65934" lon="1.86961">
        <ele>205.4</ele>
        <time>2013-11-06T11:18:11.000Z</time>
      </trkpt>
      <trkpt lat="43.65937" lon="1.8695">
        <ele>206.2</ele>
        <time>2013-11-06T11:18:20.000Z</time>
      </trkpt>
      <trkpt lat="43.65941" lon="1.86939">
        <ele>207.6</ele>
        <time>2013-11-06T11:18:30.000Z</time>
      </trkpt>
      <trkpt lat="43.65942" lon="1.86928">
        <ele>208.6</ele>
        <time>2013-11-06T11:18:37.000Z</time>
      </trkpt>
      <trkpt lat="43.65944" lon="1.86916">
        <ele>209.2</ele>
        <time>2013-11-06T11:18:46.000Z</time>
      </trkpt>
      <trkpt lat="43.65944" lon="1.86905">
        <ele>210.1</ele>
        <time>2013-11-06T11:18:54.000Z</time>
      </trkpt>
      <trkpt lat="43.65944" lon="1.86893">
        <ele>210.8</ele>
        <time>2013-11-06T11:19:2.000Z</time>
      </trkpt>
      <trkpt lat="43.65945" lon="1.86892">
        <ele>211.1</ele>
        <time>2013-11-06T11:19:3.000Z</time>
      </trkpt>
      <trkpt lat="43.65951" lon="1.8687">
        <ele>212.6</ele>
        <time>2013-11-06T11:19:18.000Z</time>
      </trkpt>
      <trkpt lat="43.65954" lon="1.86859">
        <ele>214.1</ele>
        <time>2013-11-06T11:19:27.000Z</time>
      </trkpt>
      <trkpt lat="43.65958" lon="1.86849">
        <ele>215.5</ele>
        <time>2013-11-06T11:19:36.000Z</time>
      </trkpt>
      <trkpt lat="43.65962" lon="1.86839">
        <ele>216.7</ele>
        <time>2013-11-06T11:19:45.000Z</time>
      </trkpt>
      <trkpt lat="43.65968" lon="1.86831">
        <ele>217.8</ele>
        <time>2013-11-06T11:19:52.000Z</time>
      </trkpt>
      <trkpt lat="43.65973" lon="1.86821">
        <ele>219</ele>
        <time>2013-11-06T11:20:1.000Z</time>
      </trkpt>
      <trkpt lat="43.65979" lon="1.86814">
        <ele>220.1</ele>
        <time>2013-11-06T11:20:9.000Z</time>
      </trkpt>
      <trkpt lat="43.6598" lon="1.86813">
        <ele>220.3</ele>
        <time>2013-11-06T11:20:10.000Z</time>
      </trkpt>
      <trkpt lat="43.65987" lon="1.86793">
        <ele>223.8</ele>
        <time>2013-11-06T11:20:32.000Z</time>
      </trkpt>
      <trkpt lat="43.6599" lon="1.86783">
        <ele>224.7</ele>
        <time>2013-11-06T11:20:41.000Z</time>
      </trkpt>
      <trkpt lat="43.65995" lon="1.86774">
        <ele>224.9</ele>
        <time>2013-11-06T11:20:47.000Z</time>
      </trkpt>
      <trkpt lat="43.65999" lon="1.86763">
        <ele>225.6</ele>
        <time>2013-11-06T11:20:57.000Z</time>
      </trkpt>
      <trkpt lat="43.66003" lon="1.86752">
        <ele>226.5</ele>
        <time>2013-11-06T11:21:6.000Z</time>
      </trkpt>
      <trkpt lat="43.66008" lon="1.86743">
        <ele>226.7</ele>
        <time>2013-11-06T11:21:14.000Z</time>
      </trkpt>
      <trkpt lat="43.66009" lon="1.86742">
        <ele>226.9</ele>
        <time>2013-11-06T11:21:15.000Z</time>
      </trkpt>
      <trkpt lat="43.66018" lon="1.86723">
        <ele>228.9</ele>
        <time>2013-11-06T11:21:33.000Z</time>
      </trkpt>
      <trkpt lat="43.66023" lon="1.86713">
        <ele>230</ele>
        <time>2013-11-06T11:21:40.000Z</time>
      </trkpt>
      <trkpt lat="43.66026" lon="1.86702">
        <ele>230.6</ele>
        <time>2013-11-06T11:21:47.000Z</time>
      </trkpt>
      <trkpt lat="43.66027" lon="1.86691">
        <ele>231.1</ele>
        <time>2013-11-06T11:21:54.000Z</time>
      </trkpt>
      <trkpt lat="43.66029" lon="1.8668">
        <ele>231.5</ele>
        <time>2013-11-06T11:22:3.000Z</time>
      </trkpt>
      <trkpt lat="43.66031" lon="1.86668">
        <ele>231.3</ele>
        <time>2013-11-06T11:22:13.000Z</time>
      </trkpt>
      <trkpt lat="43.66036" lon="1.86658">
        <ele>230.2</ele>
        <time>2013-11-06T11:22:25.000Z</time>
      </trkpt>
      <trkpt lat="43.66036" lon="1.86657">
        <ele>230.2</ele>
        <time>2013-11-06T11:22:26.000Z</time>
      </trkpt>
      <trkpt lat="43.66045" lon="1.86639">
        <ele>229.4</ele>
        <time>2013-11-06T11:22:41.000Z</time>
      </trkpt>
      <trkpt lat="43.66048" lon="1.86628">
        <ele>229</ele>
        <time>2013-11-06T11:22:49.000Z</time>
      </trkpt>
      <trkpt lat="43.66051" lon="1.86617">
        <ele>228.3</ele>
        <time>2013-11-06T11:22:56.000Z</time>
      </trkpt>
      <trkpt lat="43.66053" lon="1.86607">
        <ele>227.9</ele>
        <time>2013-11-06T11:23:3.000Z</time>
      </trkpt>
      <trkpt lat="43.66058" lon="1.86596">
        <ele>227.6</ele>
        <time>2013-11-06T11:23:10.000Z</time>
      </trkpt>
      <trkpt lat="43.66063" lon="1.86587">
        <ele>226.4</ele>
        <time>2013-11-06T11:23:18.000Z</time>
      </trkpt>
      <trkpt lat="43.66067" lon="1.86576">
        <ele>225.7</ele>
        <time>2013-11-06T11:23:26.000Z</time>
      </trkpt>
      <trkpt lat="43.66067" lon="1.86575">
        <ele>225.6</ele>
        <time>2013-11-06T11:23:27.000Z</time>
      </trkpt>
      <trkpt lat="43.66074" lon="1.86555">
        <ele>225.1</ele>
        <time>2013-11-06T11:23:41.000Z</time>
      </trkpt>
      <trkpt lat="43.66077" lon="1.86544">
        <ele>224.6</ele>
        <time>2013-11-06T11:23:48.000Z</time>
      </trkpt>
      <trkpt lat="43.66079" lon="1.86534">
        <ele>224</ele>
        <time>2013-11-06T11:23:55.000Z</time>
      </trkpt>
      <trkpt lat="43.66081" lon="1.86522">
        <ele>223.1</ele>
        <time>2013-11-06T11:24:2.000Z</time>
      </trkpt>
      <trkpt lat="43.66083" lon="1.86511">
        <ele>222.9</ele>
        <time>2013-11-06T11:24:9.000Z</time>
      </trkpt>
      <trkpt lat="43.66088" lon="1.865">
        <ele>222.3</ele>
        <time>2013-11-06T11:24:17.000Z</time>
      </trkpt>
      <trkpt lat="43.66091" lon="1.86489">
        <ele>221.8</ele>
        <time>2013-11-06T11:24:25.000Z</time>
      </trkpt>
      <trkpt lat="43.66094" lon="1.86479">
        <ele>221.4</ele>
        <time>2013-11-06T11:24:31.000Z</time>
      </trkpt>
      <trkpt lat="43.66095" lon="1.86477">
        <ele>221.4</ele>
        <time>2013-11-06T11:24:32.000Z</time>
      </trkpt>
      <trkpt lat="43.66102" lon="1.86457">
        <ele>220.1</ele>
        <time>2013-11-06T11:24:48.000Z</time>
      </trkpt>
      <trkpt lat="43.66105" lon="1.86446">
        <ele>219.6</ele>
        <time>2013-11-06T11:24:56.000Z</time>
      </trkpt>
      <trkpt lat="43.66106" lon="1.86436">
        <ele>219.3</ele>
        <time>2013-11-06T11:25:2.000Z</time>
      </trkpt>
      <trkpt lat="43.66108" lon="1.86424">
        <ele>218.9</ele>
        <time>2013-11-06T11:25:9.000Z</time>
      </trkpt>
      <trkpt lat="43.6611" lon="1.86412">
        <ele>218</ele>
        <time>2013-11-06T11:25:17.000Z</time>
      </trkpt>
      <trkpt lat="43.66112" lon="1.86401">
        <ele>217.8</ele>
        <time>2013-11-06T11:25:25.000Z</time>
      </trkpt>
      <trkpt lat="43.66115" lon="1.8639">
        <ele>217</ele>
        <time>2013-11-06T11:25:33.000Z</time>
      </trkpt>
      <trkpt lat="43.66115" lon="1.86389">
        <ele>217</ele>
        <time>2013-11-06T11:25:34.000Z</time>
      </trkpt>
      <trkpt lat="43.66119" lon="1.86368">
        <ele>215.6</ele>
        <time>2013-11-06T11:25:49.000Z</time>
      </trkpt>
      <trkpt lat="43.6612" lon="1.86357">
        <ele>215.3</ele>
        <time>2013-11-06T11:25:56.000Z</time>
      </trkpt>
      <trkpt lat="43.66123" lon="1.86346">
        <ele>215.3</ele>
        <time>2013-11-06T11:26:3.000Z</time>
      </trkpt>
      <trkpt lat="43.66126" lon="1.86335">
        <ele>214.7</ele>
        <time>2013-11-06T11:26:11.000Z</time>
      </trkpt>
      <trkpt lat="43.66128" lon="1.86323">
        <ele>214.5</ele>
        <time>2013-11-06T11:26:19.000Z</time>
      </trkpt>
      <trkpt lat="43.66131" lon="1.86312">
        <ele>214</ele>
        <time>2013-11-06T11:26:27.000Z</time>
      </trkpt>
      <trkpt lat="43.66133" lon="1.863">
        <ele>213.3</ele>
        <time>2013-11-06T11:26:35.000Z</time>
      </trkpt>
      <trkpt lat="43.66133" lon="1.86298">
        <ele>213.4</ele>
        <time>2013-11-06T11:26:36.000Z</time>
      </trkpt>
      <trkpt lat="43.66137" lon="1.86277">
        <ele>212.3</ele>
        <time>2013-11-06T11:26:50.000Z</time>
      </trkpt>
      <trkpt lat="43.6614" lon="1.86266">
        <ele>211.9</ele>
        <time>2013-11-06T11:26:58.000Z</time>
      </trkpt>
      <trkpt lat="43.66143" lon="1.86255">
        <ele>211.6</ele>
        <time>2013-11-06T11:27:6.000Z</time>
      </trkpt>
      <trkpt lat="43.66146" lon="1.86244">
        <ele>210.8</ele>
        <time>2013-11-06T11:27:13.000Z</time>
      </trkpt>
      <trkpt lat="43.66148" lon="1.86233">
        <ele>210.6</ele>
        <time>2013-11-06T11:27:19.000Z</time>
      </trkpt>
      <trkpt lat="43.66152" lon="1.86222">
        <ele>210</ele>
        <time>2013-11-06T11:27:25.000Z</time>
      </trkpt>
      <trkpt lat="43.66155" lon="1.86212">
        <ele>209.9</ele>
        <time>2013-11-06T11:27:31.000Z</time>
      </trkpt>
      <trkpt lat="43.66159" lon="1.86202">
        <ele>209.5</ele>
        <time>2013-11-06T11:27:38.000Z</time>
      </trkpt>
      <trkpt lat="43.6616" lon="1.86201">
        <ele>209.4</ele>
        <time>2013-11-06T11:27:39.000Z</time>
      </trkpt>
      <trkpt lat="43.66167" lon="1.86182">
        <ele>209.1</ele>
        <time>2013-11-06T11:27:53.000Z</time>
      </trkpt>
      <trkpt lat="43.66172" lon="1.86172">
        <ele>208.9</ele>
        <time>2013-11-06T11:28:1.000Z</time>
      </trkpt>
      <trkpt lat="43.66177" lon="1.86163">
        <ele>208.8</ele>
        <time>2013-11-06T11:28:8.000Z</time>
      </trkpt>
      <trkpt lat="43.66181" lon="1.86153">
        <ele>208.8</ele>
        <time>2013-11-06T11:28:15.000Z</time>
      </trkpt>
      <trkpt lat="43.66185" lon="1.86143">
        <ele>208.6</ele>
        <time>2013-11-06T11:28:23.000Z</time>
      </trkpt>
      <trkpt lat="43.6619" lon="1.86132">
        <ele>208.5</ele>
        <time>2013-11-06T11:28:31.000Z</time>
      </trkpt>
      <trkpt lat="43.66194" lon="1.86122">
        <ele>208.2</ele>
        <time>2013-11-06T11:28:39.000Z</time>
      </trkpt>
      <trkpt lat="43.66195" lon="1.8612">
        <ele>208</ele>
        <time>2013-11-06T11:28:40.000Z</time>
      </trkpt>
      <trkpt lat="43.66204" lon="1.86102">
        <ele>207.9</ele>
        <time>2013-11-06T11:28:54.000Z</time>
      </trkpt>
      <trkpt lat="43.66208" lon="1.86093">
        <ele>207.4</ele>
        <time>2013-11-06T11:29:1.000Z</time>
      </trkpt>
      <trkpt lat="43.66212" lon="1.86084">
        <ele>207.7</ele>
        <time>2013-11-06T11:29:8.000Z</time>
      </trkpt>
      <trkpt lat="43.66217" lon="1.86074">
        <ele>207.3</ele>
        <time>2013-11-06T11:29:16.000Z</time>
      </trkpt>
      <trkpt lat="43.66221" lon="1.86064">
        <ele>207</ele>
        <time>2013-11-06T11:29:45.000Z</time>
      </trkpt>
      <trkpt lat="43.66221" lon="1.86063">
        <ele>206.9</ele>
        <time>2013-11-06T11:29:46.000Z</time>
      </trkpt>
      <trkpt lat="43.66231" lon="1.86044">
        <ele>206.3</ele>
        <time>2013-11-06T11:30:4.000Z</time>
      </trkpt>
      <trkpt lat="43.66239" lon="1.86047">
        <ele>206</ele>
        <time>2013-11-06T11:30:18.000Z</time>
      </trkpt>
      <trkpt lat="43.66246" lon="1.86054">
        <ele>206.6</ele>
        <time>2013-11-06T11:30:52.000Z</time>
      </trkpt>
      <trkpt lat="43.66252" lon="1.86058">
        <ele>206.6</ele>
        <time>2013-11-06T11:30:53.000Z</time>
      </trkpt>
      <trkpt lat="43.66262" lon="1.86059">
        <ele>206.2</ele>
        <time>2013-11-06T11:31:7.000Z</time>
      </trkpt>
      <trkpt lat="43.66259" lon="1.86071">
        <ele>205</ele>
        <time>2013-11-06T11:33:55.000Z</time>
      </trkpt>
      <trkpt lat="43.66259" lon="1.86071">
        <ele>206</ele>
        <time>2013-11-06T11:33:58.000Z</time>
      </trkpt>
      <trkpt lat="43.6625" lon="1.86065">
        <ele>222.7</ele>
        <time>2013-11-06T12:06:21.000Z</time>
      </trkpt>
      <trkpt lat="43.66239" lon="1.86054">
        <ele>222.3</ele>
        <time>2013-11-06T12:06:54.000Z</time>
      </trkpt>
      <trkpt lat="43.66236" lon="1.86065">
        <ele>222.6</ele>
        <time>2013-11-06T12:12:5.000Z</time>
      </trkpt>
      <trkpt lat="43.66236" lon="1.86066">
        <ele>222.6</ele>
        <time>2013-11-06T12:12:6.000Z</time>
      </trkpt>
      <trkpt lat="43.66228" lon="1.86086">
        <ele>223.1</ele>
        <time>2013-11-06T12:12:23.000Z</time>
      </trkpt>
      <trkpt lat="43.66224" lon="1.86095">
        <ele>223.4</ele>
        <time>2013-11-06T12:12:31.000Z</time>
      </trkpt>
      <trkpt lat="43.66219" lon="1.86105">
        <ele>223.6</ele>
        <time>2013-11-06T12:12:40.000Z</time>
      </trkpt>
      <trkpt lat="43.66214" lon="1.86115">
        <ele>224.1</ele>
        <time>2013-11-06T12:12:49.000Z</time>
      </trkpt>
      <trkpt lat="43.6621" lon="1.86126">
        <ele>223.8</ele>
        <time>2013-11-06T12:12:58.000Z</time>
      </trkpt>
      <trkpt lat="43.66204" lon="1.86135">
        <ele>224</ele>
        <time>2013-11-06T12:13:6.000Z</time>
      </trkpt>
      <trkpt lat="43.66203" lon="1.86136">
        <ele>224.7</ele>
        <time>2013-11-06T12:13:7.000Z</time>
      </trkpt>
      <trkpt lat="43.66193" lon="1.86153">
        <ele>230.7</ele>
        <time>2013-11-06T12:13:25.000Z</time>
      </trkpt>
      <trkpt lat="43.66189" lon="1.86164">
        <ele>226.5</ele>
        <time>2013-11-06T12:13:34.000Z</time>
      </trkpt>
      <trkpt lat="43.66185" lon="1.86174">
        <ele>225</ele>
        <time>2013-11-06T12:13:42.000Z</time>
      </trkpt>
      <trkpt lat="43.66182" lon="1.86184">
        <ele>224.6</ele>
        <time>2013-11-06T12:13:52.000Z</time>
      </trkpt>
      <trkpt lat="43.66176" lon="1.86194">
        <ele>224.1</ele>
        <time>2013-11-06T12:14:0.000Z</time>
      </trkpt>
      <trkpt lat="43.66171" lon="1.86204">
        <ele>224.7</ele>
        <time>2013-11-06T12:14:11.000Z</time>
      </trkpt>
      <trkpt lat="43.6617" lon="1.86205">
        <ele>224.8</ele>
        <time>2013-11-06T12:14:12.000Z</time>
      </trkpt>
      <trkpt lat="43.66164" lon="1.86225">
        <ele>225.3</ele>
        <time>2013-11-06T12:14:28.000Z</time>
      </trkpt>
      <trkpt lat="43.6616" lon="1.86234">
        <ele>225.5</ele>
        <time>2013-11-06T12:14:35.000Z</time>
      </trkpt>
      <trkpt lat="43.66156" lon="1.86245">
        <ele>225.8</ele>
        <time>2013-11-06T12:14:42.000Z</time>
      </trkpt>
      <trkpt lat="43.66151" lon="1.86256">
        <ele>226.4</ele>
        <time>2013-11-06T12:14:50.000Z</time>
      </trkpt>
      <trkpt lat="43.66148" lon="1.86265">
        <ele>226.8</ele>
        <time>2013-11-06T12:14:57.000Z</time>
      </trkpt>
      <trkpt lat="43.66146" lon="1.86277">
        <ele>227.4</ele>
        <time>2013-11-06T12:15:4.000Z</time>
      </trkpt>
      <trkpt lat="43.66145" lon="1.86288">
        <ele>227.9</ele>
        <time>2013-11-06T12:15:11.000Z</time>
      </trkpt>
      <trkpt lat="43.66142" lon="1.863">
        <ele>227.6</ele>
        <time>2013-11-06T12:15:19.000Z</time>
      </trkpt>
      <trkpt lat="43.66142" lon="1.86301">
        <ele>227.9</ele>
        <time>2013-11-06T12:15:20.000Z</time>
      </trkpt>
      <trkpt lat="43.66137" lon="1.86322">
        <ele>226.7</ele>
        <time>2013-11-06T12:15:35.000Z</time>
      </trkpt>
      <trkpt lat="43.66136" lon="1.86333">
        <ele>224.3</ele>
        <time>2013-11-06T12:15:43.000Z</time>
      </trkpt>
      <trkpt lat="43.66134" lon="1.86343">
        <ele>232.7</ele>
        <time>2013-11-06T12:15:50.000Z</time>
      </trkpt>
      <trkpt lat="43.66132" lon="1.86355">
        <ele>232.8</ele>
        <time>2013-11-06T12:15:57.000Z</time>
      </trkpt>
      <trkpt lat="43.6613" lon="1.86366">
        <ele>232.1</ele>
        <time>2013-11-06T12:16:4.000Z</time>
      </trkpt>
      <trkpt lat="43.66128" lon="1.86377">
        <ele>232.1</ele>
        <time>2013-11-06T12:16:11.000Z</time>
      </trkpt>
      <trkpt lat="43.66127" lon="1.86388">
        <ele>232.3</ele>
        <time>2013-11-06T12:16:18.000Z</time>
      </trkpt>
      <trkpt lat="43.66126" lon="1.864">
        <ele>232.9</ele>
        <time>2013-11-06T12:16:25.000Z</time>
      </trkpt>
      <trkpt lat="43.66126" lon="1.86401">
        <ele>233</ele>
        <time>2013-11-06T12:16:26.000Z</time>
      </trkpt>
      <trkpt lat="43.66119" lon="1.86421">
        <ele>234.1</ele>
        <time>2013-11-06T12:16:41.000Z</time>
      </trkpt>
      <trkpt lat="43.66116" lon="1.86433">
        <ele>234.7</ele>
        <time>2013-11-06T12:16:49.000Z</time>
      </trkpt>
      <trkpt lat="43.66114" lon="1.86444">
        <ele>235.4</ele>
        <time>2013-11-06T12:16:57.000Z</time>
      </trkpt>
      <trkpt lat="43.66111" lon="1.86454">
        <ele>235.1</ele>
        <time>2013-11-06T12:17:5.000Z</time>
      </trkpt>
      <trkpt lat="43.66107" lon="1.86465">
        <ele>237.9</ele>
        <time>2013-11-06T12:17:14.000Z</time>
      </trkpt>
      <trkpt lat="43.66104" lon="1.86475">
        <ele>236.7</ele>
        <time>2013-11-06T12:17:22.000Z</time>
      </trkpt>
      <trkpt lat="43.66101" lon="1.86486">
        <ele>234.8</ele>
        <time>2013-11-06T12:17:30.000Z</time>
      </trkpt>
      <trkpt lat="43.661" lon="1.86487">
        <ele>235</ele>
        <time>2013-11-06T12:17:31.000Z</time>
      </trkpt>
      <trkpt lat="43.66094" lon="1.86507">
        <ele>236.7</ele>
        <time>2013-11-06T12:17:46.000Z</time>
      </trkpt>
      <trkpt lat="43.66091" lon="1.86518">
        <ele>237.9</ele>
        <time>2013-11-06T12:17:54.000Z</time>
      </trkpt>
      <trkpt lat="43.6609" lon="1.86529">
        <ele>238.2</ele>
        <time>2013-11-06T12:18:1.000Z</time>
      </trkpt>
      <trkpt lat="43.66086" lon="1.86539">
        <ele>238.1</ele>
        <time>2013-11-06T12:18:8.000Z</time>
      </trkpt>
      <trkpt lat="43.66083" lon="1.8655">
        <ele>238.7</ele>
        <time>2013-11-06T12:18:15.000Z</time>
      </trkpt>
      <trkpt lat="43.6608" lon="1.86561">
        <ele>239.1</ele>
        <time>2013-11-06T12:18:23.000Z</time>
      </trkpt>
      <trkpt lat="43.66077" lon="1.86571">
        <ele>240.2</ele>
        <time>2013-11-06T12:18:30.000Z</time>
      </trkpt>
      <trkpt lat="43.66073" lon="1.86583">
        <ele>240.8</ele>
        <time>2013-11-06T12:18:38.000Z</time>
      </trkpt>
      <trkpt lat="43.66073" lon="1.86584">
        <ele>240.9</ele>
        <time>2013-11-06T12:18:39.000Z</time>
      </trkpt>
      <trkpt lat="43.66066" lon="1.86604">
        <ele>241.2</ele>
        <time>2013-11-06T12:18:54.000Z</time>
      </trkpt>
      <trkpt lat="43.66063" lon="1.86615">
        <ele>243.1</ele>
        <time>2013-11-06T12:19:3.000Z</time>
      </trkpt>
      <trkpt lat="43.66059" lon="1.86625">
        <ele>243.3</ele>
        <time>2013-11-06T12:19:11.000Z</time>
      </trkpt>
      <trkpt lat="43.66055" lon="1.86635">
        <ele>244.2</ele>
        <time>2013-11-06T12:19:19.000Z</time>
      </trkpt>
      <trkpt lat="43.6605" lon="1.86645">
        <ele>244.5</ele>
        <time>2013-11-06T12:19:27.000Z</time>
      </trkpt>
      <trkpt lat="43.66044" lon="1.86654">
        <ele>244.9</ele>
        <time>2013-11-06T12:19:35.000Z</time>
      </trkpt>
      <trkpt lat="43.66038" lon="1.86663">
        <ele>245.3</ele>
        <time>2013-11-06T12:19:43.000Z</time>
      </trkpt>
      <trkpt lat="43.66038" lon="1.86664">
        <ele>245.5</ele>
        <time>2013-11-06T12:19:44.000Z</time>
      </trkpt>
      <trkpt lat="43.66026" lon="1.86677">
        <ele>246.8</ele>
        <time>2013-11-06T12:19:58.000Z</time>
      </trkpt>
      <trkpt lat="43.66019" lon="1.86684">
        <ele>247</ele>
        <time>2013-11-06T12:20:5.000Z</time>
      </trkpt>
      <trkpt lat="43.66013" lon="1.86691">
        <ele>248.2</ele>
        <time>2013-11-06T12:20:12.000Z</time>
      </trkpt>
      <trkpt lat="43.66007" lon="1.867">
        <ele>248.8</ele>
        <time>2013-11-06T12:20:20.000Z</time>
      </trkpt>
      <trkpt lat="43.66001" lon="1.86707">
        <ele>249.6</ele>
        <time>2013-11-06T12:20:28.000Z</time>
      </trkpt>
      <trkpt lat="43.65995" lon="1.86716">
        <ele>249.7</ele>
        <time>2013-11-06T12:20:36.000Z</time>
      </trkpt>
      <trkpt lat="43.65988" lon="1.86724">
        <ele>249.9</ele>
        <time>2013-11-06T12:20:44.000Z</time>
      </trkpt>
      <trkpt lat="43.65988" lon="1.86725">
        <ele>249.9</ele>
        <time>2013-11-06T12:20:45.000Z</time>
      </trkpt>
      <trkpt lat="43.65976" lon="1.8674">
        <ele>250</ele>
        <time>2013-11-06T12:21:0.000Z</time>
      </trkpt>
      <trkpt lat="43.65972" lon="1.8675">
        <ele>250.4</ele>
        <time>2013-11-06T12:21:8.000Z</time>
      </trkpt>
      <trkpt lat="43.65966" lon="1.86758">
        <ele>251.1</ele>
        <time>2013-11-06T12:21:18.000Z</time>
      </trkpt>
      <trkpt lat="43.6596" lon="1.86766">
        <ele>251</ele>
        <time>2013-11-06T12:21:25.000Z</time>
      </trkpt>
      <trkpt lat="43.65955" lon="1.86775">
        <ele>251.4</ele>
        <time>2013-11-06T12:21:33.000Z</time>
      </trkpt>
      <trkpt lat="43.65949" lon="1.86784">
        <ele>251.8</ele>
        <time>2013-11-06T12:21:39.000Z</time>
      </trkpt>
      <trkpt lat="43.65944" lon="1.86792">
        <ele>251.4</ele>
        <time>2013-11-06T12:21:47.000Z</time>
      </trkpt>
      <trkpt lat="43.65943" lon="1.86793">
        <ele>251.2</ele>
        <time>2013-11-06T12:21:48.000Z</time>
      </trkpt>
      <trkpt lat="43.6593" lon="1.86806">
        <ele>252.9</ele>
        <time>2013-11-06T12:22:4.000Z</time>
      </trkpt>
      <trkpt lat="43.65923" lon="1.86813">
        <ele>253.2</ele>
        <time>2013-11-06T12:22:11.000Z</time>
      </trkpt>
      <trkpt lat="43.65917" lon="1.86819">
        <ele>254</ele>
        <time>2013-11-06T12:22:17.000Z</time>
      </trkpt>
      <trkpt lat="43.6591" lon="1.86826">
        <ele>242</ele>
        <time>2013-11-06T12:22:24.000Z</time>
      </trkpt>
      <trkpt lat="43.65902" lon="1.86828">
        <ele>253.3</ele>
        <time>2013-11-06T12:22:33.000Z</time>
      </trkpt>
      <trkpt lat="43.65893" lon="1.86826">
        <ele>256.5</ele>
        <time>2013-11-06T12:22:44.000Z</time>
      </trkpt>
      <trkpt lat="43.65885" lon="1.86822">
        <ele>254.8</ele>
        <time>2013-11-06T12:22:53.000Z</time>
      </trkpt>
      <trkpt lat="43.65884" lon="1.86821">
        <ele>254.8</ele>
        <time>2013-11-06T12:22:54.000Z</time>
      </trkpt>
      <trkpt lat="43.65868" lon="1.86815">
        <ele>252.6</ele>
        <time>2013-11-06T12:23:11.000Z</time>
      </trkpt>
      <trkpt lat="43.6586" lon="1.86811">
        <ele>251.5</ele>
        <time>2013-11-06T12:23:20.000Z</time>
      </trkpt>
      <trkpt lat="43.65852" lon="1.86806">
        <ele>249.7</ele>
        <time>2013-11-06T12:23:33.000Z</time>
      </trkpt>
      <trkpt lat="43.65844" lon="1.86803">
        <ele>248.5</ele>
        <time>2013-11-06T12:23:44.000Z</time>
      </trkpt>
      <trkpt lat="43.65836" lon="1.868">
        <ele>247.8</ele>
        <time>2013-11-06T12:23:52.000Z</time>
      </trkpt>
      <trkpt lat="43.65828" lon="1.86795">
        <ele>247</ele>
        <time>2013-11-06T12:24:0.000Z</time>
      </trkpt>
      <trkpt lat="43.65827" lon="1.86794">
        <ele>246.8</ele>
        <time>2013-11-06T12:24:1.000Z</time>
      </trkpt>
      <trkpt lat="43.65812" lon="1.86787">
        <ele>244.9</ele>
        <time>2013-11-06T12:24:22.000Z</time>
      </trkpt>
      <trkpt lat="43.65804" lon="1.86794">
        <ele>244.6</ele>
        <time>2013-11-06T12:24:36.000Z</time>
      </trkpt>
      <trkpt lat="43.658" lon="1.86804">
        <ele>244.4</ele>
        <time>2013-11-06T12:24:45.000Z</time>
      </trkpt>
      <trkpt lat="43.65794" lon="1.86812">
        <ele>244.2</ele>
        <time>2013-11-06T12:24:54.000Z</time>
      </trkpt>
      <trkpt lat="43.65786" lon="1.86819">
        <ele>244.7</ele>
        <time>2013-11-06T12:25:3.000Z</time>
      </trkpt>
      <trkpt lat="43.65785" lon="1.8682">
        <ele>244.7</ele>
        <time>2013-11-06T12:25:4.000Z</time>
      </trkpt>
      <trkpt lat="43.65771" lon="1.86826">
        <ele>245.4</ele>
        <time>2013-11-06T12:25:18.000Z</time>
      </trkpt>
      <trkpt lat="43.65763" lon="1.86828">
        <ele>245.7</ele>
        <time>2013-11-06T12:25:25.000Z</time>
      </trkpt>
      <trkpt lat="43.65755" lon="1.86829">
        <ele>246.1</ele>
        <time>2013-11-06T12:25:32.000Z</time>
      </trkpt>
      <trkpt lat="43.65747" lon="1.8683">
        <ele>246.2</ele>
        <time>2013-11-06T12:25:39.000Z</time>
      </trkpt>
      <trkpt lat="43.65739" lon="1.86832">
        <ele>246.2</ele>
        <time>2013-11-06T12:25:46.000Z</time>
      </trkpt>
      <trkpt lat="43.65731" lon="1.8683">
        <ele>246.6</ele>
        <time>2013-11-06T12:25:53.000Z</time>
      </trkpt>
      <trkpt lat="43.65722" lon="1.86831">
        <ele>246.5</ele>
        <time>2013-11-06T12:26:1.000Z</time>
      </trkpt>
      <trkpt lat="43.65713" lon="1.86833">
        <ele>246.5</ele>
        <time>2013-11-06T12:26:9.000Z</time>
      </trkpt>
      <trkpt lat="43.65712" lon="1.86833">
        <ele>246.4</ele>
        <time>2013-11-06T12:26:10.000Z</time>
      </trkpt>
      <trkpt lat="43.65697" lon="1.86835">
        <ele>245.8</ele>
        <time>2013-11-06T12:26:23.000Z</time>
      </trkpt>
      <trkpt lat="43.65688" lon="1.86834">
        <ele>245.1</ele>
        <time>2013-11-06T12:26:31.000Z</time>
      </trkpt>
      <trkpt lat="43.6568" lon="1.86833">
        <ele>244.8</ele>
        <time>2013-11-06T12:26:39.000Z</time>
      </trkpt>
      <trkpt lat="43.65672" lon="1.86833">
        <ele>244.6</ele>
        <time>2013-11-06T12:26:47.000Z</time>
      </trkpt>
      <trkpt lat="43.65664" lon="1.86832">
        <ele>244.5</ele>
        <time>2013-11-06T12:26:54.000Z</time>
      </trkpt>
      <trkpt lat="43.65657" lon="1.86826">
        <ele>244.4</ele>
        <time>2013-11-06T12:27:1.000Z</time>
      </trkpt>
      <trkpt lat="43.65651" lon="1.86818">
        <ele>244</ele>
        <time>2013-11-06T12:27:10.000Z</time>
      </trkpt>
      <trkpt lat="43.6565" lon="1.86816">
        <ele>244</ele>
        <time>2013-11-06T12:27:11.000Z</time>
      </trkpt>
      <trkpt lat="43.65646" lon="1.86795">
        <ele>243.7</ele>
        <time>2013-11-06T12:27:26.000Z</time>
      </trkpt>
      <trkpt lat="43.65644" lon="1.86783">
        <ele>243.8</ele>
        <time>2013-11-06T12:27:32.000Z</time>
      </trkpt>
      <trkpt lat="43.65642" lon="1.86772">
        <ele>243.9</ele>
        <time>2013-11-06T12:27:39.000Z</time>
      </trkpt>
      <trkpt lat="43.65642" lon="1.8676">
        <ele>244.2</ele>
        <time>2013-11-06T12:27:47.000Z</time>
      </trkpt>
      <trkpt lat="43.65643" lon="1.86747">
        <ele>244.2</ele>
        <time>2013-11-06T12:27:54.000Z</time>
      </trkpt>
      <trkpt lat="43.65647" lon="1.86737">
        <ele>244</ele>
        <time>2013-11-06T12:28:0.000Z</time>
      </trkpt>
      <trkpt lat="43.6565" lon="1.86726">
        <ele>243.6</ele>
        <time>2013-11-06T12:28:7.000Z</time>
      </trkpt>
      <trkpt lat="43.65651" lon="1.86715">
        <ele>242.8</ele>
        <time>2013-11-06T12:28:14.000Z</time>
      </trkpt>
      <trkpt lat="43.65652" lon="1.86714">
        <ele>242.7</ele>
        <time>2013-11-06T12:28:15.000Z</time>
      </trkpt>
      <trkpt lat="43.65657" lon="1.86694">
        <ele>242.3</ele>
        <time>2013-11-06T12:28:29.000Z</time>
      </trkpt>
      <trkpt lat="43.65659" lon="1.86682">
        <ele>241.4</ele>
        <time>2013-11-06T12:28:36.000Z</time>
      </trkpt>
      <trkpt lat="43.65664" lon="1.86673">
        <ele>240.6</ele>
        <time>2013-11-06T12:28:43.000Z</time>
      </trkpt>
      <trkpt lat="43.65668" lon="1.86663">
        <ele>239.5</ele>
        <time>2013-11-06T12:28:51.000Z</time>
      </trkpt>
      <trkpt lat="43.65673" lon="1.86653">
        <ele>238.3</ele>
        <time>2013-11-06T12:28:59.000Z</time>
      </trkpt>
      <trkpt lat="43.65678" lon="1.86643">
        <ele>237.7</ele>
        <time>2013-11-06T12:29:7.000Z</time>
      </trkpt>
      <trkpt lat="43.65682" lon="1.86632">
        <ele>236.9</ele>
        <time>2013-11-06T12:29:15.000Z</time>
      </trkpt>
      <trkpt lat="43.65682" lon="1.8663">
        <ele>236.8</ele>
        <time>2013-11-06T12:29:16.000Z</time>
      </trkpt>
      <trkpt lat="43.65681" lon="1.86609">
        <ele>235.8</ele>
        <time>2013-11-06T12:29:31.000Z</time>
      </trkpt>
      <trkpt lat="43.65681" lon="1.86597">
        <ele>235.4</ele>
        <time>2013-11-06T12:29:39.000Z</time>
      </trkpt>
      <trkpt lat="43.65681" lon="1.86584">
        <ele>234.7</ele>
        <time>2013-11-06T12:29:47.000Z</time>
      </trkpt>
      <trkpt lat="43.65682" lon="1.86573">
        <ele>233.3</ele>
        <time>2013-11-06T12:29:55.000Z</time>
      </trkpt>
      <trkpt lat="43.65683" lon="1.86561">
        <ele>232.5</ele>
        <time>2013-11-06T12:30:3.000Z</time>
      </trkpt>
      <trkpt lat="43.65685" lon="1.8655">
        <ele>231.4</ele>
        <time>2013-11-06T12:30:11.000Z</time>
      </trkpt>
      <trkpt lat="43.65687" lon="1.86539">
        <ele>230.6</ele>
        <time>2013-11-06T12:30:19.000Z</time>
      </trkpt>
      <trkpt lat="43.65687" lon="1.86537">
        <ele>230.5</ele>
        <time>2013-11-06T12:30:20.000Z</time>
      </trkpt>
      <trkpt lat="43.65689" lon="1.86515">
        <ele>229</ele>
        <time>2013-11-06T12:30:35.000Z</time>
      </trkpt>
      <trkpt lat="43.6569" lon="1.86504">
        <ele>227.9</ele>
        <time>2013-11-06T12:30:44.000Z</time>
      </trkpt>
      <trkpt lat="43.6569" lon="1.86491">
        <ele>226.6</ele>
        <time>2013-11-06T12:30:52.000Z</time>
      </trkpt>
      <trkpt lat="43.65688" lon="1.86479">
        <ele>226.2</ele>
        <time>2013-11-06T12:30:59.000Z</time>
      </trkpt>
      <trkpt lat="43.65685" lon="1.86469">
        <ele>225.8</ele>
        <time>2013-11-06T12:31:6.000Z</time>
      </trkpt>
      <trkpt lat="43.65685" lon="1.86457">
        <ele>224.6</ele>
        <time>2013-11-06T12:31:14.000Z</time>
      </trkpt>
      <trkpt lat="43.65692" lon="1.8645">
        <ele>223.4</ele>
        <time>2013-11-06T12:31:24.000Z</time>
      </trkpt>
      <trkpt lat="43.65693" lon="1.8645">
        <ele>223.4</ele>
        <time>2013-11-06T12:31:25.000Z</time>
      </trkpt>
      <trkpt lat="43.65685" lon="1.8644">
        <ele>222.3</ele>
        <time>2013-11-06T12:32:42.000Z</time>
      </trkpt>
      <trkpt lat="43.6568" lon="1.8642">
        <ele>220.7</ele>
        <time>2013-11-06T12:32:56.000Z</time>
      </trkpt>
      <trkpt lat="43.65677" lon="1.86409">
        <ele>219.9</ele>
        <time>2013-11-06T12:33:3.000Z</time>
      </trkpt>
      <trkpt lat="43.65675" lon="1.86397">
        <ele>219.3</ele>
        <time>2013-11-06T12:33:10.000Z</time>
      </trkpt>
      <trkpt lat="43.65673" lon="1.86386">
        <ele>218.4</ele>
        <time>2013-11-06T12:33:17.000Z</time>
      </trkpt>
      <trkpt lat="43.65672" lon="1.86375">
        <ele>217.7</ele>
        <time>2013-11-06T12:33:24.000Z</time>
      </trkpt>
      <trkpt lat="43.65671" lon="1.86363">
        <ele>217.3</ele>
        <time>2013-11-06T12:33:32.000Z</time>
      </trkpt>
      <trkpt lat="43.65669" lon="1.86351">
        <ele>216.7</ele>
        <time>2013-11-06T12:33:40.000Z</time>
      </trkpt>
      <trkpt lat="43.65667" lon="1.8634">
        <ele>216.5</ele>
        <time>2013-11-06T12:33:47.000Z</time>
      </trkpt>
      <trkpt lat="43.65667" lon="1.86338">
        <ele>216.5</ele>
        <time>2013-11-06T12:33:48.000Z</time>
      </trkpt>
      <trkpt lat="43.65665" lon="1.86316">
        <ele>215.8</ele>
        <time>2013-11-06T12:34:2.000Z</time>
      </trkpt>
      <trkpt lat="43.65664" lon="1.86304">
        <ele>215.5</ele>
        <time>2013-11-06T12:34:9.000Z</time>
      </trkpt>
      <trkpt lat="43.65663" lon="1.86292">
        <ele>215.4</ele>
        <time>2013-11-06T12:34:16.000Z</time>
      </trkpt>
      <trkpt lat="43.65661" lon="1.8628">
        <ele>214.9</ele>
        <time>2013-11-06T12:34:24.000Z</time>
      </trkpt>
      <trkpt lat="43.65659" lon="1.86268">
        <ele>214.2</ele>
        <time>2013-11-06T12:34:32.000Z</time>
      </trkpt>
      <trkpt lat="43.65657" lon="1.86256">
        <ele>213.8</ele>
        <time>2013-11-06T12:34:41.000Z</time>
      </trkpt>
      <trkpt lat="43.65657" lon="1.86244">
        <ele>213.5</ele>
        <time>2013-11-06T12:34:52.000Z</time>
      </trkpt>
      <trkpt lat="43.65657" lon="1.86243">
        <ele>213.4</ele>
        <time>2013-11-06T12:34:53.000Z</time>
      </trkpt>
      <trkpt lat="43.65646" lon="1.86262">
        <ele>214.6</ele>
        <time>2013-11-06T12:35:24.000Z</time>
      </trkpt>
      <trkpt lat="43.65641" lon="1.86272">
        <ele>215.6</ele>
        <time>2013-11-06T12:35:34.000Z</time>
      </trkpt>
      <trkpt lat="43.65637" lon="1.86282">
        <ele>216.1</ele>
        <time>2013-11-06T12:35:43.000Z</time>
      </trkpt>
      <trkpt lat="43.65632" lon="1.8629">
        <ele>216.5</ele>
        <time>2013-11-06T12:35:51.000Z</time>
      </trkpt>
      <trkpt lat="43.65625" lon="1.86296">
        <ele>216.9</ele>
        <time>2013-11-06T12:35:59.000Z</time>
      </trkpt>
      <trkpt lat="43.65624" lon="1.86296">
        <ele>216.4</ele>
        <time>2013-11-06T12:36:0.000Z</time>
      </trkpt>
      <trkpt lat="43.65609" lon="1.863">
        <ele>216.2</ele>
        <time>2013-11-06T12:36:14.000Z</time>
      </trkpt>
      <trkpt lat="43.65601" lon="1.86295">
        <ele>215.1</ele>
        <time>2013-11-06T12:36:22.000Z</time>
      </trkpt>
      <trkpt lat="43.65593" lon="1.8629">
        <ele>213.8</ele>
        <time>2013-11-06T12:36:29.000Z</time>
      </trkpt>
      <trkpt lat="43.65586" lon="1.86285">
        <ele>213</ele>
        <time>2013-11-06T12:36:35.000Z</time>
      </trkpt>
      <trkpt lat="43.65579" lon="1.8628">
        <ele>211.7</ele>
        <time>2013-11-06T12:36:41.000Z</time>
      </trkpt>
      <trkpt lat="43.65571" lon="1.86275">
        <ele>210.8</ele>
        <time>2013-11-06T12:36:47.000Z</time>
      </trkpt>
      <trkpt lat="43.65564" lon="1.8627">
        <ele>210</ele>
        <time>2013-11-06T12:36:55.000Z</time>
      </trkpt>
      <trkpt lat="43.65556" lon="1.86266">
        <ele>210</ele>
        <time>2013-11-06T12:37:2.000Z</time>
      </trkpt>
      <trkpt lat="43.65555" lon="1.86265">
        <ele>209.9</ele>
        <time>2013-11-06T12:37:3.000Z</time>
      </trkpt>
      <trkpt lat="43.65542" lon="1.86254">
        <ele>208.7</ele>
        <time>2013-11-06T12:37:17.000Z</time>
      </trkpt>
      <trkpt lat="43.65535" lon="1.86248">
        <ele>208.4</ele>
        <time>2013-11-06T12:37:25.000Z</time>
      </trkpt>
      <trkpt lat="43.65528" lon="1.86243">
        <ele>207.8</ele>
        <time>2013-11-06T12:37:33.000Z</time>
      </trkpt>
      <trkpt lat="43.6552" lon="1.86238">
        <ele>207.1</ele>
        <time>2013-11-06T12:37:41.000Z</time>
      </trkpt>
      <trkpt lat="43.65511" lon="1.86233">
        <ele>205.4</ele>
        <time>2013-11-06T12:37:50.000Z</time>
      </trkpt>
      <trkpt lat="43.65503" lon="1.86228">
        <ele>203.6</ele>
        <time>2013-11-06T12:37:58.000Z</time>
      </trkpt>
      <trkpt lat="43.65496" lon="1.86223">
        <ele>202.1</ele>
        <time>2013-11-06T12:38:5.000Z</time>
      </trkpt>
      <trkpt lat="43.65495" lon="1.86223">
        <ele>202</ele>
        <time>2013-11-06T12:38:6.000Z</time>
      </trkpt>
      <trkpt lat="43.65482" lon="1.86212">
        <ele>199.3</ele>
        <time>2013-11-06T12:38:19.000Z</time>
      </trkpt>
      <trkpt lat="43.65474" lon="1.86207">
        <ele>198</ele>
        <time>2013-11-06T12:38:26.000Z</time>
      </trkpt>
      <trkpt lat="43.65467" lon="1.86202">
        <ele>196.3</ele>
        <time>2013-11-06T12:38:33.000Z</time>
      </trkpt>
      <trkpt lat="43.65459" lon="1.86197">
        <ele>195.2</ele>
        <time>2013-11-06T12:38:40.000Z</time>
      </trkpt>
      <trkpt lat="43.65451" lon="1.86191">
        <ele>193.9</ele>
        <time>2013-11-06T12:38:47.000Z</time>
      </trkpt>
      <trkpt lat="43.65444" lon="1.86186">
        <ele>192.7</ele>
        <time>2013-11-06T12:38:54.000Z</time>
      </trkpt>
      <trkpt lat="43.65437" lon="1.86181">
        <ele>191.2</ele>
        <time>2013-11-06T12:39:1.000Z</time>
      </trkpt>
      <trkpt lat="43.65429" lon="1.86175">
        <ele>189.8</ele>
        <time>2013-11-06T12:39:9.000Z</time>
      </trkpt>
      <trkpt lat="43.65428" lon="1.86174">
        <ele>189.6</ele>
        <time>2013-11-06T12:39:10.000Z</time>
      </trkpt>
      <trkpt lat="43.65414" lon="1.86165">
        <ele>187.9</ele>
        <time>2013-11-06T12:39:24.000Z</time>
      </trkpt>
      <trkpt lat="43.65407" lon="1.8616">
        <ele>187.5</ele>
        <time>2013-11-06T12:39:31.000Z</time>
      </trkpt>
      <trkpt lat="43.65399" lon="1.86155">
        <ele>185.9</ele>
        <time>2013-11-06T12:39:39.000Z</time>
      </trkpt>
      <trkpt lat="43.65391" lon="1.86149">
        <ele>184.9</ele>
        <time>2013-11-06T12:39:47.000Z</time>
      </trkpt>
      <trkpt lat="43.65384" lon="1.86143">
        <ele>183.5</ele>
        <time>2013-11-06T12:39:55.000Z</time>
      </trkpt>
      <trkpt lat="43.65376" lon="1.86137">
        <ele>182.3</ele>
        <time>2013-11-06T12:40:3.000Z</time>
      </trkpt>
      <trkpt lat="43.65368" lon="1.86131">
        <ele>181</ele>
        <time>2013-11-06T12:40:11.000Z</time>
      </trkpt>
      <trkpt lat="43.65367" lon="1.86131">
        <ele>180.8</ele>
        <time>2013-11-06T12:40:12.000Z</time>
      </trkpt>
      <trkpt lat="43.65354" lon="1.8612">
        <ele>179</ele>
        <time>2013-11-06T12:40:25.000Z</time>
      </trkpt>
      <trkpt lat="43.65346" lon="1.86115">
        <ele>178</ele>
        <time>2013-11-06T12:40:32.000Z</time>
      </trkpt>
      <trkpt lat="43.65339" lon="1.86109">
        <ele>177.3</ele>
        <time>2013-11-06T12:40:39.000Z</time>
      </trkpt>
      <trkpt lat="43.65332" lon="1.86104">
        <ele>177</ele>
        <time>2013-11-06T12:40:46.000Z</time>
      </trkpt>
      <trkpt lat="43.65325" lon="1.86099">
        <ele>176.5</ele>
        <time>2013-11-06T12:40:53.000Z</time>
      </trkpt>
      <trkpt lat="43.65317" lon="1.86093">
        <ele>176.1</ele>
        <time>2013-11-06T12:41:0.000Z</time>
      </trkpt>
      <trkpt lat="43.6531" lon="1.86087">
        <ele>175.8</ele>
        <time>2013-11-06T12:41:7.000Z</time>
      </trkpt>
      <trkpt lat="43.65303" lon="1.86082">
        <ele>175</ele>
        <time>2013-11-06T12:41:14.000Z</time>
      </trkpt>
      <trkpt lat="43.65302" lon="1.86081">
        <ele>174.9</ele>
        <time>2013-11-06T12:41:15.000Z</time>
      </trkpt>
      <trkpt lat="43.65288" lon="1.86073">
        <ele>174.2</ele>
        <time>2013-11-06T12:41:28.000Z</time>
      </trkpt>
      <trkpt lat="43.6528" lon="1.86069">
        <ele>174</ele>
        <time>2013-11-06T12:41:36.000Z</time>
      </trkpt>
      <trkpt lat="43.65272" lon="1.86066">
        <ele>173.9</ele>
        <time>2013-11-06T12:41:44.000Z</time>
      </trkpt>
      <trkpt lat="43.65263" lon="1.86065">
        <ele>173.8</ele>
        <time>2013-11-06T12:41:54.000Z</time>
      </trkpt>
      <trkpt lat="43.65257" lon="1.86058">
        <ele>174.5</ele>
        <time>2013-11-06T12:43:3.000Z</time>
      </trkpt>
      <trkpt lat="43.65256" lon="1.86057">
        <ele>174.3</ele>
        <time>2013-11-06T12:43:4.000Z</time>
      </trkpt>
      <trkpt lat="43.65241" lon="1.86052">
        <ele>174.2</ele>
        <time>2013-11-06T12:43:18.000Z</time>
      </trkpt>
      <trkpt lat="43.65234" lon="1.86047">
        <ele>174.2</ele>
        <time>2013-11-06T12:43:25.000Z</time>
      </trkpt>
      <trkpt lat="43.65228" lon="1.8604">
        <ele>174.1</ele>
        <time>2013-11-06T12:43:31.000Z</time>
      </trkpt>
      <trkpt lat="43.65222" lon="1.86032">
        <ele>174.1</ele>
        <time>2013-11-06T12:43:37.000Z</time>
      </trkpt>
      <trkpt lat="43.65216" lon="1.86024">
        <ele>174</ele>
        <time>2013-11-06T12:43:43.000Z</time>
      </trkpt>
      <trkpt lat="43.65211" lon="1.86015">
        <ele>173.9</ele>
        <time>2013-11-06T12:43:49.000Z</time>
      </trkpt>
      <trkpt lat="43.65206" lon="1.86006">
        <ele>173.7</ele>
        <time>2013-11-06T12:43:56.000Z</time>
      </trkpt>
      <trkpt lat="43.65201" lon="1.85998">
        <ele>173.5</ele>
        <time>2013-11-06T12:44:3.000Z</time>
      </trkpt>
      <trkpt lat="43.652" lon="1.85996">
        <ele>173.5</ele>
        <time>2013-11-06T12:44:4.000Z</time>
      </trkpt>
      <trkpt lat="43.6519" lon="1.85979">
        <ele>173.8</ele>
        <time>2013-11-06T12:44:18.000Z</time>
      </trkpt>
      <trkpt lat="43.65185" lon="1.8597">
        <ele>173.8</ele>
        <time>2013-11-06T12:44:25.000Z</time>
      </trkpt>
      <trkpt lat="43.6518" lon="1.85961">
        <ele>174</ele>
        <time>2013-11-06T12:44:33.000Z</time>
      </trkpt>
      <trkpt lat="43.65175" lon="1.85951">
        <ele>173.9</ele>
        <time>2013-11-06T12:44:41.000Z</time>
      </trkpt>
      <trkpt lat="43.65171" lon="1.85941">
        <ele>174.2</ele>
        <time>2013-11-06T12:44:49.000Z</time>
      </trkpt>
      <trkpt lat="43.65169" lon="1.8593">
        <ele>174.8</ele>
        <time>2013-11-06T12:45:2.000Z</time>
      </trkpt>
      <trkpt lat="43.65173" lon="1.85919">
        <ele>174.8</ele>
        <time>2013-11-06T12:45:9.000Z</time>
      </trkpt>
      <trkpt lat="43.65174" lon="1.85918">
        <ele>174.6</ele>
        <time>2013-11-06T12:45:10.000Z</time>
      </trkpt>
      <trkpt lat="43.65185" lon="1.85904">
        <ele>173.9</ele>
        <time>2013-11-06T12:45:22.000Z</time>
      </trkpt>
      <trkpt lat="43.65192" lon="1.85897">
        <ele>174</ele>
        <time>2013-11-06T12:45:29.000Z</time>
      </trkpt>
      <trkpt lat="43.65199" lon="1.8589">
        <ele>174.1</ele>
        <time>2013-11-06T12:45:36.000Z</time>
      </trkpt>
      <trkpt lat="43.65205" lon="1.85882">
        <ele>174.3</ele>
        <time>2013-11-06T12:45:43.000Z</time>
      </trkpt>
      <trkpt lat="43.65211" lon="1.85873">
        <ele>174.7</ele>
        <time>2013-11-06T12:45:51.000Z</time>
      </trkpt>
      <trkpt lat="43.65215" lon="1.85863">
        <ele>175.1</ele>
        <time>2013-11-06T12:45:58.000Z</time>
      </trkpt>
      <trkpt lat="43.65216" lon="1.85852">
        <ele>175.8</ele>
        <time>2013-11-06T12:46:6.000Z</time>
      </trkpt>
      <trkpt lat="43.65215" lon="1.85841">
        <ele>176.2</ele>
        <time>2013-11-06T12:46:13.000Z</time>
      </trkpt>
      <trkpt lat="43.65214" lon="1.85839">
        <ele>176.2</ele>
        <time>2013-11-06T12:46:14.000Z</time>
      </trkpt>
      <trkpt lat="43.65214" lon="1.85818">
        <ele>176.8</ele>
        <time>2013-11-06T12:46:28.000Z</time>
      </trkpt>
      <trkpt lat="43.65213" lon="1.85806">
        <ele>177.4</ele>
        <time>2013-11-06T12:46:36.000Z</time>
      </trkpt>
      <trkpt lat="43.65213" lon="1.85794">
        <ele>178.5</ele>
        <time>2013-11-06T12:46:44.000Z</time>
      </trkpt>
      <trkpt lat="43.65212" lon="1.85783">
        <ele>178.9</ele>
        <time>2013-11-06T12:46:52.000Z</time>
      </trkpt>
      <trkpt lat="43.65211" lon="1.85771">
        <ele>178.9</ele>
        <time>2013-11-06T12:46:59.000Z</time>
      </trkpt>
      <trkpt lat="43.65212" lon="1.8576">
        <ele>179.3</ele>
        <time>2013-11-06T12:47:6.000Z</time>
      </trkpt>
      <trkpt lat="43.65212" lon="1.85749">
        <ele>179.2</ele>
        <time>2013-11-06T12:47:13.000Z</time>
      </trkpt>
      <trkpt lat="43.65211" lon="1.85738">
        <ele>179.6</ele>
        <time>2013-11-06T12:47:21.000Z</time>
      </trkpt>
      <trkpt lat="43.65211" lon="1.85736">
        <ele>179.7</ele>
        <time>2013-11-06T12:47:22.000Z</time>
      </trkpt>
      <trkpt lat="43.65212" lon="1.85715">
        <ele>180</ele>
        <time>2013-11-06T12:47:35.000Z</time>
      </trkpt>
      <trkpt lat="43.65212" lon="1.85703">
        <ele>180.4</ele>
        <time>2013-11-06T12:47:42.000Z</time>
      </trkpt>
      <trkpt lat="43.65211" lon="1.85692">
        <ele>180.9</ele>
        <time>2013-11-06T12:47:49.000Z</time>
      </trkpt>
      <trkpt lat="43.65212" lon="1.8568">
        <ele>180.9</ele>
        <time>2013-11-06T12:47:56.000Z</time>
      </trkpt>
      <trkpt lat="43.65212" lon="1.85669">
        <ele>181.4</ele>
        <time>2013-11-06T12:48:3.000Z</time>
      </trkpt>
      <trkpt lat="43.65212" lon="1.85658">
        <ele>181.8</ele>
        <time>2013-11-06T12:48:10.000Z</time>
      </trkpt>
      <trkpt lat="43.65212" lon="1.85646">
        <ele>181.9</ele>
        <time>2013-11-06T12:48:18.000Z</time>
      </trkpt>
      <trkpt lat="43.65211" lon="1.85633">
        <ele>182.3</ele>
        <time>2013-11-06T12:48:26.000Z</time>
      </trkpt>
      <trkpt lat="43.6521" lon="1.85632">
        <ele>182.3</ele>
        <time>2013-11-06T12:48:27.000Z</time>
      </trkpt>
      <trkpt lat="43.6521" lon="1.8561">
        <ele>183.1</ele>
        <time>2013-11-06T12:48:41.000Z</time>
      </trkpt>
      <trkpt lat="43.6521" lon="1.85598">
        <ele>183.6</ele>
        <time>2013-11-06T12:48:48.000Z</time>
      </trkpt>
      <trkpt lat="43.65211" lon="1.85586">
        <ele>184</ele>
        <time>2013-11-06T12:48:55.000Z</time>
      </trkpt>
      <trkpt lat="43.65211" lon="1.85575">
        <ele>184.4</ele>
        <time>2013-11-06T12:49:2.000Z</time>
      </trkpt>
      <trkpt lat="43.65212" lon="1.85563">
        <ele>184.6</ele>
        <time>2013-11-06T12:49:9.000Z</time>
      </trkpt>
      <trkpt lat="43.65211" lon="1.85552">
        <ele>184.8</ele>
        <time>2013-11-06T12:49:16.000Z</time>
      </trkpt>
      <trkpt lat="43.65211" lon="1.8554">
        <ele>185.4</ele>
        <time>2013-11-06T12:49:24.000Z</time>
      </trkpt>
      <trkpt lat="43.6521" lon="1.85527">
        <ele>185.8</ele>
        <time>2013-11-06T12:49:32.000Z</time>
      </trkpt>
      <trkpt lat="43.6521" lon="1.85526">
        <ele>185.9</ele>
        <time>2013-11-06T12:49:33.000Z</time>
      </trkpt>
      <trkpt lat="43.6521" lon="1.85504">
        <ele>186.4</ele>
        <time>2013-11-06T12:49:46.000Z</time>
      </trkpt>
      <trkpt lat="43.6521" lon="1.85493">
        <ele>187</ele>
        <time>2013-11-06T12:49:52.000Z</time>
      </trkpt>
      <trkpt lat="43.6521" lon="1.85482">
        <ele>187.4</ele>
        <time>2013-11-06T12:49:59.000Z</time>
      </trkpt>
      <trkpt lat="43.65211" lon="1.85471">
        <ele>188.3</ele>
        <time>2013-11-06T12:50:6.000Z</time>
      </trkpt>
      <trkpt lat="43.6521" lon="1.8546">
        <ele>188.9</ele>
        <time>2013-11-06T12:50:13.000Z</time>
      </trkpt>
      <trkpt lat="43.6521" lon="1.85448">
        <ele>189.1</ele>
        <time>2013-11-06T12:50:20.000Z</time>
      </trkpt>
      <trkpt lat="43.65211" lon="1.85437">
        <ele>189.6</ele>
        <time>2013-11-06T12:50:27.000Z</time>
      </trkpt>
      <trkpt lat="43.6521" lon="1.85426">
        <ele>190.2</ele>
        <time>2013-11-06T12:50:34.000Z</time>
      </trkpt>
      <trkpt lat="43.6521" lon="1.85425">
        <ele>190.3</ele>
        <time>2013-11-06T12:50:35.000Z</time>
      </trkpt>
      <trkpt lat="43.6521" lon="1.85404">
        <ele>191.7</ele>
        <time>2013-11-06T12:50:48.000Z</time>
      </trkpt>
      <trkpt lat="43.6521" lon="1.85392">
        <ele>192.2</ele>
        <time>2013-11-06T12:50:55.000Z</time>
      </trkpt>
      <trkpt lat="43.65209" lon="1.85381">
        <ele>193</ele>
        <time>2013-11-06T12:51:2.000Z</time>
      </trkpt>
      <trkpt lat="43.65209" lon="1.8537">
        <ele>193.4</ele>
        <time>2013-11-06T12:51:9.000Z</time>
      </trkpt>
      <trkpt lat="43.65208" lon="1.85359">
        <ele>193.7</ele>
        <time>2013-11-06T12:51:16.000Z</time>
      </trkpt>
      <trkpt lat="43.65207" lon="1.85348">
        <ele>194.2</ele>
        <time>2013-11-06T12:51:23.000Z</time>
      </trkpt>
      <trkpt lat="43.65206" lon="1.85336">
        <ele>195.2</ele>
        <time>2013-11-06T12:51:30.000Z</time>
      </trkpt>
      <trkpt lat="43.65203" lon="1.85324">
        <ele>195.6</ele>
        <time>2013-11-06T12:51:37.000Z</time>
      </trkpt>
      <trkpt lat="43.65203" lon="1.85323">
        <ele>195.7</ele>
        <time>2013-11-06T12:51:38.000Z</time>
      </trkpt>
      <trkpt lat="43.65197" lon="1.85303">
        <ele>196.9</ele>
        <time>2013-11-06T12:51:51.000Z</time>
      </trkpt>
      <trkpt lat="43.65194" lon="1.85292">
        <ele>197</ele>
        <time>2013-11-06T12:51:58.000Z</time>
      </trkpt>
      <trkpt lat="43.65191" lon="1.85282">
        <ele>196.7</ele>
        <time>2013-11-06T12:52:5.000Z</time>
      </trkpt>
      <trkpt lat="43.65188" lon="1.8527">
        <ele>196.4</ele>
        <time>2013-11-06T12:52:12.000Z</time>
      </trkpt>
      <trkpt lat="43.65187" lon="1.85258">
        <ele>195.9</ele>
        <time>2013-11-06T12:52:19.000Z</time>
      </trkpt>
      <trkpt lat="43.65185" lon="1.85247">
        <ele>195.4</ele>
        <time>2013-11-06T12:52:26.000Z</time>
      </trkpt>
      <trkpt lat="43.65185" lon="1.85235">
        <ele>194.9</ele>
        <time>2013-11-06T12:52:33.000Z</time>
      </trkpt>
      <trkpt lat="43.65186" lon="1.85224">
        <ele>194</ele>
        <time>2013-11-06T12:52:39.000Z</time>
      </trkpt>
      <trkpt lat="43.65186" lon="1.85222">
        <ele>193.9</ele>
        <time>2013-11-06T12:52:40.000Z</time>
      </trkpt>
      <trkpt lat="43.65189" lon="1.85202">
        <ele>193</ele>
        <time>2013-11-06T12:52:51.000Z</time>
      </trkpt>
      <trkpt lat="43.65192" lon="1.85191">
        <ele>192.5</ele>
        <time>2013-11-06T12:52:58.000Z</time>
      </trkpt>
      <trkpt lat="43.65195" lon="1.85179">
        <ele>191.6</ele>
        <time>2013-11-06T12:53:5.000Z</time>
      </trkpt>
      <trkpt lat="43.65198" lon="1.85168">
        <ele>191</ele>
        <time>2013-11-06T12:53:12.000Z</time>
      </trkpt>
      <trkpt lat="43.652" lon="1.85156">
        <ele>190.9</ele>
        <time>2013-11-06T12:53:19.000Z</time>
      </trkpt>
      <trkpt lat="43.65202" lon="1.85144">
        <ele>190.3</ele>
        <time>2013-11-06T12:53:26.000Z</time>
      </trkpt>
      <trkpt lat="43.65203" lon="1.85133">
        <ele>189.6</ele>
        <time>2013-11-06T12:53:33.000Z</time>
      </trkpt>
      <trkpt lat="43.65204" lon="1.85122">
        <ele>189.1</ele>
        <time>2013-11-06T12:53:40.000Z</time>
      </trkpt>
      <trkpt lat="43.65205" lon="1.8511">
        <ele>188.3</ele>
        <time>2013-11-06T12:53:48.000Z</time>
      </trkpt>
      <trkpt lat="43.65205" lon="1.85109">
        <ele>188.3</ele>
        <time>2013-11-06T12:53:49.000Z</time>
      </trkpt>
      <trkpt lat="43.65204" lon="1.85087">
        <ele>187.7</ele>
        <time>2013-11-06T12:54:4.000Z</time>
      </trkpt>
      <trkpt lat="43.65202" lon="1.85075">
        <ele>187.1</ele>
        <time>2013-11-06T12:54:13.000Z</time>
      </trkpt>
      <trkpt lat="43.652" lon="1.85064">
        <ele>186.7</ele>
        <time>2013-11-06T12:54:20.000Z</time>
      </trkpt>
      <trkpt lat="43.65198" lon="1.85053">
        <ele>186.1</ele>
        <time>2013-11-06T12:54:27.000Z</time>
      </trkpt>
      <trkpt lat="43.65196" lon="1.85041">
        <ele>185.5</ele>
        <time>2013-11-06T12:54:34.000Z</time>
      </trkpt>
      <trkpt lat="43.65194" lon="1.8503">
        <ele>185.2</ele>
        <time>2013-11-06T12:54:41.000Z</time>
      </trkpt>
      <trkpt lat="43.65193" lon="1.85018">
        <ele>184.8</ele>
        <time>2013-11-06T12:54:48.000Z</time>
      </trkpt>
      <trkpt lat="43.6519" lon="1.85007">
        <ele>184.5</ele>
        <time>2013-11-06T12:54:55.000Z</time>
      </trkpt>
      <trkpt lat="43.6519" lon="1.85006">
        <ele>184.5</ele>
        <time>2013-11-06T12:54:56.000Z</time>
      </trkpt>
      <trkpt lat="43.65186" lon="1.84984">
        <ele>183.6</ele>
        <time>2013-11-06T12:55:9.000Z</time>
      </trkpt>
      <trkpt lat="43.65184" lon="1.84973">
        <ele>183.4</ele>
        <time>2013-11-06T12:55:16.000Z</time>
      </trkpt>
      <trkpt lat="43.65182" lon="1.84962">
        <ele>183.1</ele>
        <time>2013-11-06T12:55:23.000Z</time>
      </trkpt>
      <trkpt lat="43.6518" lon="1.84951">
        <ele>182.7</ele>
        <time>2013-11-06T12:55:30.000Z</time>
      </trkpt>
      <trkpt lat="43.65179" lon="1.84939">
        <ele>182.4</ele>
        <time>2013-11-06T12:55:37.000Z</time>
      </trkpt>
      <trkpt lat="43.65177" lon="1.84928">
        <ele>181.7</ele>
        <time>2013-11-06T12:55:44.000Z</time>
      </trkpt>
      <trkpt lat="43.65175" lon="1.84917">
        <ele>181.6</ele>
        <time>2013-11-06T12:55:51.000Z</time>
      </trkpt>
      <trkpt lat="43.65173" lon="1.84907">
        <ele>181.2</ele>
        <time>2013-11-06T12:55:58.000Z</time>
      </trkpt>
      <trkpt lat="43.65173" lon="1.84905">
        <ele>181.3</ele>
        <time>2013-11-06T12:55:59.000Z</time>
      </trkpt>
      <trkpt lat="43.6517" lon="1.84884">
        <ele>180.5</ele>
        <time>2013-11-06T12:56:12.000Z</time>
      </trkpt>
      <trkpt lat="43.65169" lon="1.84873">
        <ele>180.5</ele>
        <time>2013-11-06T12:56:19.000Z</time>
      </trkpt>
      <trkpt lat="43.65167" lon="1.84862">
        <ele>180.5</ele>
        <time>2013-11-06T12:56:26.000Z</time>
      </trkpt>
      <trkpt lat="43.65165" lon="1.84851">
        <ele>180.6</ele>
        <time>2013-11-06T12:56:33.000Z</time>
      </trkpt>
      <trkpt lat="43.65163" lon="1.8484">
        <ele>180.3</ele>
        <time>2013-11-06T12:56:40.000Z</time>
      </trkpt>
      <trkpt lat="43.65161" lon="1.84828">
        <ele>179.8</ele>
        <time>2013-11-06T12:56:47.000Z</time>
      </trkpt>
      <trkpt lat="43.65159" lon="1.84817">
        <ele>179.7</ele>
        <time>2013-11-06T12:56:54.000Z</time>
      </trkpt>
      <trkpt lat="43.65157" lon="1.84805">
        <ele>179.7</ele>
        <time>2013-11-06T12:57:1.000Z</time>
      </trkpt>
      <trkpt lat="43.65157" lon="1.84803">
        <ele>179.7</ele>
        <time>2013-11-06T12:57:2.000Z</time>
      </trkpt>
      <trkpt lat="43.65154" lon="1.84782">
        <ele>179.3</ele>
        <time>2013-11-06T12:57:15.000Z</time>
      </trkpt>
      <trkpt lat="43.65152" lon="1.8477">
        <ele>179.4</ele>
        <time>2013-11-06T12:57:22.000Z</time>
      </trkpt>
      <trkpt lat="43.6515" lon="1.84759">
        <ele>179.7</ele>
        <time>2013-11-06T12:57:29.000Z</time>
      </trkpt>
      <trkpt lat="43.65149" lon="1.84747">
        <ele>179.8</ele>
        <time>2013-11-06T12:57:36.000Z</time>
      </trkpt>
      <trkpt lat="43.65148" lon="1.84735">
        <ele>180</ele>
        <time>2013-11-06T12:57:43.000Z</time>
      </trkpt>
      <trkpt lat="43.65147" lon="1.84722">
        <ele>180.2</ele>
        <time>2013-11-06T12:57:50.000Z</time>
      </trkpt>
      <trkpt lat="43.65148" lon="1.8471">
        <ele>180.4</ele>
        <time>2013-11-06T12:57:57.000Z</time>
      </trkpt>
      <trkpt lat="43.65148" lon="1.84699">
        <ele>181.3</ele>
        <time>2013-11-06T12:58:4.000Z</time>
      </trkpt>
      <trkpt lat="43.65148" lon="1.84697">
        <ele>181.3</ele>
        <time>2013-11-06T12:58:5.000Z</time>
      </trkpt>
      <trkpt lat="43.65152" lon="1.84676">
        <ele>182</ele>
        <time>2013-11-06T12:58:19.000Z</time>
      </trkpt>
      <trkpt lat="43.65153" lon="1.84664">
        <ele>182.4</ele>
        <time>2013-11-06T12:58:26.000Z</time>
      </trkpt>
      <trkpt lat="43.65153" lon="1.84652">
        <ele>182.7</ele>
        <time>2013-11-06T12:58:33.000Z</time>
      </trkpt>
      <trkpt lat="43.65153" lon="1.84641">
        <ele>183.1</ele>
        <time>2013-11-06T12:58:39.000Z</time>
      </trkpt>
      <trkpt lat="43.65154" lon="1.84629">
        <ele>183.2</ele>
        <time>2013-11-06T12:58:46.000Z</time>
      </trkpt>
      <trkpt lat="43.65154" lon="1.84617">
        <ele>182.9</ele>
        <time>2013-11-06T12:58:53.000Z</time>
      </trkpt>
      <trkpt lat="43.65154" lon="1.84604">
        <ele>183</ele>
        <time>2013-11-06T12:59:0.000Z</time>
      </trkpt>
      <trkpt lat="43.65153" lon="1.84592">
        <ele>182.9</ele>
        <time>2013-11-06T12:59:7.000Z</time>
      </trkpt>
      <trkpt lat="43.65153" lon="1.84591">
        <ele>182.7</ele>
        <time>2013-11-06T12:59:8.000Z</time>
      </trkpt>
      <trkpt lat="43.65149" lon="1.8457">
        <ele>182.7</ele>
        <time>2013-11-06T12:59:21.000Z</time>
      </trkpt>
      <trkpt lat="43.65146" lon="1.84559">
        <ele>182.8</ele>
        <time>2013-11-06T12:59:28.000Z</time>
      </trkpt>
      <trkpt lat="43.65144" lon="1.84549">
        <ele>183</ele>
        <time>2013-11-06T12:59:34.000Z</time>
      </trkpt>
      <trkpt lat="43.65141" lon="1.84538">
        <ele>183</ele>
        <time>2013-11-06T12:59:41.000Z</time>
      </trkpt>
      <trkpt lat="43.65139" lon="1.84527">
        <ele>182.9</ele>
        <time>2013-11-06T12:59:48.000Z</time>
      </trkpt>
      <trkpt lat="43.65136" lon="1.84516">
        <ele>183.2</ele>
        <time>2013-11-06T12:59:55.000Z</time>
      </trkpt>
      <trkpt lat="43.65134" lon="1.84505">
        <ele>183.2</ele>
        <time>2013-11-06T13:00:2.000Z</time>
      </trkpt>
      <trkpt lat="43.65132" lon="1.84493">
        <ele>183.7</ele>
        <time>2013-11-06T13:00:9.000Z</time>
      </trkpt>
      <trkpt lat="43.65132" lon="1.84492">
        <ele>183.8</ele>
        <time>2013-11-06T13:00:10.000Z</time>
      </trkpt>
      <trkpt lat="43.65133" lon="1.8447">
        <ele>184.3</ele>
        <time>2013-11-06T13:00:23.000Z</time>
      </trkpt>
      <trkpt lat="43.65136" lon="1.8446">
        <ele>184.6</ele>
        <time>2013-11-06T13:00:29.000Z</time>
      </trkpt>
      <trkpt lat="43.6514" lon="1.84449">
        <ele>184.8</ele>
        <time>2013-11-06T13:00:36.000Z</time>
      </trkpt>
      <trkpt lat="43.65142" lon="1.84439">
        <ele>184.6</ele>
        <time>2013-11-06T13:00:42.000Z</time>
      </trkpt>
      <trkpt lat="43.65145" lon="1.84427">
        <ele>184.8</ele>
        <time>2013-11-06T13:00:49.000Z</time>
      </trkpt>
      <trkpt lat="43.65148" lon="1.84417">
        <ele>184.8</ele>
        <time>2013-11-06T13:00:56.000Z</time>
      </trkpt>
      <trkpt lat="43.65151" lon="1.84406">
        <ele>185.1</ele>
        <time>2013-11-06T13:01:3.000Z</time>
      </trkpt>
      <trkpt lat="43.65153" lon="1.84395">
        <ele>185.9</ele>
        <time>2013-11-06T13:01:10.000Z</time>
      </trkpt>
      <trkpt lat="43.65154" lon="1.84394">
        <ele>186.2</ele>
        <time>2013-11-06T13:01:11.000Z</time>
      </trkpt>
      <trkpt lat="43.6516" lon="1.84375">
        <ele>186.9</ele>
        <time>2013-11-06T13:01:24.000Z</time>
      </trkpt>
      <trkpt lat="43.65163" lon="1.84364">
        <ele>187.8</ele>
        <time>2013-11-06T13:01:32.000Z</time>
      </trkpt>
      <trkpt lat="43.65166" lon="1.84353">
        <ele>188.5</ele>
        <time>2013-11-06T13:01:40.000Z</time>
      </trkpt>
      <trkpt lat="43.65169" lon="1.84341">
        <ele>189.2</ele>
        <time>2013-11-06T13:01:48.000Z</time>
      </trkpt>
      <trkpt lat="43.65172" lon="1.8433">
        <ele>191.1</ele>
        <time>2013-11-06T13:01:58.000Z</time>
      </trkpt>
      <trkpt lat="43.65175" lon="1.8432">
        <ele>192.5</ele>
        <time>2013-11-06T13:02:27.000Z</time>
      </trkpt>
      <trkpt lat="43.65176" lon="1.84318">
        <ele>192.7</ele>
        <time>2013-11-06T13:02:28.000Z</time>
      </trkpt>
      <trkpt lat="43.6518" lon="1.84297">
        <ele>194.5</ele>
        <time>2013-11-06T13:02:43.000Z</time>
      </trkpt>
      <trkpt lat="43.65184" lon="1.84286">
        <ele>195.9</ele>
        <time>2013-11-06T13:02:51.000Z</time>
      </trkpt>
      <trkpt lat="43.65188" lon="1.84275">
        <ele>197.1</ele>
        <time>2013-11-06T13:02:59.000Z</time>
      </trkpt>
      <trkpt lat="43.65192" lon="1.84264">
        <ele>198.3</ele>
        <time>2013-11-06T13:03:7.000Z</time>
      </trkpt>
      <trkpt lat="43.65196" lon="1.84254">
        <ele>199.4</ele>
        <time>2013-11-06T13:03:15.000Z</time>
      </trkpt>
      <trkpt lat="43.652" lon="1.84245">
        <ele>200.6</ele>
        <time>2013-11-06T13:03:23.000Z</time>
      </trkpt>
      <trkpt lat="43.65204" lon="1.84234">
        <ele>202.1</ele>
        <time>2013-11-06T13:03:32.000Z</time>
      </trkpt>
      <trkpt lat="43.65204" lon="1.84232">
        <ele>202.3</ele>
        <time>2013-11-06T13:03:33.000Z</time>
      </trkpt>
      <trkpt lat="43.65212" lon="1.84212">
        <ele>204.8</ele>
        <time>2013-11-06T13:03:49.000Z</time>
      </trkpt>
      <trkpt lat="43.65215" lon="1.84201">
        <ele>206.3</ele>
        <time>2013-11-06T13:03:57.000Z</time>
      </trkpt>
      <trkpt lat="43.65218" lon="1.8419">
        <ele>207</ele>
        <time>2013-11-06T13:04:5.000Z</time>
      </trkpt>
      <trkpt lat="43.65223" lon="1.84179">
        <ele>208.8</ele>
        <time>2013-11-06T13:04:17.000Z</time>
      </trkpt>
      <trkpt lat="43.65226" lon="1.84168">
        <ele>210.1</ele>
        <time>2013-11-06T13:05:15.000Z</time>
      </trkpt>
      <trkpt lat="43.65226" lon="1.84168">
        <ele>210.1</ele>
        <time>2013-11-06T13:05:16.000Z</time>
      </trkpt>
      <trkpt lat="43.65221" lon="1.84146">
        <ele>210.9</ele>
        <time>2013-11-06T13:05:51.000Z</time>
      </trkpt>
      <trkpt lat="43.6522" lon="1.84135">
        <ele>212</ele>
        <time>2013-11-06T13:05:58.000Z</time>
      </trkpt>
      <trkpt lat="43.65217" lon="1.84123">
        <ele>212.7</ele>
        <time>2013-11-06T13:06:6.000Z</time>
      </trkpt>
      <trkpt lat="43.65212" lon="1.84113">
        <ele>213.5</ele>
        <time>2013-11-06T13:06:14.000Z</time>
      </trkpt>
      <trkpt lat="43.65207" lon="1.84104">
        <ele>214.5</ele>
        <time>2013-11-06T13:06:22.000Z</time>
      </trkpt>
      <trkpt lat="43.65207" lon="1.84103">
        <ele>214.7</ele>
        <time>2013-11-06T13:06:23.000Z</time>
      </trkpt>
      <trkpt lat="43.6521" lon="1.84092">
        <ele>215.7</ele>
        <time>2013-11-06T13:14:4.000Z</time>
      </trkpt>
      <trkpt lat="43.65217" lon="1.84072">
        <ele>215.8</ele>
        <time>2013-11-06T13:14:21.000Z</time>
      </trkpt>
      <trkpt lat="43.65221" lon="1.84062">
        <ele>215.7</ele>
        <time>2013-11-06T13:14:29.000Z</time>
      </trkpt>
      <trkpt lat="43.65224" lon="1.84051">
        <ele>215.8</ele>
        <time>2013-11-06T13:14:41.000Z</time>
      </trkpt>
      <trkpt lat="43.65228" lon="1.84041">
        <ele>215.2</ele>
        <time>2013-11-06T13:14:49.000Z</time>
      </trkpt>
      <trkpt lat="43.65232" lon="1.84031">
        <ele>214.9</ele>
        <time>2013-11-06T13:15:9.000Z</time>
      </trkpt>
      <trkpt lat="43.65233" lon="1.8403">
        <ele>214.9</ele>
        <time>2013-11-06T13:15:10.000Z</time>
      </trkpt>
      <trkpt lat="43.65241" lon="1.8401">
        <ele>213.7</ele>
        <time>2013-11-06T13:15:30.000Z</time>
      </trkpt>
      <trkpt lat="43.65244" lon="1.83998">
        <ele>212.9</ele>
        <time>2013-11-06T13:15:39.000Z</time>
      </trkpt>
      <trkpt lat="43.65247" lon="1.83987">
        <ele>212.3</ele>
        <time>2013-11-06T13:15:48.000Z</time>
      </trkpt>
      <trkpt lat="43.65249" lon="1.83976">
        <ele>211.6</ele>
        <time>2013-11-06T13:15:56.000Z</time>
      </trkpt>
      <trkpt lat="43.6525" lon="1.83965">
        <ele>210.7</ele>
        <time>2013-11-06T13:16:5.000Z</time>
      </trkpt>
      <trkpt lat="43.65251" lon="1.83953">
        <ele>209.8</ele>
        <time>2013-11-06T13:16:13.000Z</time>
      </trkpt>
      <trkpt lat="43.65251" lon="1.83952">
        <ele>209.8</ele>
        <time>2013-11-06T13:16:14.000Z</time>
      </trkpt>
      <trkpt lat="43.65254" lon="1.83929">
        <ele>208</ele>
        <time>2013-11-06T13:16:30.000Z</time>
      </trkpt>
      <trkpt lat="43.65255" lon="1.83917">
        <ele>207.1</ele>
        <time>2013-11-06T13:16:38.000Z</time>
      </trkpt>
      <trkpt lat="43.65254" lon="1.83905">
        <ele>205.7</ele>
        <time>2013-11-06T13:16:46.000Z</time>
      </trkpt>
      <trkpt lat="43.65253" lon="1.83894">
        <ele>205</ele>
        <time>2013-11-06T13:16:53.000Z</time>
      </trkpt>
      <trkpt lat="43.65251" lon="1.83882">
        <ele>204.2</ele>
        <time>2013-11-06T13:17:0.000Z</time>
      </trkpt>
      <trkpt lat="43.6525" lon="1.83871">
        <ele>203.4</ele>
        <time>2013-11-06T13:17:7.000Z</time>
      </trkpt>
      <trkpt lat="43.65249" lon="1.8386">
        <ele>202.6</ele>
        <time>2013-11-06T13:17:14.000Z</time>
      </trkpt>
      <trkpt lat="43.6525" lon="1.83858">
        <ele>202.4</ele>
        <time>2013-11-06T13:17:15.000Z</time>
      </trkpt>
      <trkpt lat="43.65256" lon="1.83839">
        <ele>201.8</ele>
        <time>2013-11-06T13:17:28.000Z</time>
      </trkpt>
      <trkpt lat="43.65261" lon="1.83831">
        <ele>201.9</ele>
        <time>2013-11-06T13:17:34.000Z</time>
      </trkpt>
      <trkpt lat="43.65266" lon="1.83822">
        <ele>202.1</ele>
        <time>2013-11-06T13:17:40.000Z</time>
      </trkpt>
      <trkpt lat="43.65272" lon="1.83814">
        <ele>202.1</ele>
        <time>2013-11-06T13:17:47.000Z</time>
      </trkpt>
      <trkpt lat="43.65278" lon="1.83806">
        <ele>202.7</ele>
        <time>2013-11-06T13:17:54.000Z</time>
      </trkpt>
      <trkpt lat="43.65283" lon="1.83797">
        <ele>203.1</ele>
        <time>2013-11-06T13:18:2.000Z</time>
      </trkpt>
      <trkpt lat="43.65286" lon="1.83786">
        <ele>204</ele>
        <time>2013-11-06T13:18:11.000Z</time>
      </trkpt>
      <trkpt lat="43.65287" lon="1.83774">
        <ele>204.9</ele>
        <time>2013-11-06T13:18:21.000Z</time>
      </trkpt>
      <trkpt lat="43.65287" lon="1.83772">
        <ele>205.1</ele>
        <time>2013-11-06T13:18:22.000Z</time>
      </trkpt>
      <trkpt lat="43.65288" lon="1.83751">
        <ele>207.2</ele>
        <time>2013-11-06T13:18:37.000Z</time>
      </trkpt>
      <trkpt lat="43.6529" lon="1.83739">
        <ele>208</ele>
        <time>2013-11-06T13:18:45.000Z</time>
      </trkpt>
      <trkpt lat="43.65291" lon="1.83727">
        <ele>208.9</ele>
        <time>2013-11-06T13:18:53.000Z</time>
      </trkpt>
      <trkpt lat="43.65292" lon="1.83716">
        <ele>210.1</ele>
        <time>2013-11-06T13:19:1.000Z</time>
      </trkpt>
      <trkpt lat="43.65293" lon="1.83705">
        <ele>210.9</ele>
        <time>2013-11-06T13:19:8.000Z</time>
      </trkpt>
      <trkpt lat="43.65294" lon="1.83694">
        <ele>211.8</ele>
        <time>2013-11-06T13:19:15.000Z</time>
      </trkpt>
      <trkpt lat="43.65296" lon="1.83683">
        <ele>212.9</ele>
        <time>2013-11-06T13:19:22.000Z</time>
      </trkpt>
      <trkpt lat="43.65296" lon="1.83682">
        <ele>213</ele>
        <time>2013-11-06T13:19:23.000Z</time>
      </trkpt>
      <trkpt lat="43.65299" lon="1.83661">
        <ele>215.1</ele>
        <time>2013-11-06T13:19:37.000Z</time>
      </trkpt>
      <trkpt lat="43.65301" lon="1.8365">
        <ele>216.4</ele>
        <time>2013-11-06T13:19:44.000Z</time>
      </trkpt>
      <trkpt lat="43.65303" lon="1.8364">
        <ele>217.5</ele>
        <time>2013-11-06T13:19:51.000Z</time>
      </trkpt>
      <trkpt lat="43.65304" lon="1.83628">
        <ele>218.6</ele>
        <time>2013-11-06T13:19:58.000Z</time>
      </trkpt>
      <trkpt lat="43.65306" lon="1.83616">
        <ele>219.8</ele>
        <time>2013-11-06T13:20:5.000Z</time>
      </trkpt>
      <trkpt lat="43.65308" lon="1.83604">
        <ele>220.9</ele>
        <time>2013-11-06T13:20:12.000Z</time>
      </trkpt>
      <trkpt lat="43.65309" lon="1.83593">
        <ele>222</ele>
        <time>2013-11-06T13:20:19.000Z</time>
      </trkpt>
      <trkpt lat="43.65311" lon="1.83581">
        <ele>222.9</ele>
        <time>2013-11-06T13:20:26.000Z</time>
      </trkpt>
      <trkpt lat="43.65311" lon="1.83579">
        <ele>223</ele>
        <time>2013-11-06T13:20:27.000Z</time>
      </trkpt>
      <trkpt lat="43.65315" lon="1.83559">
        <ele>224.9</ele>
        <time>2013-11-06T13:20:40.000Z</time>
      </trkpt>
      <trkpt lat="43.65318" lon="1.83547">
        <ele>225.9</ele>
        <time>2013-11-06T13:20:48.000Z</time>
      </trkpt>
      <trkpt lat="43.65325" lon="1.83546">
        <ele>226</ele>
        <time>2013-11-06T13:24:19.000Z</time>
      </trkpt>
      <trkpt lat="43.65329" lon="1.83544">
        <ele>225.9</ele>
        <time>2013-11-06T13:24:20.000Z</time>
      </trkpt>
      <trkpt lat="43.65341" lon="1.83542">
        <ele>226</ele>
        <time>2013-11-06T13:24:31.000Z</time>
      </trkpt>
      <trkpt lat="43.6535" lon="1.83541">
        <ele>226.1</ele>
        <time>2013-11-06T13:24:39.000Z</time>
      </trkpt>
      <trkpt lat="43.65357" lon="1.83539">
        <ele>226.1</ele>
        <time>2013-11-06T13:24:46.000Z</time>
      </trkpt>
      <trkpt lat="43.65365" lon="1.83538">
        <ele>226.3</ele>
        <time>2013-11-06T13:24:53.000Z</time>
      </trkpt>
      <trkpt lat="43.65373" lon="1.83535">
        <ele>226.5</ele>
        <time>2013-11-06T13:24:59.000Z</time>
      </trkpt>
      <trkpt lat="43.65382" lon="1.83533">
        <ele>226.6</ele>
        <time>2013-11-06T13:25:6.000Z</time>
      </trkpt>
      <trkpt lat="43.6539" lon="1.8353">
        <ele>226.7</ele>
        <time>2013-11-06T13:25:13.000Z</time>
      </trkpt>
      <trkpt lat="43.65398" lon="1.83527">
        <ele>227.3</ele>
        <time>2013-11-06T13:25:20.000Z</time>
      </trkpt>
      <trkpt lat="43.65399" lon="1.83527">
        <ele>227.4</ele>
        <time>2013-11-06T13:25:21.000Z</time>
      </trkpt>
      <trkpt lat="43.65414" lon="1.83521">
        <ele>227.3</ele>
        <time>2013-11-06T13:25:33.000Z</time>
      </trkpt>
      <trkpt lat="43.65422" lon="1.83518">
        <ele>227.7</ele>
        <time>2013-11-06T13:25:40.000Z</time>
      </trkpt>
      <trkpt lat="43.65431" lon="1.83515">
        <ele>228.2</ele>
        <time>2013-11-06T13:25:48.000Z</time>
      </trkpt>
      <trkpt lat="43.65439" lon="1.83512">
        <ele>228.1</ele>
        <time>2013-11-06T13:25:55.000Z</time>
      </trkpt>
      <trkpt lat="43.65447" lon="1.83508">
        <ele>228.3</ele>
        <time>2013-11-06T13:26:2.000Z</time>
      </trkpt>
      <trkpt lat="43.65454" lon="1.83503">
        <ele>228.6</ele>
        <time>2013-11-06T13:26:10.000Z</time>
      </trkpt>
      <trkpt lat="43.65462" lon="1.83497">
        <ele>229.2</ele>
        <time>2013-11-06T13:26:19.000Z</time>
      </trkpt>
      <trkpt lat="43.65469" lon="1.83491">
        <ele>229.5</ele>
        <time>2013-11-06T13:26:26.000Z</time>
      </trkpt>
      <trkpt lat="43.6547" lon="1.8349">
        <ele>229.6</ele>
        <time>2013-11-06T13:26:27.000Z</time>
      </trkpt>
      <trkpt lat="43.6548" lon="1.83476">
        <ele>230.7</ele>
        <time>2013-11-06T13:26:39.000Z</time>
      </trkpt>
      <trkpt lat="43.65484" lon="1.83466">
        <ele>231.1</ele>
        <time>2013-11-06T13:26:47.000Z</time>
      </trkpt>
      <trkpt lat="43.65491" lon="1.83457">
        <ele>232.2</ele>
        <time>2013-11-06T13:27:9.000Z</time>
      </trkpt>
      <trkpt lat="43.65495" lon="1.83448">
        <ele>232.6</ele>
        <time>2013-11-06T13:27:18.000Z</time>
      </trkpt>
      <trkpt lat="43.65501" lon="1.83439">
        <ele>233.8</ele>
        <time>2013-11-06T13:27:26.000Z</time>
      </trkpt>
      <trkpt lat="43.65507" lon="1.83431">
        <ele>234.8</ele>
        <time>2013-11-06T13:27:33.000Z</time>
      </trkpt>
      <trkpt lat="43.65508" lon="1.8343">
        <ele>234.8</ele>
        <time>2013-11-06T13:27:34.000Z</time>
      </trkpt>
      <trkpt lat="43.65517" lon="1.83413">
        <ele>236</ele>
        <time>2013-11-06T13:27:47.000Z</time>
      </trkpt>
      <trkpt lat="43.65524" lon="1.83405">
        <ele>236.8</ele>
        <time>2013-11-06T13:27:54.000Z</time>
      </trkpt>
      <trkpt lat="43.65529" lon="1.83397">
        <ele>237.1</ele>
        <time>2013-11-06T13:28:1.000Z</time>
      </trkpt>
      <trkpt lat="43.65535" lon="1.83389">
        <ele>237.4</ele>
        <time>2013-11-06T13:28:8.000Z</time>
      </trkpt>
      <trkpt lat="43.6554" lon="1.83381">
        <ele>237.1</ele>
        <time>2013-11-06T13:28:16.000Z</time>
      </trkpt>
      <trkpt lat="43.65547" lon="1.83373">
        <ele>236.6</ele>
        <time>2013-11-06T13:28:23.000Z</time>
      </trkpt>
      <trkpt lat="43.65554" lon="1.83366">
        <ele>236.3</ele>
        <time>2013-11-06T13:28:30.000Z</time>
      </trkpt>
      <trkpt lat="43.6556" lon="1.83358">
        <ele>235.3</ele>
        <time>2013-11-06T13:28:43.000Z</time>
      </trkpt>
      <trkpt lat="43.65561" lon="1.83357">
        <ele>235.4</ele>
        <time>2013-11-06T13:28:44.000Z</time>
      </trkpt>
      <trkpt lat="43.65574" lon="1.83345">
        <ele>234.4</ele>
        <time>2013-11-06T13:28:56.000Z</time>
      </trkpt>
      <trkpt lat="43.65581" lon="1.83338">
        <ele>233.7</ele>
        <time>2013-11-06T13:29:3.000Z</time>
      </trkpt>
      <trkpt lat="43.65589" lon="1.83332">
        <ele>232.8</ele>
        <time>2013-11-06T13:29:10.000Z</time>
      </trkpt>
      <trkpt lat="43.65596" lon="1.83327">
        <ele>231.9</ele>
        <time>2013-11-06T13:29:18.000Z</time>
      </trkpt>
      <trkpt lat="43.65604" lon="1.83322">
        <ele>231.3</ele>
        <time>2013-11-06T13:29:24.000Z</time>
      </trkpt>
      <trkpt lat="43.65612" lon="1.83318">
        <ele>230.8</ele>
        <time>2013-11-06T13:29:31.000Z</time>
      </trkpt>
      <trkpt lat="43.6562" lon="1.83313">
        <ele>231.1</ele>
        <time>2013-11-06T13:29:38.000Z</time>
      </trkpt>
      <trkpt lat="43.65626" lon="1.83306">
        <ele>231</ele>
        <time>2013-11-06T13:29:45.000Z</time>
      </trkpt>
      <trkpt lat="43.65627" lon="1.83305">
        <ele>230.9</ele>
        <time>2013-11-06T13:29:46.000Z</time>
      </trkpt>
      <trkpt lat="43.65639" lon="1.83293">
        <ele>230.5</ele>
        <time>2013-11-06T13:30:0.000Z</time>
      </trkpt>
      <trkpt lat="43.65646" lon="1.83286">
        <ele>230.5</ele>
        <time>2013-11-06T13:30:6.000Z</time>
      </trkpt>
      <trkpt lat="43.65652" lon="1.83277">
        <ele>229.7</ele>
        <time>2013-11-06T13:30:13.000Z</time>
      </trkpt>
      <trkpt lat="43.65658" lon="1.83269">
        <ele>229.8</ele>
        <time>2013-11-06T13:30:20.000Z</time>
      </trkpt>
      <trkpt lat="43.65665" lon="1.83262">
        <ele>229.6</ele>
        <time>2013-11-06T13:30:27.000Z</time>
      </trkpt>
      <trkpt lat="43.65673" lon="1.83257">
        <ele>230.1</ele>
        <time>2013-11-06T13:30:34.000Z</time>
      </trkpt>
      <trkpt lat="43.6568" lon="1.83251">
        <ele>230.2</ele>
        <time>2013-11-06T13:30:42.000Z</time>
      </trkpt>
      <trkpt lat="43.65685" lon="1.83242">
        <ele>230.4</ele>
        <time>2013-11-06T13:30:49.000Z</time>
      </trkpt>
      <trkpt lat="43.65686" lon="1.83241">
        <ele>230.5</ele>
        <time>2013-11-06T13:30:50.000Z</time>
      </trkpt>
      <trkpt lat="43.65695" lon="1.83224">
        <ele>229.9</ele>
        <time>2013-11-06T13:31:3.000Z</time>
      </trkpt>
      <trkpt lat="43.657" lon="1.83214">
        <ele>229.5</ele>
        <time>2013-11-06T13:31:10.000Z</time>
      </trkpt>
      <trkpt lat="43.65707" lon="1.8321">
        <ele>228.7</ele>
        <time>2013-11-06T13:31:19.000Z</time>
      </trkpt>
      <trkpt lat="43.65714" lon="1.83218">
        <ele>228.2</ele>
        <time>2013-11-06T13:31:41.000Z</time>
      </trkpt>
      <trkpt lat="43.65719" lon="1.83226">
        <ele>228.1</ele>
        <time>2013-11-06T13:31:47.000Z</time>
      </trkpt>
      <trkpt lat="43.65723" lon="1.83236">
        <ele>228</ele>
        <time>2013-11-06T13:31:54.000Z</time>
      </trkpt>
      <trkpt lat="43.65724" lon="1.83237">
        <ele>228.1</ele>
        <time>2013-11-06T13:31:55.000Z</time>
      </trkpt>
      <trkpt lat="43.65732" lon="1.83255">
        <ele>227.4</ele>
        <time>2013-11-06T13:32:8.000Z</time>
      </trkpt>
      <trkpt lat="43.65737" lon="1.83264">
        <ele>227</ele>
        <time>2013-11-06T13:32:15.000Z</time>
      </trkpt>
      <trkpt lat="43.65742" lon="1.83273">
        <ele>226.6</ele>
        <time>2013-11-06T13:32:22.000Z</time>
      </trkpt>
      <trkpt lat="43.65747" lon="1.83282">
        <ele>225.8</ele>
        <time>2013-11-06T13:32:29.000Z</time>
      </trkpt>
      <trkpt lat="43.65751" lon="1.83291">
        <ele>225.2</ele>
        <time>2013-11-06T13:32:36.000Z</time>
      </trkpt>
      <trkpt lat="43.65756" lon="1.83301">
        <ele>224.9</ele>
        <time>2013-11-06T13:32:43.000Z</time>
      </trkpt>
      <trkpt lat="43.65762" lon="1.8331">
        <ele>224.3</ele>
        <time>2013-11-06T13:32:50.000Z</time>
      </trkpt>
      <trkpt lat="43.65767" lon="1.83319">
        <ele>223.5</ele>
        <time>2013-11-06T13:32:57.000Z</time>
      </trkpt>
      <trkpt lat="43.65768" lon="1.83321">
        <ele>223.4</ele>
        <time>2013-11-06T13:32:58.000Z</time>
      </trkpt>
      <trkpt lat="43.65776" lon="1.83338">
        <ele>221.7</ele>
        <time>2013-11-06T13:33:11.000Z</time>
      </trkpt>
      <trkpt lat="43.6578" lon="1.83348">
        <ele>220.7</ele>
        <time>2013-11-06T13:33:18.000Z</time>
      </trkpt>
      <trkpt lat="43.65785" lon="1.83358">
        <ele>220</ele>
        <time>2013-11-06T13:33:25.000Z</time>
      </trkpt>
      <trkpt lat="43.6579" lon="1.83368">
        <ele>218.9</ele>
        <time>2013-11-06T13:33:32.000Z</time>
      </trkpt>
      <trkpt lat="43.65794" lon="1.83378">
        <ele>218.1</ele>
        <time>2013-11-06T13:33:39.000Z</time>
      </trkpt>
      <trkpt lat="43.65798" lon="1.83388">
        <ele>217.1</ele>
        <time>2013-11-06T13:33:46.000Z</time>
      </trkpt>
      <trkpt lat="43.65802" lon="1.83398">
        <ele>216.1</ele>
        <time>2013-11-06T13:33:53.000Z</time>
      </trkpt>
      <trkpt lat="43.65807" lon="1.83407">
        <ele>215.2</ele>
        <time>2013-11-06T13:34:0.000Z</time>
      </trkpt>
      <trkpt lat="43.65808" lon="1.83408">
        <ele>215.2</ele>
        <time>2013-11-06T13:34:1.000Z</time>
      </trkpt>
      <trkpt lat="43.65818" lon="1.83425">
        <ele>214.4</ele>
        <time>2013-11-06T13:34:15.000Z</time>
      </trkpt>
      <trkpt lat="43.65823" lon="1.83436">
        <ele>213.7</ele>
        <time>2013-11-06T13:34:23.000Z</time>
      </trkpt>
      <trkpt lat="43.65827" lon="1.83445">
        <ele>213.4</ele>
        <time>2013-11-06T13:34:30.000Z</time>
      </trkpt>
      <trkpt lat="43.65832" lon="1.83455">
        <ele>213.3</ele>
        <time>2013-11-06T13:34:37.000Z</time>
      </trkpt>
      <trkpt lat="43.65836" lon="1.83464">
        <ele>212.9</ele>
        <time>2013-11-06T13:34:44.000Z</time>
      </trkpt>
      <trkpt lat="43.65841" lon="1.83473">
        <ele>212.7</ele>
        <time>2013-11-06T13:34:50.000Z</time>
      </trkpt>
      <trkpt lat="43.65846" lon="1.83482">
        <ele>212.7</ele>
        <time>2013-11-06T13:34:57.000Z</time>
      </trkpt>
      <trkpt lat="43.6585" lon="1.83492">
        <ele>211.8</ele>
        <time>2013-11-06T13:35:4.000Z</time>
      </trkpt>
      <trkpt lat="43.6585" lon="1.83493">
        <ele>211.6</ele>
        <time>2013-11-06T13:35:5.000Z</time>
      </trkpt>
      <trkpt lat="43.65859" lon="1.8351">
        <ele>210.8</ele>
        <time>2013-11-06T13:35:18.000Z</time>
      </trkpt>
      <trkpt lat="43.65864" lon="1.83519">
        <ele>210.4</ele>
        <time>2013-11-06T13:35:25.000Z</time>
      </trkpt>
      <trkpt lat="43.65868" lon="1.83529">
        <ele>210.1</ele>
        <time>2013-11-06T13:35:33.000Z</time>
      </trkpt>
      <trkpt lat="43.65873" lon="1.83539">
        <ele>210.3</ele>
        <time>2013-11-06T13:35:41.000Z</time>
      </trkpt>
      <trkpt lat="43.6588" lon="1.83547">
        <ele>209.9</ele>
        <time>2013-11-06T13:35:48.000Z</time>
      </trkpt>
      <trkpt lat="43.65885" lon="1.83554">
        <ele>209.7</ele>
        <time>2013-11-06T13:35:54.000Z</time>
      </trkpt>
      <trkpt lat="43.65891" lon="1.83563">
        <ele>209.7</ele>
        <time>2013-11-06T13:36:1.000Z</time>
      </trkpt>
      <trkpt lat="43.65896" lon="1.83571">
        <ele>209.7</ele>
        <time>2013-11-06T13:36:8.000Z</time>
      </trkpt>
      <trkpt lat="43.65897" lon="1.83573">
        <ele>209.8</ele>
        <time>2013-11-06T13:36:9.000Z</time>
      </trkpt>
      <trkpt lat="43.65908" lon="1.83587">
        <ele>210.5</ele>
        <time>2013-11-06T13:36:22.000Z</time>
      </trkpt>
      <trkpt lat="43.65915" lon="1.83595">
        <ele>210.8</ele>
        <time>2013-11-06T13:36:30.000Z</time>
      </trkpt>
      <trkpt lat="43.65921" lon="1.83603">
        <ele>211.5</ele>
        <time>2013-11-06T13:36:38.000Z</time>
      </trkpt>
      <trkpt lat="43.65929" lon="1.83606">
        <ele>212.2</ele>
        <time>2013-11-06T13:36:44.000Z</time>
      </trkpt>
      <trkpt lat="43.65934" lon="1.83614">
        <ele>212.3</ele>
        <time>2013-11-06T13:36:51.000Z</time>
      </trkpt>
      <trkpt lat="43.65941" lon="1.83621">
        <ele>212.5</ele>
        <time>2013-11-06T13:36:58.000Z</time>
      </trkpt>
      <trkpt lat="43.65949" lon="1.83628">
        <ele>212.6</ele>
        <time>2013-11-06T13:37:5.000Z</time>
      </trkpt>
      <trkpt lat="43.65954" lon="1.83636">
        <ele>212.9</ele>
        <time>2013-11-06T13:37:12.000Z</time>
      </trkpt>
      <trkpt lat="43.65955" lon="1.83637">
        <ele>212.9</ele>
        <time>2013-11-06T13:37:13.000Z</time>
      </trkpt>
      <trkpt lat="43.65967" lon="1.8365">
        <ele>214.2</ele>
        <time>2013-11-06T13:37:27.000Z</time>
      </trkpt>
      <trkpt lat="43.65975" lon="1.83656">
        <ele>215.1</ele>
        <time>2013-11-06T13:37:35.000Z</time>
      </trkpt>
      <trkpt lat="43.65982" lon="1.83661">
        <ele>215.8</ele>
        <time>2013-11-06T13:37:42.000Z</time>
      </trkpt>
      <trkpt lat="43.65989" lon="1.83662">
        <ele>216.7</ele>
        <time>2013-11-06T13:37:48.000Z</time>
      </trkpt>
      <trkpt lat="43.65997" lon="1.83665">
        <ele>217.6</ele>
        <time>2013-11-06T13:37:54.000Z</time>
      </trkpt>
      <trkpt lat="43.66006" lon="1.83667">
        <ele>218.6</ele>
        <time>2013-11-06T13:38:1.000Z</time>
      </trkpt>
      <trkpt lat="43.66013" lon="1.83667">
        <ele>218.6</ele>
        <time>2013-11-06T13:38:8.000Z</time>
      </trkpt>
      <trkpt lat="43.66022" lon="1.83666">
        <ele>218.8</ele>
        <time>2013-11-06T13:38:16.000Z</time>
      </trkpt>
      <trkpt lat="43.66022" lon="1.83666">
        <ele>218.9</ele>
        <time>2013-11-06T13:38:17.000Z</time>
      </trkpt>
      <trkpt lat="43.66036" lon="1.83654">
        <ele>219.2</ele>
        <time>2013-11-06T13:38:32.000Z</time>
      </trkpt>
      <trkpt lat="43.66042" lon="1.83647">
        <ele>219.4</ele>
        <time>2013-11-06T13:38:38.000Z</time>
      </trkpt>
      <trkpt lat="43.66048" lon="1.83641">
        <ele>219.7</ele>
        <time>2013-11-06T13:38:44.000Z</time>
      </trkpt>
      <trkpt lat="43.66055" lon="1.83633">
        <ele>219.7</ele>
        <time>2013-11-06T13:38:50.000Z</time>
      </trkpt>
      <trkpt lat="43.66061" lon="1.83627">
        <ele>219.6</ele>
        <time>2013-11-06T13:38:57.000Z</time>
      </trkpt>
      <trkpt lat="43.66069" lon="1.8362">
        <ele>219.3</ele>
        <time>2013-11-06T13:39:5.000Z</time>
      </trkpt>
      <trkpt lat="43.66076" lon="1.83615">
        <ele>218.6</ele>
        <time>2013-11-06T13:39:12.000Z</time>
      </trkpt>
      <trkpt lat="43.66084" lon="1.83609">
        <ele>218.3</ele>
        <time>2013-11-06T13:39:20.000Z</time>
      </trkpt>
      <trkpt lat="43.66085" lon="1.83608">
        <ele>218.3</ele>
        <time>2013-11-06T13:39:21.000Z</time>
      </trkpt>
      <trkpt lat="43.66098" lon="1.83597">
        <ele>217.3</ele>
        <time>2013-11-06T13:39:33.000Z</time>
      </trkpt>
      <trkpt lat="43.66106" lon="1.83591">
        <ele>216.6</ele>
        <time>2013-11-06T13:39:41.000Z</time>
      </trkpt>
      <trkpt lat="43.66113" lon="1.83585">
        <ele>215.8</ele>
        <time>2013-11-06T13:39:49.000Z</time>
      </trkpt>
      <trkpt lat="43.66121" lon="1.8358">
        <ele>215.5</ele>
        <time>2013-11-06T13:39:54.000Z</time>
      </trkpt>
      <trkpt lat="43.66127" lon="1.83572">
        <ele>214.9</ele>
        <time>2013-11-06T13:40:1.000Z</time>
      </trkpt>
      <trkpt lat="43.66134" lon="1.83565">
        <ele>214.5</ele>
        <time>2013-11-06T13:40:8.000Z</time>
      </trkpt>
      <trkpt lat="43.66141" lon="1.83559">
        <ele>214</ele>
        <time>2013-11-06T13:40:15.000Z</time>
      </trkpt>
      <trkpt lat="43.66149" lon="1.83555">
        <ele>213.6</ele>
        <time>2013-11-06T13:40:22.000Z</time>
      </trkpt>
      <trkpt lat="43.6615" lon="1.83554">
        <ele>213.4</ele>
        <time>2013-11-06T13:40:23.000Z</time>
      </trkpt>
      <trkpt lat="43.66164" lon="1.83546">
        <ele>212.3</ele>
        <time>2013-11-06T13:40:35.000Z</time>
      </trkpt>
      <trkpt lat="43.66171" lon="1.8354">
        <ele>211.5</ele>
        <time>2013-11-06T13:40:42.000Z</time>
      </trkpt>
      <trkpt lat="43.66178" lon="1.83534">
        <ele>210.5</ele>
        <time>2013-11-06T13:40:49.000Z</time>
      </trkpt>
      <trkpt lat="43.66185" lon="1.83529">
        <ele>210.1</ele>
        <time>2013-11-06T13:40:55.000Z</time>
      </trkpt>
      <trkpt lat="43.66192" lon="1.83523">
        <ele>209.5</ele>
        <time>2013-11-06T13:41:2.000Z</time>
      </trkpt>
      <trkpt lat="43.662" lon="1.83517">
        <ele>209.1</ele>
        <time>2013-11-06T13:41:9.000Z</time>
      </trkpt>
      <trkpt lat="43.66207" lon="1.83511">
        <ele>209.1</ele>
        <time>2013-11-06T13:41:15.000Z</time>
      </trkpt>
      <trkpt lat="43.66215" lon="1.83506">
        <ele>208.7</ele>
        <time>2013-11-06T13:41:22.000Z</time>
      </trkpt>
      <trkpt lat="43.66222" lon="1.83502">
        <ele>208.7</ele>
        <time>2013-11-06T13:41:28.000Z</time>
      </trkpt>
      <trkpt lat="43.66223" lon="1.83501">
        <ele>208.7</ele>
        <time>2013-11-06T13:41:29.000Z</time>
      </trkpt>
      <trkpt lat="43.66238" lon="1.83492">
        <ele>209</ele>
        <time>2013-11-06T13:41:42.000Z</time>
      </trkpt>
      <trkpt lat="43.66246" lon="1.8349">
        <ele>208.9</ele>
        <time>2013-11-06T13:41:49.000Z</time>
      </trkpt>
      <trkpt lat="43.66253" lon="1.83483">
        <ele>209.2</ele>
        <time>2013-11-06T13:41:59.000Z</time>
      </trkpt>
      <trkpt lat="43.66261" lon="1.83476">
        <ele>209.6</ele>
        <time>2013-11-06T13:42:9.000Z</time>
      </trkpt>
      <trkpt lat="43.66268" lon="1.83472">
        <ele>210.5</ele>
        <time>2013-11-06T13:42:18.000Z</time>
      </trkpt>
      <trkpt lat="43.66277" lon="1.83471">
        <ele>211</ele>
        <time>2013-11-06T13:42:24.000Z</time>
      </trkpt>
      <trkpt lat="43.66285" lon="1.83467">
        <ele>211.1</ele>
        <time>2013-11-06T13:42:32.000Z</time>
      </trkpt>
      <trkpt lat="43.66286" lon="1.83467">
        <ele>210.9</ele>
        <time>2013-11-06T13:42:33.000Z</time>
      </trkpt>
      <trkpt lat="43.66302" lon="1.83461">
        <ele>211.3</ele>
        <time>2013-11-06T13:42:48.000Z</time>
      </trkpt>
      <trkpt lat="43.66309" lon="1.83456">
        <ele>211.3</ele>
        <time>2013-11-06T13:42:55.000Z</time>
      </trkpt>
      <trkpt lat="43.66317" lon="1.83452">
        <ele>211.9</ele>
        <time>2013-11-06T13:43:3.000Z</time>
      </trkpt>
      <trkpt lat="43.66326" lon="1.83449">
        <ele>211.6</ele>
        <time>2013-11-06T13:43:13.000Z</time>
      </trkpt>
      <trkpt lat="43.66333" lon="1.83446">
        <ele>210.7</ele>
        <time>2013-11-06T13:44:4.000Z</time>
      </trkpt>
      <trkpt lat="43.66335" lon="1.83446">
        <ele>210.8</ele>
        <time>2013-11-06T13:44:5.000Z</time>
      </trkpt>
      <trkpt lat="43.66349" lon="1.8344">
        <ele>209.7</ele>
        <time>2013-11-06T13:45:12.000Z</time>
      </trkpt>
      <trkpt lat="43.6635" lon="1.83439">
        <ele>209.8</ele>
        <time>2013-11-06T13:45:13.000Z</time>
      </trkpt>
      <trkpt lat="43.66366" lon="1.83441">
        <ele>207.7</ele>
        <time>2013-11-06T13:45:30.000Z</time>
      </trkpt>
      <trkpt lat="43.66375" lon="1.83439">
        <ele>206.6</ele>
        <time>2013-11-06T13:45:38.000Z</time>
      </trkpt>
      <trkpt lat="43.66383" lon="1.83437">
        <ele>205.6</ele>
        <time>2013-11-06T13:45:47.000Z</time>
      </trkpt>
      <trkpt lat="43.66391" lon="1.83436">
        <ele>205</ele>
        <time>2013-11-06T13:45:54.000Z</time>
      </trkpt>
      <trkpt lat="43.66399" lon="1.83434">
        <ele>204</ele>
        <time>2013-11-06T13:46:2.000Z</time>
      </trkpt>
      <trkpt lat="43.66408" lon="1.83433">
        <ele>203.2</ele>
        <time>2013-11-06T13:46:10.000Z</time>
      </trkpt>
      <trkpt lat="43.66416" lon="1.83432">
        <ele>202.9</ele>
        <time>2013-11-06T13:46:16.000Z</time>
      </trkpt>
      <trkpt lat="43.66417" lon="1.83432">
        <ele>202.7</ele>
        <time>2013-11-06T13:46:17.000Z</time>
      </trkpt>
      <trkpt lat="43.66433" lon="1.83428">
        <ele>201.2</ele>
        <time>2013-11-06T13:46:32.000Z</time>
      </trkpt>
      <trkpt lat="43.66441" lon="1.83426">
        <ele>200.6</ele>
        <time>2013-11-06T13:46:39.000Z</time>
      </trkpt>
      <trkpt lat="43.66449" lon="1.83423">
        <ele>199.9</ele>
        <time>2013-11-06T13:46:45.000Z</time>
      </trkpt>
      <trkpt lat="43.66457" lon="1.83416">
        <ele>199.4</ele>
        <time>2013-11-06T13:46:53.000Z</time>
      </trkpt>
      <trkpt lat="43.66465" lon="1.83411">
        <ele>199</ele>
        <time>2013-11-06T13:47:1.000Z</time>
      </trkpt>
      <trkpt lat="43.66472" lon="1.83404">
        <ele>198.6</ele>
        <time>2013-11-06T13:47:9.000Z</time>
      </trkpt>
      <trkpt lat="43.66479" lon="1.83397">
        <ele>198.6</ele>
        <time>2013-11-06T13:47:16.000Z</time>
      </trkpt>
      <trkpt lat="43.66486" lon="1.8339">
        <ele>198</ele>
        <time>2013-11-06T13:47:22.000Z</time>
      </trkpt>
      <trkpt lat="43.66487" lon="1.83388">
        <ele>197.8</ele>
        <time>2013-11-06T13:47:23.000Z</time>
      </trkpt>
      <trkpt lat="43.665" lon="1.83376">
        <ele>197.5</ele>
        <time>2013-11-06T13:47:35.000Z</time>
      </trkpt>
      <trkpt lat="43.66506" lon="1.83369">
        <ele>197.3</ele>
        <time>2013-11-06T13:47:42.000Z</time>
      </trkpt>
      <trkpt lat="43.66512" lon="1.83361">
        <ele>197.2</ele>
        <time>2013-11-06T13:47:49.000Z</time>
      </trkpt>
      <trkpt lat="43.66518" lon="1.83353">
        <ele>197.2</ele>
        <time>2013-11-06T13:47:56.000Z</time>
      </trkpt>
      <trkpt lat="43.66524" lon="1.83346">
        <ele>197.2</ele>
        <time>2013-11-06T13:48:3.000Z</time>
      </trkpt>
      <trkpt lat="43.6653" lon="1.8334">
        <ele>196.8</ele>
        <time>2013-11-06T13:48:10.000Z</time>
      </trkpt>
      <trkpt lat="43.66537" lon="1.83333">
        <ele>196.7</ele>
        <time>2013-11-06T13:48:18.000Z</time>
      </trkpt>
      <trkpt lat="43.66544" lon="1.83327">
        <ele>195.9</ele>
        <time>2013-11-06T13:48:24.000Z</time>
      </trkpt>
      <trkpt lat="43.66545" lon="1.83326">
        <ele>195.7</ele>
        <time>2013-11-06T13:48:25.000Z</time>
      </trkpt>
      <trkpt lat="43.6656" lon="1.83319">
        <ele>195.3</ele>
        <time>2013-11-06T13:48:38.000Z</time>
      </trkpt>
      <trkpt lat="43.66568" lon="1.83315">
        <ele>195.3</ele>
        <time>2013-11-06T13:48:45.000Z</time>
      </trkpt>
      <trkpt lat="43.66576" lon="1.83313">
        <ele>195.3</ele>
        <time>2013-11-06T13:48:51.000Z</time>
      </trkpt>
      <trkpt lat="43.66584" lon="1.83309">
        <ele>195.3</ele>
        <time>2013-11-06T13:48:58.000Z</time>
      </trkpt>
      <trkpt lat="43.66592" lon="1.83306">
        <ele>195.2</ele>
        <time>2013-11-06T13:49:5.000Z</time>
      </trkpt>
      <trkpt lat="43.666" lon="1.83301">
        <ele>194.9</ele>
        <time>2013-11-06T13:49:12.000Z</time>
      </trkpt>
      <trkpt lat="43.66607" lon="1.83295">
        <ele>194.7</ele>
        <time>2013-11-06T13:49:19.000Z</time>
      </trkpt>
      <trkpt lat="43.66614" lon="1.8329">
        <ele>194.5</ele>
        <time>2013-11-06T13:49:26.000Z</time>
      </trkpt>
      <trkpt lat="43.66615" lon="1.83289">
        <ele>194.5</ele>
        <time>2013-11-06T13:49:27.000Z</time>
      </trkpt>
      <trkpt lat="43.66627" lon="1.83273">
        <ele>194.5</ele>
        <time>2013-11-06T13:49:40.000Z</time>
      </trkpt>
      <trkpt lat="43.66632" lon="1.83264">
        <ele>194.6</ele>
        <time>2013-11-06T13:49:47.000Z</time>
      </trkpt>
      <trkpt lat="43.66636" lon="1.83255">
        <ele>194.7</ele>
        <time>2013-11-06T13:49:54.000Z</time>
      </trkpt>
      <trkpt lat="43.66641" lon="1.83245">
        <ele>194.5</ele>
        <time>2013-11-06T13:50:1.000Z</time>
      </trkpt>
      <trkpt lat="43.66645" lon="1.83235">
        <ele>194.5</ele>
        <time>2013-11-06T13:50:8.000Z</time>
      </trkpt>
      <trkpt lat="43.6665" lon="1.83224">
        <ele>194.3</ele>
        <time>2013-11-06T13:50:15.000Z</time>
      </trkpt>
      <trkpt lat="43.66655" lon="1.83215">
        <ele>194.3</ele>
        <time>2013-11-06T13:50:22.000Z</time>
      </trkpt>
      <trkpt lat="43.66661" lon="1.83207">
        <ele>194.4</ele>
        <time>2013-11-06T13:50:29.000Z</time>
      </trkpt>
      <trkpt lat="43.66662" lon="1.83206">
        <ele>194.4</ele>
        <time>2013-11-06T13:50:30.000Z</time>
      </trkpt>
      <trkpt lat="43.66673" lon="1.83189">
        <ele>195</ele>
        <time>2013-11-06T13:50:43.000Z</time>
      </trkpt>
      <trkpt lat="43.66679" lon="1.83181">
        <ele>195.2</ele>
        <time>2013-11-06T13:50:50.000Z</time>
      </trkpt>
      <trkpt lat="43.66684" lon="1.83172">
        <ele>195.3</ele>
        <time>2013-11-06T13:50:57.000Z</time>
      </trkpt>
      <trkpt lat="43.6669" lon="1.83163">
        <ele>195.3</ele>
        <time>2013-11-06T13:51:4.000Z</time>
      </trkpt>
      <trkpt lat="43.66696" lon="1.83154">
        <ele>195.3</ele>
        <time>2013-11-06T13:51:11.000Z</time>
      </trkpt>
      <trkpt lat="43.66702" lon="1.83145">
        <ele>195.3</ele>
        <time>2013-11-06T13:51:18.000Z</time>
      </trkpt>
      <trkpt lat="43.66708" lon="1.83138">
        <ele>195.5</ele>
        <time>2013-11-06T13:51:24.000Z</time>
      </trkpt>
      <trkpt lat="43.66714" lon="1.8313">
        <ele>195.7</ele>
        <time>2013-11-06T13:51:31.000Z</time>
      </trkpt>
      <trkpt lat="43.66715" lon="1.83129">
        <ele>195.5</ele>
        <time>2013-11-06T13:51:32.000Z</time>
      </trkpt>
      <trkpt lat="43.66726" lon="1.83115">
        <ele>194.7</ele>
        <time>2013-11-06T13:51:45.000Z</time>
      </trkpt>
      <trkpt lat="43.66731" lon="1.83105">
        <ele>193.9</ele>
        <time>2013-11-06T13:51:52.000Z</time>
      </trkpt>
      <trkpt lat="43.66735" lon="1.83095">
        <ele>193.2</ele>
        <time>2013-11-06T13:52:0.000Z</time>
      </trkpt>
      <trkpt lat="43.6674" lon="1.83085">
        <ele>192.6</ele>
        <time>2013-11-06T13:52:7.000Z</time>
      </trkpt>
      <trkpt lat="43.66744" lon="1.83076">
        <ele>192</ele>
        <time>2013-11-06T13:52:14.000Z</time>
      </trkpt>
      <trkpt lat="43.6675" lon="1.83066">
        <ele>191.1</ele>
        <time>2013-11-06T13:52:23.000Z</time>
      </trkpt>
      <trkpt lat="43.66754" lon="1.83056">
        <ele>190.1</ele>
        <time>2013-11-06T13:52:36.000Z</time>
      </trkpt>
      <trkpt lat="43.66755" lon="1.83055">
        <ele>190</ele>
        <time>2013-11-06T13:52:37.000Z</time>
      </trkpt>
      <trkpt lat="43.66766" lon="1.83038">
        <ele>189.2</ele>
        <time>2013-11-06T13:52:54.000Z</time>
      </trkpt>
      <trkpt lat="43.66771" lon="1.83029">
        <ele>188.7</ele>
        <time>2013-11-06T13:53:2.000Z</time>
      </trkpt>
      <trkpt lat="43.66776" lon="1.8302">
        <ele>188.4</ele>
        <time>2013-11-06T13:53:9.000Z</time>
      </trkpt>
      <trkpt lat="43.6678" lon="1.83011">
        <ele>188</ele>
        <time>2013-11-06T13:53:16.000Z</time>
      </trkpt>
      <trkpt lat="43.66786" lon="1.83002">
        <ele>188.1</ele>
        <time>2013-11-06T13:53:23.000Z</time>
      </trkpt>
      <trkpt lat="43.6679" lon="1.82992">
        <ele>187.7</ele>
        <time>2013-11-06T13:53:30.000Z</time>
      </trkpt>
      <trkpt lat="43.66796" lon="1.82983">
        <ele>187.6</ele>
        <time>2013-11-06T13:53:37.000Z</time>
      </trkpt>
      <trkpt lat="43.66797" lon="1.82982">
        <ele>187.5</ele>
        <time>2013-11-06T13:53:38.000Z</time>
      </trkpt>
      <trkpt lat="43.66807" lon="1.82964">
        <ele>187.1</ele>
        <time>2013-11-06T13:53:51.000Z</time>
      </trkpt>
      <trkpt lat="43.66812" lon="1.82956">
        <ele>186.9</ele>
        <time>2013-11-06T13:53:57.000Z</time>
      </trkpt>
      <trkpt lat="43.66818" lon="1.82946">
        <ele>186.8</ele>
        <time>2013-11-06T13:54:4.000Z</time>
      </trkpt>
      <trkpt lat="43.66822" lon="1.82938">
        <ele>186.6</ele>
        <time>2013-11-06T13:54:10.000Z</time>
      </trkpt>
      <trkpt lat="43.66828" lon="1.82928">
        <ele>186.4</ele>
        <time>2013-11-06T13:54:17.000Z</time>
      </trkpt>
      <trkpt lat="43.66832" lon="1.8292">
        <ele>186.1</ele>
        <time>2013-11-06T13:54:23.000Z</time>
      </trkpt>
      <trkpt lat="43.66837" lon="1.82911">
        <ele>185.7</ele>
        <time>2013-11-06T13:54:29.000Z</time>
      </trkpt>
      <trkpt lat="43.66841" lon="1.82902">
        <ele>185.9</ele>
        <time>2013-11-06T13:54:34.000Z</time>
      </trkpt>
      <trkpt lat="43.66846" lon="1.82892">
        <ele>185.8</ele>
        <time>2013-11-06T13:54:40.000Z</time>
      </trkpt>
      <trkpt lat="43.66847" lon="1.82891">
        <ele>185.9</ele>
        <time>2013-11-06T13:54:41.000Z</time>
      </trkpt>
      <trkpt lat="43.66856" lon="1.82874">
        <ele>186</ele>
        <time>2013-11-06T13:54:52.000Z</time>
      </trkpt>
      <trkpt lat="43.6686" lon="1.82866">
        <ele>185.6</ele>
        <time>2013-11-06T13:54:58.000Z</time>
      </trkpt>
      <trkpt lat="43.66865" lon="1.82856">
        <ele>185.5</ele>
        <time>2013-11-06T13:55:4.000Z</time>
      </trkpt>
      <trkpt lat="43.6687" lon="1.82848">
        <ele>185.3</ele>
        <time>2013-11-06T13:55:10.000Z</time>
      </trkpt>
      <trkpt lat="43.66875" lon="1.8284">
        <ele>185.2</ele>
        <time>2013-11-06T13:55:16.000Z</time>
      </trkpt>
      <trkpt lat="43.6688" lon="1.82831">
        <ele>185.4</ele>
        <time>2013-11-06T13:55:22.000Z</time>
      </trkpt>
      <trkpt lat="43.66886" lon="1.82822">
        <ele>185.5</ele>
        <time>2013-11-06T13:55:29.000Z</time>
      </trkpt>
      <trkpt lat="43.66892" lon="1.82813">
        <ele>185</ele>
        <time>2013-11-06T13:55:36.000Z</time>
      </trkpt>
      <trkpt lat="43.66898" lon="1.82804">
        <ele>184.5</ele>
        <time>2013-11-06T13:55:43.000Z</time>
      </trkpt>
      <trkpt lat="43.66899" lon="1.82803">
        <ele>184.4</ele>
        <time>2013-11-06T13:55:44.000Z</time>
      </trkpt>
      <trkpt lat="43.66909" lon="1.82786">
        <ele>183.7</ele>
        <time>2013-11-06T13:55:56.000Z</time>
      </trkpt>
      <trkpt lat="43.66915" lon="1.82778">
        <ele>183.8</ele>
        <time>2013-11-06T13:56:3.000Z</time>
      </trkpt>
      <trkpt lat="43.66921" lon="1.82769">
        <ele>183.6</ele>
        <time>2013-11-06T13:56:10.000Z</time>
      </trkpt>
      <trkpt lat="43.66925" lon="1.82759">
        <ele>183.2</ele>
        <time>2013-11-06T13:56:17.000Z</time>
      </trkpt>
      <trkpt lat="43.66929" lon="1.8275">
        <ele>183.1</ele>
        <time>2013-11-06T13:56:24.000Z</time>
      </trkpt>
      <trkpt lat="43.66934" lon="1.82741">
        <ele>183</ele>
        <time>2013-11-06T13:56:31.000Z</time>
      </trkpt>
      <trkpt lat="43.66939" lon="1.82733">
        <ele>182.6</ele>
        <time>2013-11-06T13:56:36.000Z</time>
      </trkpt>
      <trkpt lat="43.66944" lon="1.82723">
        <ele>182.1</ele>
        <time>2013-11-06T13:56:42.000Z</time>
      </trkpt>
      <trkpt lat="43.66949" lon="1.82714">
        <ele>182</ele>
        <time>2013-11-06T13:56:49.000Z</time>
      </trkpt>
      <trkpt lat="43.6695" lon="1.82712">
        <ele>182</ele>
        <time>2013-11-06T13:56:50.000Z</time>
      </trkpt>
      <trkpt lat="43.6696" lon="1.82698">
        <ele>181.4</ele>
        <time>2013-11-06T13:57:1.000Z</time>
      </trkpt>
      <trkpt lat="43.66966" lon="1.8269">
        <ele>181.3</ele>
        <time>2013-11-06T13:57:7.000Z</time>
      </trkpt>
      <trkpt lat="43.66971" lon="1.82682">
        <ele>181.1</ele>
        <time>2013-11-06T13:57:13.000Z</time>
      </trkpt>
      <trkpt lat="43.66975" lon="1.82673">
        <ele>180.6</ele>
        <time>2013-11-06T13:57:19.000Z</time>
      </trkpt>
      <trkpt lat="43.66981" lon="1.82666">
        <ele>180.3</ele>
        <time>2013-11-06T13:57:25.000Z</time>
      </trkpt>
      <trkpt lat="43.66988" lon="1.82659">
        <ele>179.3</ele>
        <time>2013-11-06T13:57:34.000Z</time>
      </trkpt>
      <trkpt lat="43.66993" lon="1.82651">
        <ele>177.8</ele>
        <time>2013-11-06T13:57:42.000Z</time>
      </trkpt>
      <trkpt lat="43.66998" lon="1.82641">
        <ele>176.6</ele>
        <time>2013-11-06T13:57:50.000Z</time>
      </trkpt>
      <trkpt lat="43.66998" lon="1.82639">
        <ele>176.5</ele>
        <time>2013-11-06T13:57:51.000Z</time>
      </trkpt>
      <trkpt lat="43.67009" lon="1.82623">
        <ele>175.1</ele>
        <time>2013-11-06T13:58:3.000Z</time>
      </trkpt>
      <trkpt lat="43.67013" lon="1.82612">
        <ele>174.1</ele>
        <time>2013-11-06T13:58:9.000Z</time>
      </trkpt>
      <trkpt lat="43.6702" lon="1.82607">
        <ele>173.1</ele>
        <time>2013-11-06T13:58:16.000Z</time>
      </trkpt>
      <trkpt lat="43.67027" lon="1.82602">
        <ele>172.5</ele>
        <time>2013-11-06T13:58:22.000Z</time>
      </trkpt>
      <trkpt lat="43.67035" lon="1.82598">
        <ele>171.6</ele>
        <time>2013-11-06T13:58:28.000Z</time>
      </trkpt>
      <trkpt lat="43.67043" lon="1.82593">
        <ele>171.2</ele>
        <time>2013-11-06T13:58:34.000Z</time>
      </trkpt>
      <trkpt lat="43.6705" lon="1.82588">
        <ele>170.4</ele>
        <time>2013-11-06T13:58:41.000Z</time>
      </trkpt>
      <trkpt lat="43.67057" lon="1.82582">
        <ele>169.2</ele>
        <time>2013-11-06T13:58:48.000Z</time>
      </trkpt>
      <trkpt lat="43.67065" lon="1.82577">
        <ele>168.8</ele>
        <time>2013-11-06T13:58:55.000Z</time>
      </trkpt>
      <trkpt lat="43.67066" lon="1.82577">
        <ele>168.7</ele>
        <time>2013-11-06T13:58:56.000Z</time>
      </trkpt>
      <trkpt lat="43.6708" lon="1.82568">
        <ele>167.6</ele>
        <time>2013-11-06T13:59:7.000Z</time>
      </trkpt>
      <trkpt lat="43.67087" lon="1.82563">
        <ele>167.2</ele>
        <time>2013-11-06T13:59:13.000Z</time>
      </trkpt>
      <trkpt lat="43.67095" lon="1.8256">
        <ele>166.4</ele>
        <time>2013-11-06T13:59:19.000Z</time>
      </trkpt>
      <trkpt lat="43.67103" lon="1.82556">
        <ele>165.5</ele>
        <time>2013-11-06T13:59:26.000Z</time>
      </trkpt>
      <trkpt lat="43.6711" lon="1.82551">
        <ele>165</ele>
        <time>2013-11-06T13:59:33.000Z</time>
      </trkpt>
      <trkpt lat="43.67117" lon="1.82547">
        <ele>164.3</ele>
        <time>2013-11-06T13:59:39.000Z</time>
      </trkpt>
      <trkpt lat="43.67126" lon="1.82543">
        <ele>163.6</ele>
        <time>2013-11-06T13:59:47.000Z</time>
      </trkpt>
      <trkpt lat="43.67133" lon="1.82537">
        <ele>163</ele>
        <time>2013-11-06T13:59:54.000Z</time>
      </trkpt>
      <trkpt lat="43.6714" lon="1.82531">
        <ele>161.8</ele>
        <time>2013-11-06T14:00:2.000Z</time>
      </trkpt>
      <trkpt lat="43.67141" lon="1.82531">
        <ele>161.8</ele>
        <time>2013-11-06T14:00:3.000Z</time>
      </trkpt>
      <trkpt lat="43.67156" lon="1.82536">
        <ele>160.8</ele>
        <time>2013-11-06T14:00:18.000Z</time>
      </trkpt>
      <trkpt lat="43.67165" lon="1.82538">
        <ele>160.4</ele>
        <time>2013-11-06T14:00:30.000Z</time>
      </trkpt>
      <trkpt lat="43.67174" lon="1.82539">
        <ele>159.9</ele>
        <time>2013-11-06T14:00:39.000Z</time>
      </trkpt>
      <trkpt lat="43.67182" lon="1.82538">
        <ele>159.9</ele>
        <time>2013-11-06T14:00:46.000Z</time>
      </trkpt>
      <trkpt lat="43.67189" lon="1.82541">
        <ele>159.2</ele>
        <time>2013-11-06T14:00:54.000Z</time>
      </trkpt>
      <trkpt lat="43.67198" lon="1.82543">
        <ele>158.5</ele>
        <time>2013-11-06T14:01:2.000Z</time>
      </trkpt>
      <trkpt lat="43.67206" lon="1.82544">
        <ele>157.9</ele>
        <time>2013-11-06T14:01:10.000Z</time>
      </trkpt>
      <trkpt lat="43.67207" lon="1.82544">
        <ele>157.8</ele>
        <time>2013-11-06T14:01:11.000Z</time>
      </trkpt>
      <trkpt lat="43.67223" lon="1.82548">
        <ele>157.5</ele>
        <time>2013-11-06T14:01:24.000Z</time>
      </trkpt>
      <trkpt lat="43.67231" lon="1.82548">
        <ele>156.9</ele>
        <time>2013-11-06T14:01:31.000Z</time>
      </trkpt>
      <trkpt lat="43.67239" lon="1.8255">
        <ele>156.7</ele>
        <time>2013-11-06T14:01:37.000Z</time>
      </trkpt>
      <trkpt lat="43.67247" lon="1.82551">
        <ele>156.3</ele>
        <time>2013-11-06T14:01:43.000Z</time>
      </trkpt>
      <trkpt lat="43.67255" lon="1.82552">
        <ele>156</ele>
        <time>2013-11-06T14:01:49.000Z</time>
      </trkpt>
      <trkpt lat="43.67263" lon="1.82554">
        <ele>155.3</ele>
        <time>2013-11-06T14:01:56.000Z</time>
      </trkpt>
      <trkpt lat="43.67272" lon="1.82555">
        <ele>154.9</ele>
        <time>2013-11-06T14:02:3.000Z</time>
      </trkpt>
      <trkpt lat="43.6728" lon="1.82557">
        <ele>154.6</ele>
        <time>2013-11-06T14:02:10.000Z</time>
      </trkpt>
      <trkpt lat="43.67289" lon="1.8256">
        <ele>154.4</ele>
        <time>2013-11-06T14:02:17.000Z</time>
      </trkpt>
      <trkpt lat="43.6729" lon="1.8256">
        <ele>154.2</ele>
        <time>2013-11-06T14:02:18.000Z</time>
      </trkpt>
      <trkpt lat="43.67305" lon="1.82564">
        <ele>153.5</ele>
        <time>2013-11-06T14:02:32.000Z</time>
      </trkpt>
      <trkpt lat="43.67314" lon="1.82567">
        <ele>153.2</ele>
        <time>2013-11-06T14:02:39.000Z</time>
      </trkpt>
      <trkpt lat="43.67321" lon="1.82571">
        <ele>153.1</ele>
        <time>2013-11-06T14:02:45.000Z</time>
      </trkpt>
      <trkpt lat="43.67329" lon="1.82575">
        <ele>152.9</ele>
        <time>2013-11-06T14:02:52.000Z</time>
      </trkpt>
      <trkpt lat="43.67337" lon="1.82579">
        <ele>152.8</ele>
        <time>2013-11-06T14:02:59.000Z</time>
      </trkpt>
      <trkpt lat="43.67345" lon="1.82584">
        <ele>152.8</ele>
        <time>2013-11-06T14:03:6.000Z</time>
      </trkpt>
      <trkpt lat="43.67353" lon="1.82588">
        <ele>152.4</ele>
        <time>2013-11-06T14:03:13.000Z</time>
      </trkpt>
      <trkpt lat="43.6736" lon="1.82593">
        <ele>152.5</ele>
        <time>2013-11-06T14:03:19.000Z</time>
      </trkpt>
      <trkpt lat="43.67361" lon="1.82594">
        <ele>152.3</ele>
        <time>2013-11-06T14:03:20.000Z</time>
      </trkpt>
      <trkpt lat="43.67374" lon="1.82602">
        <ele>152.3</ele>
        <time>2013-11-06T14:03:31.000Z</time>
      </trkpt>
      <trkpt lat="43.67382" lon="1.82607">
        <ele>152</ele>
        <time>2013-11-06T14:03:37.000Z</time>
      </trkpt>
      <trkpt lat="43.67389" lon="1.82612">
        <ele>151.8</ele>
        <time>2013-11-06T14:03:44.000Z</time>
      </trkpt>
      <trkpt lat="43.67397" lon="1.82617">
        <ele>151.7</ele>
        <time>2013-11-06T14:03:51.000Z</time>
      </trkpt>
      <trkpt lat="43.67405" lon="1.82623">
        <ele>151.8</ele>
        <time>2013-11-06T14:03:58.000Z</time>
      </trkpt>
      <trkpt lat="43.67413" lon="1.82629">
        <ele>151.5</ele>
        <time>2013-11-06T14:04:5.000Z</time>
      </trkpt>
      <trkpt lat="43.6742" lon="1.82635">
        <ele>151.5</ele>
        <time>2013-11-06T14:04:12.000Z</time>
      </trkpt>
      <trkpt lat="43.67428" lon="1.82639">
        <ele>151.6</ele>
        <time>2013-11-06T14:04:19.000Z</time>
      </trkpt>
      <trkpt lat="43.67437" lon="1.82644">
        <ele>151.5</ele>
        <time>2013-11-06T14:04:26.000Z</time>
      </trkpt>
      <trkpt lat="43.67438" lon="1.82645">
        <ele>151.4</ele>
        <time>2013-11-06T14:04:27.000Z</time>
      </trkpt>
      <trkpt lat="43.67453" lon="1.8265">
        <ele>151.4</ele>
        <time>2013-11-06T14:04:40.000Z</time>
      </trkpt>
      <trkpt lat="43.67461" lon="1.82651">
        <ele>151.2</ele>
        <time>2013-11-06T14:04:47.000Z</time>
      </trkpt>
      <trkpt lat="43.6747" lon="1.82652">
        <ele>151.4</ele>
        <time>2013-11-06T14:04:54.000Z</time>
      </trkpt>
      <trkpt lat="43.67479" lon="1.82654">
        <ele>150.9</ele>
        <time>2013-11-06T14:05:1.000Z</time>
      </trkpt>
      <trkpt lat="43.67487" lon="1.82656">
        <ele>150.8</ele>
        <time>2013-11-06T14:05:8.000Z</time>
      </trkpt>
      <trkpt lat="43.67496" lon="1.82656">
        <ele>151.2</ele>
        <time>2013-11-06T14:05:15.000Z</time>
      </trkpt>
      <trkpt lat="43.67503" lon="1.82657">
        <ele>151</ele>
        <time>2013-11-06T14:05:21.000Z</time>
      </trkpt>
      <trkpt lat="43.67512" lon="1.82659">
        <ele>151.1</ele>
        <time>2013-11-06T14:05:28.000Z</time>
      </trkpt>
      <trkpt lat="43.67514" lon="1.82659">
        <ele>151.1</ele>
        <time>2013-11-06T14:05:29.000Z</time>
      </trkpt>
      <trkpt lat="43.6753" lon="1.82661">
        <ele>150.8</ele>
        <time>2013-11-06T14:05:42.000Z</time>
      </trkpt>
      <trkpt lat="43.67538" lon="1.82662">
        <ele>150.7</ele>
        <time>2013-11-06T14:05:49.000Z</time>
      </trkpt>
      <trkpt lat="43.67547" lon="1.82664">
        <ele>150.6</ele>
        <time>2013-11-06T14:05:56.000Z</time>
      </trkpt>
      <trkpt lat="43.67555" lon="1.82667">
        <ele>150.6</ele>
        <time>2013-11-06T14:06:2.000Z</time>
      </trkpt>
      <trkpt lat="43.67562" lon="1.82668">
        <ele>150.5</ele>
        <time>2013-11-06T14:06:8.000Z</time>
      </trkpt>
      <trkpt lat="43.6757" lon="1.82671">
        <ele>150.3</ele>
        <time>2013-11-06T14:06:14.000Z</time>
      </trkpt>
      <trkpt lat="43.67578" lon="1.82674">
        <ele>150.5</ele>
        <time>2013-11-06T14:06:21.000Z</time>
      </trkpt>
      <trkpt lat="43.67586" lon="1.82676">
        <ele>150.4</ele>
        <time>2013-11-06T14:06:27.000Z</time>
      </trkpt>
      <trkpt lat="43.67594" lon="1.82679">
        <ele>150.4</ele>
        <time>2013-11-06T14:06:33.000Z</time>
      </trkpt>
      <trkpt lat="43.67595" lon="1.82679">
        <ele>150.4</ele>
        <time>2013-11-06T14:06:34.000Z</time>
      </trkpt>
      <trkpt lat="43.67611" lon="1.82683">
        <ele>150.4</ele>
        <time>2013-11-06T14:06:47.000Z</time>
      </trkpt>
      <trkpt lat="43.6762" lon="1.82684">
        <ele>150.5</ele>
        <time>2013-11-06T14:06:54.000Z</time>
      </trkpt>
      <trkpt lat="43.67628" lon="1.82685">
        <ele>150.3</ele>
        <time>2013-11-06T14:07:1.000Z</time>
      </trkpt>
      <trkpt lat="43.67634" lon="1.82691">
        <ele>149.7</ele>
        <time>2013-11-06T14:13:7.000Z</time>
      </trkpt>
      <trkpt lat="43.67634" lon="1.82697">
        <ele>149.8</ele>
        <time>2013-11-06T14:13:8.000Z</time>
      </trkpt>
      <trkpt lat="43.67642" lon="1.82686">
        <ele>149.9</ele>
        <time>2013-11-06T14:15:8.000Z</time>
      </trkpt>
      <trkpt lat="43.67655" lon="1.82673">
        <ele>149.3</ele>
        <time>2013-11-06T14:15:32.000Z</time>
      </trkpt>
      <trkpt lat="43.67661" lon="1.82665">
        <ele>149.1</ele>
        <time>2013-11-06T14:15:40.000Z</time>
      </trkpt>
      <trkpt lat="43.67668" lon="1.82658">
        <ele>148.7</ele>
        <time>2013-11-06T14:15:48.000Z</time>
      </trkpt>
      <trkpt lat="43.67675" lon="1.82651">
        <ele>148.6</ele>
        <time>2013-11-06T14:15:56.000Z</time>
      </trkpt>
      <trkpt lat="43.67681" lon="1.82644">
        <ele>148.4</ele>
        <time>2013-11-06T14:16:3.000Z</time>
      </trkpt>
      <trkpt lat="43.67689" lon="1.82639">
        <ele>148.2</ele>
        <time>2013-11-06T14:16:11.000Z</time>
      </trkpt>
      <trkpt lat="43.67689" lon="1.82638">
        <ele>148.2</ele>
        <time>2013-11-06T14:16:12.000Z</time>
      </trkpt>
      <trkpt lat="43.67702" lon="1.82625">
        <ele>148.1</ele>
        <time>2013-11-06T14:16:26.000Z</time>
      </trkpt>
      <trkpt lat="43.67709" lon="1.82618">
        <ele>148</ele>
        <time>2013-11-06T14:16:34.000Z</time>
      </trkpt>
      <trkpt lat="43.67717" lon="1.82611">
        <ele>147.5</ele>
        <time>2013-11-06T14:16:42.000Z</time>
      </trkpt>
      <trkpt lat="43.67723" lon="1.82604">
        <ele>147.9</ele>
        <time>2013-11-06T14:16:49.000Z</time>
      </trkpt>
      <trkpt lat="43.6773" lon="1.82597">
        <ele>147.7</ele>
        <time>2013-11-06T14:16:56.000Z</time>
      </trkpt>
      <trkpt lat="43.67737" lon="1.8259">
        <ele>147.6</ele>
        <time>2013-11-06T14:17:3.000Z</time>
      </trkpt>
      <trkpt lat="43.67744" lon="1.82585">
        <ele>147.3</ele>
        <time>2013-11-06T14:17:10.000Z</time>
      </trkpt>
      <trkpt lat="43.67751" lon="1.82578">
        <ele>146.8</ele>
        <time>2013-11-06T14:17:18.000Z</time>
      </trkpt>
      <trkpt lat="43.67752" lon="1.82577">
        <ele>146.9</ele>
        <time>2013-11-06T14:17:19.000Z</time>
      </trkpt>
      <trkpt lat="43.67767" lon="1.82567">
        <ele>148.7</ele>
        <time>2013-11-06T14:17:35.000Z</time>
      </trkpt>
      <trkpt lat="43.67774" lon="1.8256">
        <ele>146.8</ele>
        <time>2013-11-06T14:17:42.000Z</time>
      </trkpt>
      <trkpt lat="43.67781" lon="1.82555">
        <ele>146.5</ele>
        <time>2013-11-06T14:17:49.000Z</time>
      </trkpt>
      <trkpt lat="43.67789" lon="1.82551">
        <ele>144</ele>
        <time>2013-11-06T14:17:56.000Z</time>
      </trkpt>
      <trkpt lat="43.67797" lon="1.82546">
        <ele>143.1</ele>
        <time>2013-11-06T14:18:5.000Z</time>
      </trkpt>
      <trkpt lat="43.67805" lon="1.82543">
        <ele>142.9</ele>
        <time>2013-11-06T14:18:12.000Z</time>
      </trkpt>
      <trkpt lat="43.67814" lon="1.82542">
        <ele>142.8</ele>
        <time>2013-11-06T14:18:19.000Z</time>
      </trkpt>
      <trkpt lat="43.67815" lon="1.82542">
        <ele>142.9</ele>
        <time>2013-11-06T14:18:20.000Z</time>
      </trkpt>
      <trkpt lat="43.67831" lon="1.82539">
        <ele>144.7</ele>
        <time>2013-11-06T14:18:33.000Z</time>
      </trkpt>
      <trkpt lat="43.67839" lon="1.82537">
        <ele>145.2</ele>
        <time>2013-11-06T14:18:41.000Z</time>
      </trkpt>
      <trkpt lat="43.67847" lon="1.82537">
        <ele>145.2</ele>
        <time>2013-11-06T14:18:48.000Z</time>
      </trkpt>
      <trkpt lat="43.67855" lon="1.82537">
        <ele>145.8</ele>
        <time>2013-11-06T14:18:55.000Z</time>
      </trkpt>
      <trkpt lat="43.67863" lon="1.82535">
        <ele>144.6</ele>
        <time>2013-11-06T14:19:2.000Z</time>
      </trkpt>
      <trkpt lat="43.67872" lon="1.82534">
        <ele>144.1</ele>
        <time>2013-11-06T14:19:11.000Z</time>
      </trkpt>
      <trkpt lat="43.6788" lon="1.82532">
        <ele>143.9</ele>
        <time>2013-11-06T14:19:19.000Z</time>
      </trkpt>
      <trkpt lat="43.67888" lon="1.82529">
        <ele>144.1</ele>
        <time>2013-11-06T14:19:25.000Z</time>
      </trkpt>
      <trkpt lat="43.67889" lon="1.82528">
        <ele>143.8</ele>
        <time>2013-11-06T14:19:26.000Z</time>
      </trkpt>
      <trkpt lat="43.67904" lon="1.82523">
        <ele>143.2</ele>
        <time>2013-11-06T14:19:38.000Z</time>
      </trkpt>
      <trkpt lat="43.67912" lon="1.82519">
        <ele>142.6</ele>
        <time>2013-11-06T14:19:46.000Z</time>
      </trkpt>
      <trkpt lat="43.67919" lon="1.82513">
        <ele>143.2</ele>
        <time>2013-11-06T14:19:53.000Z</time>
      </trkpt>
      <trkpt lat="43.67925" lon="1.82508">
        <ele>143</ele>
        <time>2013-11-06T14:19:58.000Z</time>
      </trkpt>
      <trkpt lat="43.67932" lon="1.82501">
        <ele>142.8</ele>
        <time>2013-11-06T14:20:4.000Z</time>
      </trkpt>
      <trkpt lat="43.67938" lon="1.82494">
        <ele>143.2</ele>
        <time>2013-11-06T14:20:11.000Z</time>
      </trkpt>
      <trkpt lat="43.67944" lon="1.82486">
        <ele>142.8</ele>
        <time>2013-11-06T14:20:17.000Z</time>
      </trkpt>
      <trkpt lat="43.6795" lon="1.82479">
        <ele>142.8</ele>
        <time>2013-11-06T14:20:24.000Z</time>
      </trkpt>
      <trkpt lat="43.67957" lon="1.82473">
        <ele>142.5</ele>
        <time>2013-11-06T14:20:31.000Z</time>
      </trkpt>
      <trkpt lat="43.67958" lon="1.82472">
        <ele>142.4</ele>
        <time>2013-11-06T14:20:32.000Z</time>
      </trkpt>
      <trkpt lat="43.67971" lon="1.82461">
        <ele>142.5</ele>
        <time>2013-11-06T14:20:46.000Z</time>
      </trkpt>
      <trkpt lat="43.67978" lon="1.82454">
        <ele>142.5</ele>
        <time>2013-11-06T14:20:53.000Z</time>
      </trkpt>
      <trkpt lat="43.67985" lon="1.82451">
        <ele>142.1</ele>
        <time>2013-11-06T14:21:0.000Z</time>
      </trkpt>
      <trkpt lat="43.67993" lon="1.82447">
        <ele>142</ele>
        <time>2013-11-06T14:21:6.000Z</time>
      </trkpt>
      <trkpt lat="43.67999" lon="1.82441">
        <ele>141.9</ele>
        <time>2013-11-06T14:21:13.000Z</time>
      </trkpt>
      <trkpt lat="43.68006" lon="1.82435">
        <ele>142.4</ele>
        <time>2013-11-06T14:21:20.000Z</time>
      </trkpt>
      <trkpt lat="43.68013" lon="1.82429">
        <ele>142.8</ele>
        <time>2013-11-06T14:21:27.000Z</time>
      </trkpt>
      <trkpt lat="43.6802" lon="1.82422">
        <ele>142.7</ele>
        <time>2013-11-06T14:21:35.000Z</time>
      </trkpt>
      <trkpt lat="43.68021" lon="1.82421">
        <ele>142.7</ele>
        <time>2013-11-06T14:21:36.000Z</time>
      </trkpt>
      <trkpt lat="43.68034" lon="1.8241">
        <ele>142.2</ele>
        <time>2013-11-06T14:21:48.000Z</time>
      </trkpt>
      <trkpt lat="43.68041" lon="1.82404">
        <ele>141.7</ele>
        <time>2013-11-06T14:21:55.000Z</time>
      </trkpt>
      <trkpt lat="43.68049" lon="1.824">
        <ele>141.6</ele>
        <time>2013-11-06T14:22:2.000Z</time>
      </trkpt>
      <trkpt lat="43.68057" lon="1.82396">
        <ele>141.6</ele>
        <time>2013-11-06T14:22:10.000Z</time>
      </trkpt>
      <trkpt lat="43.68065" lon="1.82391">
        <ele>141.9</ele>
        <time>2013-11-06T14:22:17.000Z</time>
      </trkpt>
      <trkpt lat="43.68073" lon="1.82388">
        <ele>142.3</ele>
        <time>2013-11-06T14:22:24.000Z</time>
      </trkpt>
      <trkpt lat="43.68082" lon="1.82384">
        <ele>142.4</ele>
        <time>2013-11-06T14:22:33.000Z</time>
      </trkpt>
      <trkpt lat="43.68089" lon="1.8238">
        <ele>142.2</ele>
        <time>2013-11-06T14:22:40.000Z</time>
      </trkpt>
      <trkpt lat="43.6809" lon="1.82379">
        <ele>142.2</ele>
        <time>2013-11-06T14:22:41.000Z</time>
      </trkpt>
      <trkpt lat="43.68105" lon="1.82372">
        <ele>142.5</ele>
        <time>2013-11-06T14:22:54.000Z</time>
      </trkpt>
      <trkpt lat="43.68112" lon="1.82366">
        <ele>143.1</ele>
        <time>2013-11-06T14:23:3.000Z</time>
      </trkpt>
      <trkpt lat="43.6812" lon="1.82363">
        <ele>143</ele>
        <time>2013-11-06T14:23:9.000Z</time>
      </trkpt>
      <trkpt lat="43.68129" lon="1.82359">
        <ele>143.1</ele>
        <time>2013-11-06T14:23:16.000Z</time>
      </trkpt>
      <trkpt lat="43.68137" lon="1.82357">
        <ele>143.2</ele>
        <time>2013-11-06T14:23:23.000Z</time>
      </trkpt>
      <trkpt lat="43.68145" lon="1.82353">
        <ele>143.2</ele>
        <time>2013-11-06T14:23:31.000Z</time>
      </trkpt>
      <trkpt lat="43.68153" lon="1.82348">
        <ele>143.1</ele>
        <time>2013-11-06T14:23:39.000Z</time>
      </trkpt>
      <trkpt lat="43.68161" lon="1.82345">
        <ele>143.2</ele>
        <time>2013-11-06T14:23:46.000Z</time>
      </trkpt>
      <trkpt lat="43.68162" lon="1.82345">
        <ele>143.1</ele>
        <time>2013-11-06T14:23:47.000Z</time>
      </trkpt>
      <trkpt lat="43.68178" lon="1.8234">
        <ele>143.5</ele>
        <time>2013-11-06T14:24:0.000Z</time>
      </trkpt>
      <trkpt lat="43.68186" lon="1.82337">
        <ele>143</ele>
        <time>2013-11-06T14:24:7.000Z</time>
      </trkpt>
      <trkpt lat="43.68195" lon="1.82335">
        <ele>142.8</ele>
        <time>2013-11-06T14:24:14.000Z</time>
      </trkpt>
      <trkpt lat="43.68203" lon="1.82334">
        <ele>143</ele>
        <time>2013-11-06T14:24:21.000Z</time>
      </trkpt>
      <trkpt lat="43.68211" lon="1.82334">
        <ele>143.1</ele>
        <time>2013-11-06T14:24:28.000Z</time>
      </trkpt>
      <trkpt lat="43.68219" lon="1.82333">
        <ele>143</ele>
        <time>2013-11-06T14:24:36.000Z</time>
      </trkpt>
      <trkpt lat="43.68227" lon="1.8233">
        <ele>143.1</ele>
        <time>2013-11-06T14:24:43.000Z</time>
      </trkpt>
      <trkpt lat="43.68234" lon="1.82327">
        <ele>142.9</ele>
        <time>2013-11-06T14:24:49.000Z</time>
      </trkpt>
      <trkpt lat="43.68235" lon="1.82327">
        <ele>142.9</ele>
        <time>2013-11-06T14:24:50.000Z</time>
      </trkpt>
      <trkpt lat="43.6825" lon="1.82326">
        <ele>142.4</ele>
        <time>2013-11-06T14:25:2.000Z</time>
      </trkpt>
      <trkpt lat="43.68258" lon="1.82326">
        <ele>142.3</ele>
        <time>2013-11-06T14:25:10.000Z</time>
      </trkpt>
      <trkpt lat="43.68267" lon="1.82329">
        <ele>142.3</ele>
        <time>2013-11-06T14:25:16.000Z</time>
      </trkpt>
      <trkpt lat="43.68275" lon="1.82331">
        <ele>142.2</ele>
        <time>2013-11-06T14:25:23.000Z</time>
      </trkpt>
      <trkpt lat="43.68282" lon="1.82331">
        <ele>142.2</ele>
        <time>2013-11-06T14:25:30.000Z</time>
      </trkpt>
      <trkpt lat="43.6829" lon="1.82336">
        <ele>142</ele>
        <time>2013-11-06T14:25:36.000Z</time>
      </trkpt>
      <trkpt lat="43.68298" lon="1.8234">
        <ele>142</ele>
        <time>2013-11-06T14:25:44.000Z</time>
      </trkpt>
      <trkpt lat="43.68306" lon="1.82342">
        <ele>141.6</ele>
        <time>2013-11-06T14:25:51.000Z</time>
      </trkpt>
      <trkpt lat="43.68308" lon="1.82342">
        <ele>141.6</ele>
        <time>2013-11-06T14:25:52.000Z</time>
      </trkpt>
      <trkpt lat="43.68322" lon="1.82347">
        <ele>141.2</ele>
        <time>2013-11-06T14:26:4.000Z</time>
      </trkpt>
      <trkpt lat="43.6833" lon="1.8235">
        <ele>141</ele>
        <time>2013-11-06T14:26:12.000Z</time>
      </trkpt>
      <trkpt lat="43.68339" lon="1.82354">
        <ele>140.8</ele>
        <time>2013-11-06T14:26:20.000Z</time>
      </trkpt>
      <trkpt lat="43.68347" lon="1.82359">
        <ele>140.9</ele>
        <time>2013-11-06T14:26:26.000Z</time>
      </trkpt>
      <trkpt lat="43.68354" lon="1.82361">
        <ele>140.8</ele>
        <time>2013-11-06T14:26:33.000Z</time>
      </trkpt>
      <trkpt lat="43.68362" lon="1.82363">
        <ele>140.5</ele>
        <time>2013-11-06T14:26:38.000Z</time>
      </trkpt>
      <trkpt lat="43.6837" lon="1.82366">
        <ele>140.4</ele>
        <time>2013-11-06T14:26:45.000Z</time>
      </trkpt>
      <trkpt lat="43.68378" lon="1.82371">
        <ele>140.3</ele>
        <time>2013-11-06T14:26:52.000Z</time>
      </trkpt>
      <trkpt lat="43.68379" lon="1.82371">
        <ele>140.2</ele>
        <time>2013-11-06T14:26:53.000Z</time>
      </trkpt>
      <trkpt lat="43.68395" lon="1.82375">
        <ele>140.3</ele>
        <time>2013-11-06T14:27:6.000Z</time>
      </trkpt>
      <trkpt lat="43.68402" lon="1.82381">
        <ele>139.9</ele>
        <time>2013-11-06T14:27:12.000Z</time>
      </trkpt>
      <trkpt lat="43.68409" lon="1.82387">
        <ele>139.7</ele>
        <time>2013-11-06T14:27:19.000Z</time>
      </trkpt>
      <trkpt lat="43.68416" lon="1.82391">
        <ele>139.7</ele>
        <time>2013-11-06T14:27:27.000Z</time>
      </trkpt>
      <trkpt lat="43.68424" lon="1.82395">
        <ele>139.6</ele>
        <time>2013-11-06T14:27:34.000Z</time>
      </trkpt>
      <trkpt lat="43.68432" lon="1.82399">
        <ele>139.4</ele>
        <time>2013-11-06T14:27:40.000Z</time>
      </trkpt>
      <trkpt lat="43.68439" lon="1.82404">
        <ele>139.5</ele>
        <time>2013-11-06T14:27:46.000Z</time>
      </trkpt>
      <trkpt lat="43.68447" lon="1.82406">
        <ele>139.1</ele>
        <time>2013-11-06T14:27:53.000Z</time>
      </trkpt>
      <trkpt lat="43.68448" lon="1.82407">
        <ele>139.3</ele>
        <time>2013-11-06T14:27:54.000Z</time>
      </trkpt>
      <trkpt lat="43.68463" lon="1.8241">
        <ele>138.9</ele>
        <time>2013-11-06T14:28:5.000Z</time>
      </trkpt>
      <trkpt lat="43.6847" lon="1.82412">
        <ele>138.8</ele>
        <time>2013-11-06T14:28:12.000Z</time>
      </trkpt>
      <trkpt lat="43.68478" lon="1.82414">
        <ele>139</ele>
        <time>2013-11-06T14:28:17.000Z</time>
      </trkpt>
      <trkpt lat="43.68486" lon="1.82417">
        <ele>138.9</ele>
        <time>2013-11-06T14:28:25.000Z</time>
      </trkpt>
      <trkpt lat="43.68495" lon="1.82421">
        <ele>138.5</ele>
        <time>2013-11-06T14:28:35.000Z</time>
      </trkpt>
      <trkpt lat="43.685" lon="1.82429">
        <ele>138.3</ele>
        <time>2013-11-06T14:29:1.000Z</time>
      </trkpt>
      <trkpt lat="43.68501" lon="1.8243">
        <ele>138.1</ele>
        <time>2013-11-06T14:29:2.000Z</time>
      </trkpt>
      <trkpt lat="43.6851" lon="1.82446">
        <ele>137.5</ele>
        <time>2013-11-06T14:29:24.000Z</time>
      </trkpt>
      <trkpt lat="43.68511" lon="1.82458">
        <ele>136.9</ele>
        <time>2013-11-06T14:29:30.000Z</time>
      </trkpt>
      <trkpt lat="43.68516" lon="1.82469">
        <ele>136.8</ele>
        <time>2013-11-06T14:29:36.000Z</time>
      </trkpt>
      <trkpt lat="43.68522" lon="1.82477">
        <ele>139.2</ele>
        <time>2013-11-06T14:29:44.000Z</time>
      </trkpt>
      <trkpt lat="43.68528" lon="1.82484">
        <ele>138.3</ele>
        <time>2013-11-06T14:29:49.000Z</time>
      </trkpt>
      <trkpt lat="43.68534" lon="1.82491">
        <ele>137.5</ele>
        <time>2013-11-06T14:29:57.000Z</time>
      </trkpt>
      <trkpt lat="43.68538" lon="1.82501">
        <ele>137.1</ele>
        <time>2013-11-06T14:30:3.000Z</time>
      </trkpt>
      <trkpt lat="43.68539" lon="1.82502">
        <ele>137.2</ele>
        <time>2013-11-06T14:30:4.000Z</time>
      </trkpt>
      <trkpt lat="43.68548" lon="1.82515">
        <ele>137.3</ele>
        <time>2013-11-06T14:30:16.000Z</time>
      </trkpt>
      <trkpt lat="43.68555" lon="1.82519">
        <ele>137.6</ele>
        <time>2013-11-06T14:30:20.000Z</time>
      </trkpt>
      <trkpt lat="43.68562" lon="1.82523">
        <ele>138.2</ele>
        <time>2013-11-06T14:30:26.000Z</time>
      </trkpt>
      <trkpt lat="43.68569" lon="1.82528">
        <ele>137.3</ele>
        <time>2013-11-06T14:30:32.000Z</time>
      </trkpt>
      <trkpt lat="43.68577" lon="1.8253">
        <ele>137.3</ele>
        <time>2013-11-06T14:30:38.000Z</time>
      </trkpt>
      <trkpt lat="43.68585" lon="1.82535">
        <ele>136.8</ele>
        <time>2013-11-06T14:30:43.000Z</time>
      </trkpt>
      <trkpt lat="43.68593" lon="1.82541">
        <ele>136.2</ele>
        <time>2013-11-06T14:30:50.000Z</time>
      </trkpt>
      <trkpt lat="43.686" lon="1.82548">
        <ele>136.3</ele>
        <time>2013-11-06T14:30:56.000Z</time>
      </trkpt>
      <trkpt lat="43.68607" lon="1.82552">
        <ele>136.7</ele>
        <time>2013-11-06T14:31:2.000Z</time>
      </trkpt>
      <trkpt lat="43.68613" lon="1.8256">
        <ele>136.5</ele>
        <time>2013-11-06T14:31:8.000Z</time>
      </trkpt>
      <trkpt lat="43.68614" lon="1.82561">
        <ele>136.6</ele>
        <time>2013-11-06T14:31:9.000Z</time>
      </trkpt>
      <trkpt lat="43.68624" lon="1.82576">
        <ele>136.3</ele>
        <time>2013-11-06T14:31:20.000Z</time>
      </trkpt>
      <trkpt lat="43.68632" lon="1.82581">
        <ele>136.4</ele>
        <time>2013-11-06T14:31:27.000Z</time>
      </trkpt>
      <trkpt lat="43.68639" lon="1.82583">
        <ele>136</ele>
        <time>2013-11-06T14:31:36.000Z</time>
      </trkpt>
      <trkpt lat="43.68647" lon="1.82588">
        <ele>136.3</ele>
        <time>2013-11-06T14:31:43.000Z</time>
      </trkpt>
      <trkpt lat="43.68654" lon="1.82594">
        <ele>136.1</ele>
        <time>2013-11-06T14:31:50.000Z</time>
      </trkpt>
      <trkpt lat="43.6866" lon="1.82602">
        <ele>135.6</ele>
        <time>2013-11-06T14:31:58.000Z</time>
      </trkpt>
      <trkpt lat="43.68666" lon="1.8261">
        <ele>134.9</ele>
        <time>2013-11-06T14:32:8.000Z</time>
      </trkpt>
      <trkpt lat="43.68672" lon="1.82616">
        <ele>135.2</ele>
        <time>2013-11-06T14:32:14.000Z</time>
      </trkpt>
      <trkpt lat="43.68674" lon="1.82617">
        <ele>135.4</ele>
        <time>2013-11-06T14:32:15.000Z</time>
      </trkpt>
      <trkpt lat="43.68688" lon="1.82625">
        <ele>135.9</ele>
        <time>2013-11-06T14:32:31.000Z</time>
      </trkpt>
      <trkpt lat="43.68695" lon="1.82631">
        <ele>135.8</ele>
        <time>2013-11-06T14:32:38.000Z</time>
      </trkpt>
      <trkpt lat="43.68702" lon="1.82638">
        <ele>135.6</ele>
        <time>2013-11-06T14:32:46.000Z</time>
      </trkpt>
      <trkpt lat="43.6871" lon="1.82643">
        <ele>135.6</ele>
        <time>2013-11-06T14:32:54.000Z</time>
      </trkpt>
      <trkpt lat="43.68716" lon="1.8265">
        <ele>135.5</ele>
        <time>2013-11-06T14:33:1.000Z</time>
      </trkpt>
      <trkpt lat="43.68723" lon="1.82656">
        <ele>134.8</ele>
        <time>2013-11-06T14:33:9.000Z</time>
      </trkpt>
      <trkpt lat="43.6873" lon="1.82662">
        <ele>134.9</ele>
        <time>2013-11-06T14:33:16.000Z</time>
      </trkpt>
      <trkpt lat="43.68731" lon="1.82663">
        <ele>134.9</ele>
        <time>2013-11-06T14:33:17.000Z</time>
      </trkpt>
      <trkpt lat="43.68745" lon="1.82672">
        <ele>134.8</ele>
        <time>2013-11-06T14:33:32.000Z</time>
      </trkpt>
      <trkpt lat="43.68753" lon="1.82676">
        <ele>135</ele>
        <time>2013-11-06T14:33:40.000Z</time>
      </trkpt>
      <trkpt lat="43.6876" lon="1.82683">
        <ele>134.9</ele>
        <time>2013-11-06T14:33:46.000Z</time>
      </trkpt>
      <trkpt lat="43.68767" lon="1.8269">
        <ele>134.7</ele>
        <time>2013-11-06T14:33:53.000Z</time>
      </trkpt>
      <trkpt lat="43.68774" lon="1.82695">
        <ele>134.8</ele>
        <time>2013-11-06T14:34:3.000Z</time>
      </trkpt>
      <trkpt lat="43.68775" lon="1.82706">
        <ele>134.7</ele>
        <time>2013-11-06T14:34:53.000Z</time>
      </trkpt>
      <trkpt lat="43.68777" lon="1.82709">
        <ele>134.8</ele>
        <time>2013-11-06T14:34:54.000Z</time>
      </trkpt>
      <trkpt lat="43.68789" lon="1.82718">
        <ele>135.3</ele>
        <time>2013-11-06T14:35:1.000Z</time>
      </trkpt>
      <trkpt lat="43.68796" lon="1.82725">
        <ele>135.5</ele>
        <time>2013-11-06T14:35:13.000Z</time>
      </trkpt>
      <trkpt lat="43.68803" lon="1.82732">
        <ele>135.4</ele>
        <time>2013-11-06T14:35:22.000Z</time>
      </trkpt>
      <trkpt lat="43.6881" lon="1.82737">
        <ele>131.1</ele>
        <time>2013-11-06T14:35:27.000Z</time>
      </trkpt>
      <trkpt lat="43.68818" lon="1.8274">
        <ele>134.7</ele>
        <time>2013-11-06T14:35:32.000Z</time>
      </trkpt>
      <trkpt lat="43.68825" lon="1.82746">
        <ele>127.6</ele>
        <time>2013-11-06T14:35:38.000Z</time>
      </trkpt>
      <trkpt lat="43.68831" lon="1.82754">
        <ele>130.3</ele>
        <time>2013-11-06T14:35:45.000Z</time>
      </trkpt>
      <trkpt lat="43.68836" lon="1.82763">
        <ele>136</ele>
        <time>2013-11-06T14:35:51.000Z</time>
      </trkpt>
      <trkpt lat="43.68843" lon="1.82767">
        <ele>135.9</ele>
        <time>2013-11-06T14:35:57.000Z</time>
      </trkpt>
      <trkpt lat="43.68844" lon="1.82767">
        <ele>135.9</ele>
        <time>2013-11-06T14:35:58.000Z</time>
      </trkpt>
      <trkpt lat="43.68854" lon="1.82781">
        <ele>134.9</ele>
        <time>2013-11-06T14:36:6.000Z</time>
      </trkpt>
      <trkpt lat="43.68862" lon="1.82788">
        <ele>133.4</ele>
        <time>2013-11-06T14:36:15.000Z</time>
      </trkpt>
      <trkpt lat="43.68867" lon="1.82794">
        <ele>134</ele>
        <time>2013-11-06T14:36:22.000Z</time>
      </trkpt>
      <trkpt lat="43.68873" lon="1.82801">
        <ele>134.9</ele>
        <time>2013-11-06T14:36:28.000Z</time>
      </trkpt>
      <trkpt lat="43.68881" lon="1.82806">
        <ele>132.7</ele>
        <time>2013-11-06T14:36:33.000Z</time>
      </trkpt>
      <trkpt lat="43.68888" lon="1.8281">
        <ele>131</ele>
        <time>2013-11-06T14:36:38.000Z</time>
      </trkpt>
      <trkpt lat="43.68895" lon="1.82817">
        <ele>130</ele>
        <time>2013-11-06T14:36:43.000Z</time>
      </trkpt>
      <trkpt lat="43.68901" lon="1.82823">
        <ele>129.3</ele>
        <time>2013-11-06T14:36:49.000Z</time>
      </trkpt>
      <trkpt lat="43.68908" lon="1.8283">
        <ele>128.5</ele>
        <time>2013-11-06T14:36:55.000Z</time>
      </trkpt>
      <trkpt lat="43.68914" lon="1.82839">
        <ele>127.5</ele>
        <time>2013-11-06T14:37:3.000Z</time>
      </trkpt>
      <trkpt lat="43.68915" lon="1.8284">
        <ele>127.3</ele>
        <time>2013-11-06T14:37:4.000Z</time>
      </trkpt>
      <trkpt lat="43.68927" lon="1.82854">
        <ele>126.4</ele>
        <time>2013-11-06T14:37:16.000Z</time>
      </trkpt>
      <trkpt lat="43.68934" lon="1.82858">
        <ele>126</ele>
        <time>2013-11-06T14:37:22.000Z</time>
      </trkpt>
      <trkpt lat="43.68941" lon="1.82862">
        <ele>125.6</ele>
        <time>2013-11-06T14:37:27.000Z</time>
      </trkpt>
      <trkpt lat="43.68947" lon="1.82868">
        <ele>125.1</ele>
        <time>2013-11-06T14:37:31.000Z</time>
      </trkpt>
      <trkpt lat="43.68955" lon="1.82874">
        <ele>124.4</ele>
        <time>2013-11-06T14:37:36.000Z</time>
      </trkpt>
      <trkpt lat="43.68961" lon="1.82882">
        <ele>123.9</ele>
        <time>2013-11-06T14:37:43.000Z</time>
      </trkpt>
      <trkpt lat="43.68967" lon="1.82888">
        <ele>123.8</ele>
        <time>2013-11-06T14:37:47.000Z</time>
      </trkpt>
      <trkpt lat="43.68972" lon="1.82896">
        <ele>123.5</ele>
        <time>2013-11-06T14:37:54.000Z</time>
      </trkpt>
      <trkpt lat="43.68978" lon="1.82903">
        <ele>123.3</ele>
        <time>2013-11-06T14:37:59.000Z</time>
      </trkpt>
      <trkpt lat="43.68985" lon="1.82906">
        <ele>122.9</ele>
        <time>2013-11-06T14:38:3.000Z</time>
      </trkpt>
      <trkpt lat="43.68989" lon="1.82917">
        <ele>122.1</ele>
        <time>2013-11-06T14:38:15.000Z</time>
      </trkpt>
      <trkpt lat="43.6899" lon="1.82919">
        <ele>122</ele>
        <time>2013-11-06T14:38:16.000Z</time>
      </trkpt>
      <trkpt lat="43.69003" lon="1.82929">
        <ele>121.8</ele>
        <time>2013-11-06T14:38:25.000Z</time>
      </trkpt>
      <trkpt lat="43.6901" lon="1.82936">
        <ele>122.3</ele>
        <time>2013-11-06T14:38:32.000Z</time>
      </trkpt>
      <trkpt lat="43.69016" lon="1.82944">
        <ele>122.5</ele>
        <time>2013-11-06T14:38:39.000Z</time>
      </trkpt>
      <trkpt lat="43.69023" lon="1.82949">
        <ele>122.7</ele>
        <time>2013-11-06T14:38:45.000Z</time>
      </trkpt>
      <trkpt lat="43.69031" lon="1.82955">
        <ele>123.1</ele>
        <time>2013-11-06T14:38:53.000Z</time>
      </trkpt>
      <trkpt lat="43.69039" lon="1.82958">
        <ele>123.3</ele>
        <time>2013-11-06T14:38:59.000Z</time>
      </trkpt>
      <trkpt lat="43.69048" lon="1.82959">
        <ele>123</ele>
        <time>2013-11-06T14:39:6.000Z</time>
      </trkpt>
      <trkpt lat="43.69055" lon="1.82954">
        <ele>123.1</ele>
        <time>2013-11-06T14:39:13.000Z</time>
      </trkpt>
      <trkpt lat="43.6906" lon="1.82945">
        <ele>123.1</ele>
        <time>2013-11-06T14:39:18.000Z</time>
      </trkpt>
      <trkpt lat="43.69061" lon="1.82944">
        <ele>123</ele>
        <time>2013-11-06T14:39:19.000Z</time>
      </trkpt>
      <trkpt lat="43.69073" lon="1.8293">
        <ele>123</ele>
        <time>2013-11-06T14:39:31.000Z</time>
      </trkpt>
      <trkpt lat="43.69078" lon="1.82921">
        <ele>123.1</ele>
        <time>2013-11-06T14:39:37.000Z</time>
      </trkpt>
      <trkpt lat="43.69084" lon="1.82912">
        <ele>123</ele>
        <time>2013-11-06T14:39:44.000Z</time>
      </trkpt>
      <trkpt lat="43.6909" lon="1.82903">
        <ele>122.9</ele>
        <time>2013-11-06T14:39:49.000Z</time>
      </trkpt>
      <trkpt lat="43.69097" lon="1.82896">
        <ele>122.4</ele>
        <time>2013-11-06T14:40:0.000Z</time>
      </trkpt>
      <trkpt lat="43.691" lon="1.82887">
        <ele>122.5</ele>
        <time>2013-11-06T14:40:6.000Z</time>
      </trkpt>
      <trkpt lat="43.69106" lon="1.82879">
        <ele>124.6</ele>
        <time>2013-11-06T14:40:12.000Z</time>
      </trkpt>
      <trkpt lat="43.69111" lon="1.8287">
        <ele>123.2</ele>
        <time>2013-11-06T14:40:17.000Z</time>
      </trkpt>
      <trkpt lat="43.69116" lon="1.82861">
        <ele>120.5</ele>
        <time>2013-11-06T14:40:23.000Z</time>
      </trkpt>
      <trkpt lat="43.69116" lon="1.82859">
        <ele>120.7</ele>
        <time>2013-11-06T14:40:24.000Z</time>
      </trkpt>
      <trkpt lat="43.69127" lon="1.82844">
        <ele>121.6</ele>
        <time>2013-11-06T14:40:43.000Z</time>
      </trkpt>
      <trkpt lat="43.69134" lon="1.82838">
        <ele>122.5</ele>
        <time>2013-11-06T14:40:51.000Z</time>
      </trkpt>
      <trkpt lat="43.69141" lon="1.8283">
        <ele>121.6</ele>
        <time>2013-11-06T14:40:55.000Z</time>
      </trkpt>
      <trkpt lat="43.69147" lon="1.82821">
        <ele>123.4</ele>
        <time>2013-11-06T14:41:3.000Z</time>
      </trkpt>
      <trkpt lat="43.69153" lon="1.82814">
        <ele>121.7</ele>
        <time>2013-11-06T14:41:10.000Z</time>
      </trkpt>
      <trkpt lat="43.6916" lon="1.82807">
        <ele>120.3</ele>
        <time>2013-11-06T14:41:16.000Z</time>
      </trkpt>
      <trkpt lat="43.69165" lon="1.82799">
        <ele>120.2</ele>
        <time>2013-11-06T14:41:22.000Z</time>
      </trkpt>
      <trkpt lat="43.6917" lon="1.82789">
        <ele>120.6</ele>
        <time>2013-11-06T14:41:28.000Z</time>
      </trkpt>
      <trkpt lat="43.69171" lon="1.82788">
        <ele>120.6</ele>
        <time>2013-11-06T14:41:29.000Z</time>
      </trkpt>
      <trkpt lat="43.69184" lon="1.82775">
        <ele>120.4</ele>
        <time>2013-11-06T14:41:42.000Z</time>
      </trkpt>
      <trkpt lat="43.69193" lon="1.82772">
        <ele>121.2</ele>
        <time>2013-11-06T14:41:50.000Z</time>
      </trkpt>
      <trkpt lat="43.69201" lon="1.82768">
        <ele>121.2</ele>
        <time>2013-11-06T14:41:56.000Z</time>
      </trkpt>
      <trkpt lat="43.69209" lon="1.82763">
        <ele>121.2</ele>
        <time>2013-11-06T14:42:1.000Z</time>
      </trkpt>
      <trkpt lat="43.69216" lon="1.82756">
        <ele>121.4</ele>
        <time>2013-11-06T14:42:8.000Z</time>
      </trkpt>
      <trkpt lat="43.69223" lon="1.8275">
        <ele>121.7</ele>
        <time>2013-11-06T14:42:14.000Z</time>
      </trkpt>
      <trkpt lat="43.6923" lon="1.82743">
        <ele>122</ele>
        <time>2013-11-06T14:42:21.000Z</time>
      </trkpt>
      <trkpt lat="43.69234" lon="1.82733">
        <ele>122.4</ele>
        <time>2013-11-06T14:42:26.000Z</time>
      </trkpt>
      <trkpt lat="43.69239" lon="1.82725">
        <ele>122.2</ele>
        <time>2013-11-06T14:42:34.000Z</time>
      </trkpt>
      <trkpt lat="43.6924" lon="1.82724">
        <ele>122.1</ele>
        <time>2013-11-06T14:42:35.000Z</time>
      </trkpt>
      <trkpt lat="43.69251" lon="1.82708">
        <ele>121.5</ele>
        <time>2013-11-06T14:42:45.000Z</time>
      </trkpt>
      <trkpt lat="43.69257" lon="1.82699">
        <ele>122</ele>
        <time>2013-11-06T14:42:51.000Z</time>
      </trkpt>
      <trkpt lat="43.69262" lon="1.82689">
        <ele>121.4</ele>
        <time>2013-11-06T14:42:58.000Z</time>
      </trkpt>
      <trkpt lat="43.69268" lon="1.82683">
        <ele>121.6</ele>
        <time>2013-11-06T14:43:3.000Z</time>
      </trkpt>
      <trkpt lat="43.69275" lon="1.82678">
        <ele>121.3</ele>
        <time>2013-11-06T14:43:10.000Z</time>
      </trkpt>
      <trkpt lat="43.69282" lon="1.82672">
        <ele>121.3</ele>
        <time>2013-11-06T14:43:15.000Z</time>
      </trkpt>
      <trkpt lat="43.69288" lon="1.82663">
        <ele>121.1</ele>
        <time>2013-11-06T14:43:22.000Z</time>
      </trkpt>
      <trkpt lat="43.69294" lon="1.82657">
        <ele>120.9</ele>
        <time>2013-11-06T14:43:27.000Z</time>
      </trkpt>
      <trkpt lat="43.69299" lon="1.82647">
        <ele>120.8</ele>
        <time>2013-11-06T14:43:34.000Z</time>
      </trkpt>
      <trkpt lat="43.69305" lon="1.8264">
        <ele>120.7</ele>
        <time>2013-11-06T14:43:39.000Z</time>
      </trkpt>
      <trkpt lat="43.69306" lon="1.82638">
        <ele>120.6</ele>
        <time>2013-11-06T14:43:40.000Z</time>
      </trkpt>
      <trkpt lat="43.69317" lon="1.82626">
        <ele>120.3</ele>
        <time>2013-11-06T14:43:52.000Z</time>
      </trkpt>
      <trkpt lat="43.69325" lon="1.8262">
        <ele>120.2</ele>
        <time>2013-11-06T14:43:59.000Z</time>
      </trkpt>
      <trkpt lat="43.69332" lon="1.82614">
        <ele>120.3</ele>
        <time>2013-11-06T14:44:5.000Z</time>
      </trkpt>
      <trkpt lat="43.69339" lon="1.82607">
        <ele>120.6</ele>
        <time>2013-11-06T14:44:11.000Z</time>
      </trkpt>
      <trkpt lat="43.69344" lon="1.826">
        <ele>120.8</ele>
        <time>2013-11-06T14:44:17.000Z</time>
      </trkpt>
      <trkpt lat="43.69351" lon="1.82591">
        <ele>120.7</ele>
        <time>2013-11-06T14:44:22.000Z</time>
      </trkpt>
      <trkpt lat="43.69358" lon="1.82588">
        <ele>120.7</ele>
        <time>2013-11-06T14:44:29.000Z</time>
      </trkpt>
      <trkpt lat="43.69364" lon="1.82579">
        <ele>121.3</ele>
        <time>2013-11-06T14:44:38.000Z</time>
      </trkpt>
      <trkpt lat="43.69372" lon="1.82576">
        <ele>120.4</ele>
        <time>2013-11-06T14:44:43.000Z</time>
      </trkpt>
      <trkpt lat="43.69373" lon="1.82576">
        <ele>120.3</ele>
        <time>2013-11-06T14:44:44.000Z</time>
      </trkpt>
      <trkpt lat="43.69385" lon="1.82565">
        <ele>120</ele>
        <time>2013-11-06T14:44:55.000Z</time>
      </trkpt>
      <trkpt lat="43.69389" lon="1.82556">
        <ele>120.3</ele>
        <time>2013-11-06T14:45:1.000Z</time>
      </trkpt>
      <trkpt lat="43.69393" lon="1.82545">
        <ele>120.7</ele>
        <time>2013-11-06T14:45:7.000Z</time>
      </trkpt>
      <trkpt lat="43.69396" lon="1.82535">
        <ele>120.7</ele>
        <time>2013-11-06T14:45:13.000Z</time>
      </trkpt>
      <trkpt lat="43.69401" lon="1.82525">
        <ele>120.5</ele>
        <time>2013-11-06T14:45:19.000Z</time>
      </trkpt>
      <trkpt lat="43.69404" lon="1.82516">
        <ele>120.3</ele>
        <time>2013-11-06T14:45:25.000Z</time>
      </trkpt>
      <trkpt lat="43.69409" lon="1.82508">
        <ele>120.2</ele>
        <time>2013-11-06T14:45:29.000Z</time>
      </trkpt>
      <trkpt lat="43.69413" lon="1.82498">
        <ele>120.2</ele>
        <time>2013-11-06T14:45:37.000Z</time>
      </trkpt>
      <trkpt lat="43.69417" lon="1.82488">
        <ele>119.4</ele>
        <time>2013-11-06T14:45:44.000Z</time>
      </trkpt>
      <trkpt lat="43.69418" lon="1.82487">
        <ele>119.4</ele>
        <time>2013-11-06T14:45:45.000Z</time>
      </trkpt>
      <trkpt lat="43.69429" lon="1.82473">
        <ele>118.9</ele>
        <time>2013-11-06T14:45:57.000Z</time>
      </trkpt>
      <trkpt lat="43.69434" lon="1.82463">
        <ele>118.1</ele>
        <time>2013-11-06T14:46:3.000Z</time>
      </trkpt>
      <trkpt lat="43.69439" lon="1.82456">
        <ele>117.7</ele>
        <time>2013-11-06T14:46:8.000Z</time>
      </trkpt>
      <trkpt lat="43.69446" lon="1.82448">
        <ele>116.9</ele>
        <time>2013-11-06T14:46:15.000Z</time>
      </trkpt>
      <trkpt lat="43.69453" lon="1.82442">
        <ele>116.5</ele>
        <time>2013-11-06T14:46:21.000Z</time>
      </trkpt>
      <trkpt lat="43.69459" lon="1.82432">
        <ele>116</ele>
        <time>2013-11-06T14:46:28.000Z</time>
      </trkpt>
      <trkpt lat="43.69464" lon="1.82423">
        <ele>115.2</ele>
        <time>2013-11-06T14:46:34.000Z</time>
      </trkpt>
      <trkpt lat="43.6947" lon="1.82414">
        <ele>115</ele>
        <time>2013-11-06T14:46:41.000Z</time>
      </trkpt>
      <trkpt lat="43.69473" lon="1.82404">
        <ele>114.1</ele>
        <time>2013-11-06T14:46:49.000Z</time>
      </trkpt>
      <trkpt lat="43.69473" lon="1.82402">
        <ele>114</ele>
        <time>2013-11-06T14:46:50.000Z</time>
      </trkpt>
      <trkpt lat="43.69471" lon="1.82391">
        <ele>113.7</ele>
        <time>2013-11-06T14:48:8.000Z</time>
      </trkpt>
      <trkpt lat="43.69462" lon="1.82389">
        <ele>113.5</ele>
        <time>2013-11-06T14:48:9.000Z</time>
      </trkpt>
      <trkpt lat="43.69478" lon="1.82374">
        <ele>112.8</ele>
        <time>2013-11-06T14:48:32.000Z</time>
      </trkpt>
      <trkpt lat="43.69483" lon="1.82366">
        <ele>112.7</ele>
        <time>2013-11-06T14:48:39.000Z</time>
      </trkpt>
      <trkpt lat="43.69485" lon="1.82354">
        <ele>112.6</ele>
        <time>2013-11-06T14:48:45.000Z</time>
      </trkpt>
      <trkpt lat="43.69488" lon="1.82343">
        <ele>112.2</ele>
        <time>2013-11-06T14:48:54.000Z</time>
      </trkpt>
      <trkpt lat="43.6949" lon="1.82332">
        <ele>112</ele>
        <time>2013-11-06T14:49:1.000Z</time>
      </trkpt>
      <trkpt lat="43.69494" lon="1.82321">
        <ele>111.7</ele>
        <time>2013-11-06T14:49:10.000Z</time>
      </trkpt>
      <trkpt lat="43.69493" lon="1.82319">
        <ele>111.7</ele>
        <time>2013-11-06T14:49:11.000Z</time>
      </trkpt>
      <trkpt lat="43.69494" lon="1.82298">
        <ele>111.7</ele>
        <time>2013-11-06T14:49:21.000Z</time>
      </trkpt>
      <trkpt lat="43.69494" lon="1.82287">
        <ele>112</ele>
        <time>2013-11-06T14:49:28.000Z</time>
      </trkpt>
      <trkpt lat="43.69498" lon="1.82277">
        <ele>112</ele>
        <time>2013-11-06T14:49:34.000Z</time>
      </trkpt>
      <trkpt lat="43.695" lon="1.82265">
        <ele>112.2</ele>
        <time>2013-11-06T14:49:41.000Z</time>
      </trkpt>
      <trkpt lat="43.69504" lon="1.82257">
        <ele>112</ele>
        <time>2013-11-06T14:49:46.000Z</time>
      </trkpt>
      <trkpt lat="43.69509" lon="1.82247">
        <ele>112.4</ele>
        <time>2013-11-06T14:49:52.000Z</time>
      </trkpt>
      <trkpt lat="43.69514" lon="1.82239">
        <ele>111.9</ele>
        <time>2013-11-06T14:49:57.000Z</time>
      </trkpt>
      <trkpt lat="43.69521" lon="1.82233">
        <ele>112</ele>
        <time>2013-11-06T14:50:3.000Z</time>
      </trkpt>
      <trkpt lat="43.69528" lon="1.82225">
        <ele>111.3</ele>
        <time>2013-11-06T14:50:10.000Z</time>
      </trkpt>
      <trkpt lat="43.69534" lon="1.82217">
        <ele>111.7</ele>
        <time>2013-11-06T14:50:15.000Z</time>
      </trkpt>
      <trkpt lat="43.69535" lon="1.82216">
        <ele>111.6</ele>
        <time>2013-11-06T14:50:16.000Z</time>
      </trkpt>
      <trkpt lat="43.69546" lon="1.82203">
        <ele>112.2</ele>
        <time>2013-11-06T14:50:28.000Z</time>
      </trkpt>
      <trkpt lat="43.69549" lon="1.82193">
        <ele>112</ele>
        <time>2013-11-06T14:50:34.000Z</time>
      </trkpt>
      <trkpt lat="43.6955" lon="1.82182">
        <ele>112</ele>
        <time>2013-11-06T14:50:40.000Z</time>
      </trkpt>
      <trkpt lat="43.69554" lon="1.82171">
        <ele>112</ele>
        <time>2013-11-06T14:50:44.000Z</time>
      </trkpt>
      <trkpt lat="43.69557" lon="1.82161">
        <ele>111.6</ele>
        <time>2013-11-06T14:50:50.000Z</time>
      </trkpt>
      <trkpt lat="43.69562" lon="1.82151">
        <ele>111.7</ele>
        <time>2013-11-06T14:50:57.000Z</time>
      </trkpt>
      <trkpt lat="43.69566" lon="1.82142">
        <ele>111.8</ele>
        <time>2013-11-06T14:51:3.000Z</time>
      </trkpt>
      <trkpt lat="43.69569" lon="1.82131">
        <ele>111.5</ele>
        <time>2013-11-06T14:51:10.000Z</time>
      </trkpt>
      <trkpt lat="43.69573" lon="1.8212">
        <ele>111.3</ele>
        <time>2013-11-06T14:51:19.000Z</time>
      </trkpt>
      <trkpt lat="43.69573" lon="1.8212">
        <ele>111.1</ele>
        <time>2013-11-06T14:51:20.000Z</time>
      </trkpt>
      <trkpt lat="43.69587" lon="1.82111">
        <ele>110.1</ele>
        <time>2013-11-06T14:51:46.000Z</time>
      </trkpt>
      <trkpt lat="43.69594" lon="1.82104">
        <ele>110.3</ele>
        <time>2013-11-06T14:51:52.000Z</time>
      </trkpt>
      <trkpt lat="43.69602" lon="1.821">
        <ele>110.1</ele>
        <time>2013-11-06T14:51:58.000Z</time>
      </trkpt>
      <trkpt lat="43.69608" lon="1.82092">
        <ele>110.3</ele>
        <time>2013-11-06T14:52:5.000Z</time>
      </trkpt>
      <trkpt lat="43.69612" lon="1.82083">
        <ele>110.3</ele>
        <time>2013-11-06T14:52:10.000Z</time>
      </trkpt>
      <trkpt lat="43.6962" lon="1.82076">
        <ele>111.2</ele>
        <time>2013-11-06T14:52:18.000Z</time>
      </trkpt>
      <trkpt lat="43.69627" lon="1.82071">
        <ele>111.8</ele>
        <time>2013-11-06T14:52:25.000Z</time>
      </trkpt>
      <trkpt lat="43.69629" lon="1.8207">
        <ele>112.1</ele>
        <time>2013-11-06T14:52:26.000Z</time>
      </trkpt>
      <trkpt lat="43.69644" lon="1.82066">
        <ele>114</ele>
        <time>2013-11-06T14:52:38.000Z</time>
      </trkpt>
      <trkpt lat="43.69653" lon="1.82064">
        <ele>114.9</ele>
        <time>2013-11-06T14:52:45.000Z</time>
      </trkpt>
      <trkpt lat="43.69661" lon="1.82061">
        <ele>115.7</ele>
        <time>2013-11-06T14:52:54.000Z</time>
      </trkpt>
      <trkpt lat="43.69668" lon="1.82056">
        <ele>116.9</ele>
        <time>2013-11-06T14:53:1.000Z</time>
      </trkpt>
      <trkpt lat="43.69677" lon="1.82052">
        <ele>118.1</ele>
        <time>2013-11-06T14:53:7.000Z</time>
      </trkpt>
      <trkpt lat="43.69684" lon="1.82046">
        <ele>119.4</ele>
        <time>2013-11-06T14:53:13.000Z</time>
      </trkpt>
      <trkpt lat="43.69691" lon="1.8204">
        <ele>120.7</ele>
        <time>2013-11-06T14:53:19.000Z</time>
      </trkpt>
      <trkpt lat="43.69697" lon="1.82032">
        <ele>121.8</ele>
        <time>2013-11-06T14:53:26.000Z</time>
      </trkpt>
      <trkpt lat="43.69698" lon="1.8203">
        <ele>121.9</ele>
        <time>2013-11-06T14:53:27.000Z</time>
      </trkpt>
      <trkpt lat="43.69706" lon="1.82012">
        <ele>124.2</ele>
        <time>2013-11-06T14:53:39.000Z</time>
      </trkpt>
      <trkpt lat="43.69711" lon="1.82003">
        <ele>125.6</ele>
        <time>2013-11-06T14:53:45.000Z</time>
      </trkpt>
      <trkpt lat="43.69713" lon="1.81991">
        <ele>125.6</ele>
        <time>2013-11-06T14:53:53.000Z</time>
      </trkpt>
      <trkpt lat="43.6972" lon="1.81984">
        <ele>126.4</ele>
        <time>2013-11-06T14:54:2.000Z</time>
      </trkpt>
      <trkpt lat="43.69721" lon="1.82018">
        <ele>130</ele>
        <time>2013-11-06T14:54:35.000Z</time>
      </trkpt>
      <trkpt lat="43.69724" lon="1.82029">
        <ele>130.8</ele>
        <time>2013-11-06T14:54:38.000Z</time>
      </trkpt>
      <trkpt lat="43.69729" lon="1.82039">
        <ele>130.9</ele>
        <time>2013-11-06T14:54:43.000Z</time>
      </trkpt>
      <trkpt lat="43.69734" lon="1.82048">
        <ele>131.3</ele>
        <time>2013-11-06T14:54:50.000Z</time>
      </trkpt>
      <trkpt lat="43.69738" lon="1.82059">
        <ele>131.1</ele>
        <time>2013-11-06T14:54:57.000Z</time>
      </trkpt>
      <trkpt lat="43.6974" lon="1.82069">
        <ele>131</ele>
        <time>2013-11-06T14:55:2.000Z</time>
      </trkpt>
      <trkpt lat="43.69744" lon="1.82079">
        <ele>131.3</ele>
        <time>2013-11-06T14:55:7.000Z</time>
      </trkpt>
      <trkpt lat="43.69747" lon="1.8209">
        <ele>131.2</ele>
        <time>2013-11-06T14:55:12.000Z</time>
      </trkpt>
      <trkpt lat="43.6975" lon="1.821">
        <ele>131.1</ele>
        <time>2013-11-06T14:55:16.000Z</time>
      </trkpt>
      <trkpt lat="43.69754" lon="1.8211">
        <ele>131</ele>
        <time>2013-11-06T14:55:21.000Z</time>
      </trkpt>
      <trkpt lat="43.69758" lon="1.82117">
        <ele>131</ele>
        <time>2013-11-06T14:55:24.000Z</time>
      </trkpt>
      <trkpt lat="43.69764" lon="1.82127">
        <ele>130.8</ele>
        <time>2013-11-06T14:55:29.000Z</time>
      </trkpt>
      <trkpt lat="43.69771" lon="1.82131">
        <ele>130.7</ele>
        <time>2013-11-06T14:55:33.000Z</time>
      </trkpt>
      <trkpt lat="43.69779" lon="1.82132">
        <ele>130.3</ele>
        <time>2013-11-06T14:55:38.000Z</time>
      </trkpt>
      <trkpt lat="43.69788" lon="1.82133">
        <ele>130.6</ele>
        <time>2013-11-06T14:55:46.000Z</time>
      </trkpt>
      <trkpt lat="43.69789" lon="1.82132">
        <ele>130.6</ele>
        <time>2013-11-06T14:55:47.000Z</time>
      </trkpt>
      <trkpt lat="43.69802" lon="1.82125">
        <ele>132.4</ele>
        <time>2013-11-06T14:56:1.000Z</time>
      </trkpt>
      <trkpt lat="43.69807" lon="1.82117">
        <ele>132.3</ele>
        <time>2013-11-06T14:56:7.000Z</time>
      </trkpt>
      <trkpt lat="43.69809" lon="1.82108">
        <ele>132.5</ele>
        <time>2013-11-06T14:56:10.000Z</time>
      </trkpt>
      <trkpt lat="43.69814" lon="1.82098">
        <ele>132.2</ele>
        <time>2013-11-06T14:56:14.000Z</time>
      </trkpt>
      <trkpt lat="43.69822" lon="1.82103">
        <ele>131.6</ele>
        <time>2013-11-06T14:56:21.000Z</time>
      </trkpt>
      <trkpt lat="43.69827" lon="1.82107">
        <ele>131.5</ele>
        <time>2013-11-06T14:56:23.000Z</time>
      </trkpt>
      <trkpt lat="43.69832" lon="1.8211">
        <ele>131.3</ele>
        <time>2013-11-06T14:56:32.000Z</time>
      </trkpt>
      <trkpt lat="43.69841" lon="1.82115">
        <ele>131.2</ele>
        <time>2013-11-06T14:56:33.000Z</time>
      </trkpt>
      <trkpt lat="43.69849" lon="1.82118">
        <ele>131.5</ele>
        <time>2013-11-06T14:56:37.000Z</time>
      </trkpt>
      <trkpt lat="43.69857" lon="1.82118">
        <ele>132</ele>
        <time>2013-11-06T14:56:41.000Z</time>
      </trkpt>
      <trkpt lat="43.69865" lon="1.82118">
        <ele>132.2</ele>
        <time>2013-11-06T14:56:45.000Z</time>
      </trkpt>
      <trkpt lat="43.69872" lon="1.82119">
        <ele>132.4</ele>
        <time>2013-11-06T14:56:49.000Z</time>
      </trkpt>
      <trkpt lat="43.69874" lon="1.82123">
        <ele>132.3</ele>
        <time>2013-11-06T14:56:50.000Z</time>
      </trkpt>
      <trkpt lat="43.69888" lon="1.8213">
        <ele>131.2</ele>
        <time>2013-11-06T14:57:3.000Z</time>
      </trkpt>
      <trkpt lat="43.69896" lon="1.82132">
        <ele>130.7</ele>
        <time>2013-11-06T14:57:14.000Z</time>
      </trkpt>
      <trkpt lat="43.69905" lon="1.82133">
        <ele>130.6</ele>
        <time>2013-11-06T14:57:23.000Z</time>
      </trkpt>
      <trkpt lat="43.69913" lon="1.82133">
        <ele>132.3</ele>
        <time>2013-11-06T14:57:27.000Z</time>
      </trkpt>
      <trkpt lat="43.69921" lon="1.82138">
        <ele>131.8</ele>
        <time>2013-11-06T14:57:33.000Z</time>
      </trkpt>
      <trkpt lat="43.69929" lon="1.82136">
        <ele>132.2</ele>
        <time>2013-11-06T14:57:40.000Z</time>
      </trkpt>
      <trkpt lat="43.69938" lon="1.82137">
        <ele>132.1</ele>
        <time>2013-11-06T14:57:48.000Z</time>
      </trkpt>
      <trkpt lat="43.69946" lon="1.82139">
        <ele>131.9</ele>
        <time>2013-11-06T14:57:54.000Z</time>
      </trkpt>
      <trkpt lat="43.69949" lon="1.82139">
        <ele>131.9</ele>
        <time>2013-11-06T14:57:55.000Z</time>
      </trkpt>
      <trkpt lat="43.69947" lon="1.82159">
        <ele>132</ele>
        <time>2013-11-06T14:58:8.000Z</time>
      </trkpt>
      <trkpt lat="43.69944" lon="1.82169">
        <ele>131.7</ele>
        <time>2013-11-06T14:58:14.000Z</time>
      </trkpt>
      <trkpt lat="43.69941" lon="1.8218">
        <ele>130.7</ele>
        <time>2013-11-06T14:58:35.000Z</time>
      </trkpt>
      <trkpt lat="43.69943" lon="1.8219">
        <ele>129.8</ele>
        <time>2013-11-06T14:59:37.000Z</time>
      </trkpt>
      <trkpt lat="43.69935" lon="1.82191">
        <ele>129.8</ele>
        <time>2013-11-06T14:59:38.000Z</time>
      </trkpt>
      <trkpt lat="43.6993" lon="1.82185">
        <ele>127.5</ele>
        <time>2013-11-06T15:00:53.000Z</time>
      </trkpt>
    </trkseg>
  </trk>
</gpx>